     2.10           OBSERVATION DATA    G (GPS)             RINEX VERSION / TYPE
teqc 2006Apr5 Bo Madsen 20060516 08:17:52UTC                PGM / RUN BY / DATE
Solaris 5.9|UltraSparc IIi|cc -xarch=v9 SC5.5|=+-|*Sparc    COMMENT
BIT 2 OF LLI FLAGS DATA COLLECTED UNDER A/S CONDITION       COMMENT
SKAG                                                        MARKER NAME
Base                                                        MARKER NUMBER
HAUERBACH GFY                                               OBSERVER / AGENCY
00013705 TRIMBLE 4000SSI NP 7.29 / SP 3.07                  REC # / TYPE / VERS
06159 TRM22020.00+GP                                        ANT # / TYPE
  3356838.2011   626716.0243  5368971.0176                  APPROX POSITION XYZ
        0.0000        0.0000        0.0000                  ANTENNA: DELTA H/E/N
     1     1                                                WAVELENGTH FACT L1/2
     6    L1    L2    C1    P2    P1    D1                  # / TYPES OF OBSERV
SNR is mapped to RINEX snr flag value [1-9]                 COMMENT
L1: 3 -> 1; 8 -> 5; 40 -> 9                                 COMMENT
L2: 1 -> 1; 5 -> 5; 60 -> 9                                 COMMENT
  2006     5     7     0     0    0.0000000     GPS         TIME OF FIRST OBS
                                                            END OF HEADER
 06  5  7  0  0  0.0000000  0  9G30G 9G 1G 4G25G 5G 2G14G 6
  -6471970.44848  -4933367.33047  20090672.3704   20090675.5604
     -1106.6134
  37969950.19745  29694332.95645  24226615.3514   24226619.8864
     -6018.7774
   -424686.78146   1224220.47646  22822582.1534   22822587.2984
     -1443.5834
   5174818.80046   4074306.30646  22942225.6504   22942229.6024
     -2923.0064
   -917754.73245   -657486.52045  24030257.2464   24030261.0394
      1127.2994
   4471976.84748   3595483.59347  20550375.5584   20550379.7714
     -3492.1484
  -3393388.40547  -2556034.98046  22421382.1644   22421383.8964
      -465.6054
  10176384.09946  10515945.08146  22735719.0764   22735722.4734
     -4228.1954
  -4496313.83546  -3398416.86246  22546013.2634   22546017.8324
      1180.9164
 06  5  7  0  0 15.0000000  0  9G30G 9G 1G 4G25G 5G 2G14G 6
  -6455310.40048  -4920385.46947  20093842.6674   20093846.1374
     -1114.7074
  38060244.42945  29764692.11245  24243797.7364   24243804.1434
     -6020.4374
   -402956.61146   1241153.07946  22826717.2704   22826722.0494
     -1453.7584
   5218739.88546   4108530.52646  22950583.5584   22950587.5644
     -2933.1314
   -934637.97745   -670642.22545  24027044.4534   24027048.3244
      1123.8134
   4524412.73448   3636342.72747  20560353.7574   20560358.1624
     -3499.2964
  -3386332.10147  -2550536.55646  22422724.9224   22422726.3844
      -475.2264
  10239866.78646  10565412.07346  22747799.4484   22747802.6984
     -4236.1484
  -4513993.78346  -3412193.42446  22542648.8624   22542652.8904
      1176.4234
 06  5  7  0  0 30.0000000  0  9G30G 9G 1G 4G25G 5G 2G14G 6
  -6438529.93848  -4907309.78347  20097035.8754   20097039.4594
     -1122.7724
  38150562.26145  29835069.62645  24260984.6784   24260989.0824
     -6022.0194
   -381074.82346   1258203.86346  22830881.2334   22830885.9604
     -1463.8894
   5262811.86746   4142872.37446  22958970.1814   22958974.7544
     -2943.2324
   -951469.28945   -683757.51246  24023841.5654   24023845.0544
      1120.2954
   4576955.14448   3677284.85447  20570352.2434   20570356.6224
     -3506.4254
  -3379132.13447  -2544926.18046  22424095.0214   22424096.4424
      -484.8394
  10303467.75446  10614971.24046  22759902.3324   22759907.0214
     -4244.0564
  -4531607.18746  -3425918.13246  22539297.1194   22539301.6084
      1171.9464
 06  5  7  0  0 45.0000000  0  9G30G 9G 1G 4G25G 5G 2G14G 6
  -6421628.62048  -4894139.92047  20100252.0874   20100255.9024
     -1130.8254
  38240903.73145  29905465.54445  24278176.1204   24278181.6904
     -6023.5944
   -359041.06146   1275373.04746  22835074.1264   22835078.7744
     -1474.0274
   5307034.62646   4177331.65246  22967385.4884   22967389.7274
     -2953.2684
   -968248.02246   -696831.83545  24020648.6884   24020652.8294
      1116.7854
   4629604.14748   3718310.04947  20580371.0194   20580375.0134
     -3513.5274
  -3371788.00147  -2539203.46946  22425492.5554   22425493.6504
      -494.4794
  10367187.01446  10664622.61446  22772027.7244   22772032.0994
     -4251.9374
  -4549153.46046  -3439590.50646  22535958.1414   22535963.0064
      1167.4694
 06  5  7  0  1  0.0000000  0  9G30G 9G 1G 4G25G 5G 2G14G 6
  -6404606.81448  -4880876.17347  20103491.2274   20103494.8884
     -1138.8634
  38331268.13645  29975879.31945  24295371.9354   24295377.5444
     -6025.0834
   -336855.66946   1292660.36746  22839295.8904   22839299.5624
     -1484.1334
   5351407.75146   4211908.07246  22975829.4394   22975833.8174
     -2963.2734
   -984974.28246   -709865.30445  24017465.8084   24017469.9884
      1113.2834
   4682359.29748   3759417.95947  20590409.9934   20590413.6984
     -3520.5944
  -3364299.78547  -2533368.48346  22426917.5254   22426918.9464
      -504.0894
  10431023.83146  10714365.55446  22784175.4624   22784179.0824
     -4259.7534
  -4566632.76346  -3453210.72646  22532631.9354   22532636.1014
      1162.9884
 06  5  7  0  1 15.0000000  0  9G30G 9G 1G 4G25G 5G 2G14G 6
  -6387464.09048  -4867518.20047  20106753.3694   20106756.6764
     -1146.9304
  38421655.02045  30046310.67345  24312571.9894   24312576.0244
     -6026.6024
   -314518.46546   1310066.00646  22843546.5344   22843550.8764
     -1494.2644
   5395931.14046   4246601.61446  22984301.9654   22984306.2684
     -2973.2854
  -1001647.73445   -722857.57245  24014292.9484   24014296.3844
      1109.7484
   4735220.47448   3800608.48047  20600469.1454   20600472.7384
     -3527.6684
  -3356667.20947  -2527421.01046  22428369.9704   22428371.1824
      -513.7094
  10494977.89346  10764199.86246  22796345.5084   22796349.6264
     -4267.5664
  -4584044.83846  -3466778.56346  22529318.5184   22529323.0454
      1158.4984
 06  5  7  0  1 30.0000000  0  9G30G 9G 1G 4G25G 5G 2G14G 6
  -6370200.60148  -4854066.13047  20110038.4944   20110041.4014
     -1154.9774
  38512064.71045  30116759.77845  24329776.3844   24329780.3744
     -6028.1114
   -292029.23546   1327590.07446  22847826.1194   22847830.6414
     -1504.3974
   5440605.03946   4281412.44046  22992803.1484   22992807.2854
     -2983.3094
  -1018267.88545   -735808.28645  24011130.2024   24011134.7004
      1106.1944
   4788187.83148   3841881.74247  20610548.5154   20610552.3004
     -3534.7464
  -3348889.88947  -2521360.74746  22429849.9564   22429850.7594
      -523.3664
  10559049.17846  10814125.53346  22808537.8644   22808542.1624
     -4275.3744
  -4601389.22946  -3480293.64146  22526017.9684   22526023.0724
      1153.9834
 06  5  7  0  1 45.0000000  0  9G30G 9G 1G 4G25G 5G 2G14G 6
  -6352815.44448  -4840519.25047  20113346.7664   20113349.7624
     -1162.9954
  38602497.20645  30187226.60945  24346985.1334   24346991.3554
     -6029.5294
   -269387.35546   1345233.10546  22852134.7394   22852139.3824
     -1514.4974
   5485429.52646   4316340.60846  23001332.9814   23001337.2204
     -2993.2764
  -1034833.88645   -748716.83145  24007977.7784   24007982.1914
      1102.6414
   4841261.75748   3883238.04947  20620648.1544   20620652.3194
     -3541.7404
  -3340967.06747  -2515187.10846  22431357.6134   22431358.6714
      -532.9944
  10623237.81346  10864142.63246  22820752.5804   22820756.6244
     -4283.0794
  -4618665.26546  -3493755.46846  22522730.4284   22522735.0944
      1149.5244
 06  5  7  0  2  0.0000000  0  9G30G 9G 1G 4G25G 5G 2G14G 6
  -6335310.21548  -4826878.81847  20116677.8974   20116680.9974
     -1170.9844
  38692950.57045  30257709.73345  24364197.8784   24364201.9874
     -6030.8984
   -246594.37346   1362993.87646  22856472.1224   22856476.8074
     -1524.5384
   5530403.22346   4351385.05246  23009891.1744   23009895.7274
     -3003.1794
  -1051347.25445   -761584.31245  24004835.3414   24004839.7194
      1099.1624
   4894440.45048   3924675.98347  20630767.7364   20630771.8764
     -3548.7044
  -3332899.99447  -2508901.05946  22432892.7014   22432894.2854
      -542.5884
  10687541.84146  10914249.64446  22832989.2454   22832993.3774
     -4290.7494
  -4635874.30246  -3507165.09646  22519455.6324   22519460.7924
      1145.0524
 06  5  7  0  2 15.0000000  0  9G30G 9G 1G 4G25G 5G 2G14G 6
  -6317683.96248  -4813144.07147  20120032.0554   20120034.7504
     -1179.0714
  38783425.95345  30328210.03145  24381414.8084   24381420.8484
     -6032.3474
   -223649.30046   1380873.15846  22860838.4414   22860842.8444
     -1534.6914
   5575526.74646   4386546.22446  23018477.8754   23018483.2904
     -3013.1524
  -1067806.75845   -774409.87145  24001703.1464   24001707.7294
      1095.5604
   4947724.79648   3966196.24947  20640907.4294   20640911.7484
     -3555.7644
  -3324687.59247  -2502501.77346  22434455.4354   22434457.2584
      -552.2844
  10751961.88746  10964447.06046  22845248.0044   22845251.4614
     -4298.4824
  -4653015.25146  -3520521.65446  22516193.7804   22516198.7424
      1140.5184
 06  5  7  0  2 30.0000000  0  9G30G 9G 1G 4G25G 5G 2G14G 6
  -6299935.72248  -4799314.27347  20123409.4294   20123411.9634
     -1187.3274
  38873923.60945  30398727.68145  24398635.9484   24398639.9414
     -6033.9624
   -200551.32446   1398871.59746  22865233.8454   22865237.6704
     -1545.0114
   5620800.66946   4421824.62146  23027093.2074   23027099.2184
     -3023.3164
  -1084211.33245   -787192.64145  23998581.4294   23998586.6754
      1091.7364
   5001115.39948   4007799.31547  20651067.3364   20651071.9314
     -3562.9534
  -3316328.88147  -2495988.48046  22436046.0124   22436048.0224
      -562.1844
  10816498.39046  11014735.22646  22857528.8864   22857533.5784
     -4306.3564
  -4670086.95946  -3533824.26446  22512945.1314   22512949.8924
      1135.7694
 06  5  7  0  2 45.0000000  0  9G30G 9G 1G 4G25G 5G 2G14G 6
  -6282067.19448  -4785390.74647  20126809.6994   20126812.1394
     -1195.2834
  38964441.52745  30469261.07645  24415860.9364   24415866.8624
     -6035.2184
   -177302.04746   1416987.94246  22869658.0134   22869662.1974
     -1555.0414
   5666223.13846   4457218.73946  23035736.8204   23035741.3864
     -3033.1834
  -1100562.38445   -799933.71745  23995469.8954   23995475.3744
      1088.2474
   5054610.45848   4049483.77747  20661247.1254   20661251.8024
     -3569.8634
  -3307825.24847  -2489362.25646  22437664.1674   22437666.3104
      -571.7884
  10881149.28746  11065112.52146  22869831.5514   22869836.2324
     -4313.9144
  -4687091.17146  -3547074.29046  22509709.3324   22509713.7494
      1131.3014
 06  5  7  0  3  0.0000000  0  9G30G 9G 1G 4G25G 5G 2G14G 6
  -6264077.71548  -4771372.97447  20130232.9924   20130235.9324
     -1203.3604
  39054980.17245  30539810.64845  24433089.8554   24433092.8154
     -6036.6094
   -153900.79546   1435222.71046  22874111.0844   22874116.0444
     -1565.1714
   5711794.80546   4492729.13846  23044408.8134   23044412.5094
     -3043.0984
  -1116858.98145   -812632.34145  23992368.7144   23992373.7714
      1084.5984
   5108210.50548   4091250.04347  20671446.8844   20671451.1704
     -3576.8564
  -3299175.91047  -2482622.49946  22439310.0464   22439312.5024
      -581.5134
  10945915.04346  11115579.31946  22882156.0804   22882159.5364
     -4321.5494
  -4704026.69146  -3560270.77746  22506486.5874   22506490.8234
      1126.7174
 06  5  7  0  3 15.0000000  0  9G30G 9G 1G 4G25G 5G 2G14G 6
  -6245967.00648  -4757260.72947  20133679.3534   20133682.4714
     -1211.4874
  39145539.36545  30610376.22945  24450322.6814   24450327.0604
     -6038.0064
   -130347.43846   1453575.97846  22878593.0974   22878597.3404
     -1575.3414
   5757515.60446   4528355.72746  23053109.2114   23053113.6354
     -3053.0874
  -1133100.78745   -825288.27545  23989277.9824   23989282.8254
      1080.8944
   5161915.52448   4133098.11147  20681666.6094   20681670.8664
     -3583.8974
  -3290380.50947  -2475768.93146  22440983.7354   22440985.8434
      -591.2894
  11010795.27446  11166135.32546  22894502.3854   22894506.1514
     -4329.2094
  -4720893.43246  -3573413.65746  22503276.9354   22503281.2864
      1122.0984
 06  5  7  0  3 30.0000000  0  9G30G 9G 1G 4G25G 5G 2G14G 6
  -6227735.11948  -4743054.06447  20137148.7704   20137151.8754
     -1219.4954
  39236118.74545  30680957.54945  24467559.3924   24467565.5374
     -6039.2704
   -106641.86046   1472047.84946  22883104.0974   22883108.4964
     -1585.4324
   5803385.32846   4564098.37446  23061837.9504   23061842.2284
     -3062.9404
  -1149287.44245   -837901.26345  23986197.7414   23986202.0554
      1077.2744
   5215725.31948   4175027.81647  20691906.2774   20691910.6784
     -3590.8134
  -3281438.79747  -2468801.35346  22442685.2754   22442687.3614
      -600.9834
  11075789.79446  11216780.40046  22906870.4284   22906874.6874
     -4336.7664
  -4737691.13046  -3586502.75046  22500080.4144   22500085.1164
      1117.5094
 06  5  7  0  3 45.0000000  0  9G30G 9G 1G 4G25G 5G 2G14G 6
  -6209381.35148  -4728752.42947  20140641.3754   20140644.7154
     -1227.6824
  39326718.30445  30751554.59945  24484799.9384   24484804.1544
     -6040.6574
    -82783.58846   1490638.71946  22887644.1504   22887648.2434
     -1595.6474
   5849404.25446   4599957.25546  23070595.0724   23070599.5664
     -3072.9144
  -1165418.36845   -850470.77045  23983128.1024   23983132.6904
      1073.4974
   5269640.25848   4217039.45147  20702165.9544   20702170.3544
     -3597.8674
  -3272350.14847  -2461719.28146  22444414.7974   22444417.1184
      -610.8444
  11140898.60546  11267514.53946  22919260.2124   22919264.4514
     -4344.4054
  -4754419.07346  -3599537.49046  22496897.1644   22496902.2014
      1112.8494
 06  5  7  0  4  0.0000000  0  9G30G 9G 1G 4G25G 5G 2G14G 6
  -6190906.20848  -4714356.21147  20144157.0754   20144160.2064
     -1235.7494
  39417337.50945  30822166.93845  24502044.2174   24502048.8514
     -6041.9864
    -58773.08846   1509348.21446  22892213.1884   22892218.0064
     -1605.8004
   5895571.85946   4635931.97446  23079380.4934   23079384.2934
     -3082.8054
  -1181493.65545   -862996.93345  23980069.0494   23980073.2824
      1069.8084
   5323659.75948   4259132.56647  20712445.5234   20712450.0214
     -3604.8024
  -3263114.74147  -2454522.85146  22446172.2434   22446174.0664
      -620.6064
  11206121.02846  11318337.17346  22931671.6364   22931676.0814
     -4351.9564
  -4771077.61146  -3612518.12546  22493727.1114   22493732.6394
      1108.2404
 06  5  7  0  4 15.0000000  0  9G30G 9G 1G 4G25G 5G 2G14G 6
  -6172309.78748  -4699865.48747  20147695.8554   20147699.1694
     -1243.8094
  39507976.20445  30892794.48745  24519292.2014   24519297.5094
     -6043.2194
    -34610.45346   1528176.25046  22896811.1544   22896815.8774
     -1615.9284
   5941887.66246   4672022.19146  23088194.1074   23088198.9854
     -3092.6664
  -1197513.19745   -875479.69045  23977020.6094   23977025.9384
      1066.0984
   5377783.43148   4301306.85347  20722744.9244   20722748.6544
     -3611.7254
  -3253732.73447  -2447212.19546  22447957.5814   22447958.9334
      -630.3684
  11271456.48146  11369247.89146  22944104.5744   22944108.5204
     -4359.4754
  -4787666.62646  -3625444.61446  22490570.3114   22490575.8924
      1103.6164
 06  5  7  0  4 30.0000000  0  9G30G 9G 1G 4G25G 5G 2G14G 6
  -6153590.95748  -4685279.38647  20151257.9264   20151261.2984
     -1251.9764
  39598634.93545  30963437.61645  24536543.9634   24536550.8814
     -6044.5454
    -10294.64746   1547123.64846  22901438.2574   22901443.9534
     -1626.1264
   5988352.67146   4708228.65546  23097036.1094   23097040.8814
     -3102.6014
  -1213475.80445   -887918.01446  23973983.0264   23973987.7194
      1062.3084
   5432012.25448   4343563.08047  20733064.3324   20733068.1614
     -3618.7064
  -3244202.75547  -2439786.21146  22449771.0644   22449772.1414
      -640.2264
  11336905.82046  11420247.36146  22956559.1834   22956563.4214
     -4367.0424
  -4804184.88046  -3638315.95846  22487426.9744   22487432.1234
      1098.8894
 06  5  7  0  4 45.0000000  0  9G30G 9G 1G 4G25G 5G 2G14G 6
  -6134750.46448  -4670598.47547  20154843.1444   20154846.9454
     -1260.1404
  39689312.71845  31034095.58945  24553799.3684   24553805.7404
     -6045.8424
     14173.66646   1566189.88046  22906094.3874   22906099.1764
     -1636.3624
   6034965.93246   4744550.64846  23105906.3264   23105911.7244
     -3112.5334
  -1229381.84845   -900312.27845  23970956.1994   23970960.7994
      1058.4794
   5486345.34948   4385900.55447  20743403.5814   20743407.7034
     -3625.7244
  -3234525.40847  -2432245.41646  22451612.5854   22451613.7104
      -650.1264
  11402467.80746  11471334.60846  22969035.2504   22969039.0504
     -4374.5884
  -4820632.91046  -3651132.57346  22484297.0044   22484301.5674
      1094.1414
 06  5  7  0  5  0.0000000  0  9G30G 9G 1G 4G25G 5G 2G14G 6
  -6115788.93548  -4655823.25647  20158451.3924   20158455.1704
     -1268.0934
  39780008.43245  31104767.54245  24571058.2494   24571064.1574
     -6046.9094
     38793.72646   1585374.33846  22910779.4014   22910783.6144
     -1646.3484
   6081726.66246   4780987.55546  23114804.5904   23114810.3424
     -3122.2394
  -1245231.94645   -912662.94545  23967939.9794   23967944.3814
      1054.8634
   5540781.82448   4428318.57947  20753762.5064   20753766.2874
     -3632.4854
  -3224701.23547  -2424590.19846  22453482.0514   22453483.4334
      -659.8024
  11468141.33146  11522508.77146  22981532.5034   22981535.5794
     -4381.9054
  -4837011.28446  -3663894.92246  22481180.2804   22481184.4104
      1089.6104
 06  5  7  0  5 15.0000000  0  9G30G 9G 1G 4G25G 5G 2G14G 6
  -6096706.81348  -4640954.06347  20162082.5854   20162086.2274
     -1276.3064
  39870721.32145  31175452.90645  24588320.4044   24588325.6874
     -6048.2304
     63565.03646   1604676.66546  22915493.2224   22915497.9344
     -1656.5964
   6128634.03146   4817538.75346  23123730.7434   23123735.0404
     -3132.1924
  -1261026.47945   -924970.35945  23964934.3304   23964938.5834
      1050.9694
   5595320.85448   4470816.52247  20764140.9454   20764144.5384
     -3639.4954
  -3214730.52647  -2416820.80346  22455379.4134   22455380.8924
      -669.7374
  11533925.45346  11573769.11346  22994050.8274   22994055.0764
     -4389.4184
  -4853320.37746  -3676603.27946  22478076.7464   22478081.5494
      1084.8194
 06  5  7  0  5 30.0000000  0  9G30G 9G 1G 4G25G 5G 2G14G 6
  -6077503.29348  -4625990.29047  20165736.8824   20165740.3184
     -1284.2084
  39961452.01945  31246152.12645  24605585.9324   24605591.4094
     -6049.2204
     88488.43346   1624097.51146  22920235.9854   22920240.8624
     -1666.5714
   6175688.67046   4854204.65946  23132684.9224   23132689.4894
     -3141.8124
  -1276764.07446   -937233.44446  23961939.5634   23961943.2614
      1047.3444
   5649963.30248   4513395.04947  20774539.0604   20774542.7224
     -3646.1994
  -3204612.14647  -2408936.34946  22457304.8754   22457306.5784
      -679.4144
  11599820.86746  11625116.17646  23006590.3214   23006594.7514
     -4396.6684
  -4869559.22846  -3689256.91446  22474986.5814   22474991.1134
      1080.2884
 06  5  7  0  5 45.0000000  0  9G30G 9G 1G 4G25G 5G 2G14G 6
  -6058177.42948  -4610931.17247  20169414.4624   20169417.6234
     -1292.5194
  40052201.04945  31316865.63545  24622854.9614   24622860.0764
     -6050.5914
    113564.84546   1643637.59146  22925007.8664   22925012.6104
     -1676.9274
   6222891.50546   4890986.08246  23141667.3204   23141672.9454
     -3151.8354
  -1292443.83246   -949451.42245  23958955.7924   23958959.9904
      1043.3404
   5704709.84548   4556054.69347  20784956.9874   20784960.7684
     -3653.2854
  -3194345.08647  -2400936.04146  22459258.6284   22459260.7344
      -689.4814
  11665828.05446  11676550.31046  23019151.1134   23019155.2994
     -4404.2414
  -4885726.61446  -3701854.86346  22471910.0054   22471915.1074
      1075.4004
 06  5  7  0  6  0.0000000  0  9G30G 9G 1G 4G25G 5G 2G14G 6
  -6038729.01648  -4595776.56547  20173115.3694   20173118.6334
     -1300.7104
  40142968.21945  31387593.28645  24640127.4254   24640132.5814
     -6051.8074
    138794.36846   1663296.96446  22929808.8994   22929814.4774
     -1687.1334
   6270242.08646   4927882.63246  23150677.8234   23150682.5864
     -3161.6984
  -1308065.28246   -961624.00245  23955983.1324   23955987.5004
      1039.4144
   5759560.44548   4598795.41647  20795394.7274   20795398.7054
     -3660.2254
  -3183929.13747  -2392819.70046  22461240.7164   22461242.6124
      -699.4254
  11731946.51046  11728071.17346  23031733.0684   23031737.4414
     -4411.6634
  -4901822.18746  -3714396.83446  22468847.0904   22468852.2504
      1070.5864
 06  5  7  0  6 15.0000000  0  9G30G 9G 1G 4G25G 5G 2G14G 6
  -6019157.79248  -4580526.25747  20176839.6474   20176842.8304
     -1308.8234
  40233753.57045  31458335.09745  24657403.3154   24657408.0374
     -6052.9374
    164177.23946   1683075.85346  22934639.1114   22934644.2684
     -1697.2934
   6317740.65946   4964894.47846  23159716.5274   23159721.5334
     -3171.4574
  -1323627.88345   -973750.65145  23953021.6654   23953027.3054
      1035.5534
   5814515.14648   4641617.26147  20805852.2694   20805856.3264
     -3667.1084
  -3173363.84047  -2384587.00146  22463251.2164   22463252.7544
      -709.3304
  11798176.26946  11779678.75046  23044336.1754   23044340.3744
     -4419.0064
  -4917845.71546  -3726882.67246  22465797.9034   22465802.5804
      1065.8334
 06  5  7  0  6 30.0000000  0  9G30G 9G 1G 4G25G 5G 2G14G 6
  -5999464.71448  -4565181.00247  20180587.1184   20180589.8804
     -1316.9374
  40324555.84545  31529090.08945  24674682.4444   24674687.4014
     -6054.0424
    189712.59946   1702973.54246  22939498.3364   22939504.0494
     -1707.4384
   6365386.28546   5002020.89646  23168783.2184   23168788.1424
     -3181.2604
  -1339132.36246   -985832.01646  23950071.2194   23950075.6284
      1031.7004
   5869572.92548   4684519.42047  20816329.4294   20816333.5324
     -3673.9554
  -3162649.88247  -2376238.45146  22465290.0214   22465291.3264
      -719.2184
  11864516.10946  11831372.11146  23056960.2434   23056963.9454
     -4426.3214
  -4933797.77546  -3739312.83346  22462762.3104   22462767.1244
      1061.0954
 06  5  7  0  6 45.0000000  0  9G30G 9G 1G 4G25G 5G 2G14G 6
  -5979650.43348  -4549741.30947  20184357.6634   20184360.4374
     -1325.1974
  40415374.00845  31599857.46145  24691964.6074   24691970.6174
     -6055.2534
    215399.73546   1722989.49846  22944386.4454   22944390.8304
     -1717.7374
   6413177.99646   5039261.18246  23177877.7114   23177882.2714
     -3191.1824
  -1354579.26146   -997868.53546  23947131.7424   23947135.6234
      1027.6674
   5924732.95648   4727501.26247  20826826.0514   20826830.2354
     -3680.9474
  -3151787.80547  -2367774.48146  22467357.0104   22467358.4174
      -729.2884
  11930965.01446  11883150.45246  23069605.0634   23069608.8264
     -4433.7534
  -4949678.76346  -3751687.61046  22459740.2514   22459745.2974
      1056.1864
 06  5  7  0  7  0.0000000  0  9G30G 9G 1G 4G25G 5G 2G14G 6
  -5959711.52748  -4534204.50147  20188151.9344   20188155.0614
     -1333.2284
  40506210.89945  31670639.43745  24709250.3394   24709256.9494
     -6056.2314
    241241.82546   1743126.21646  22949304.0424   22949308.4694
     -1727.7914
   6461118.67946   5076617.55446  23187000.5604   23187004.9224
     -3200.8264
  -1369965.00945  -1009857.44746  23944203.9114   23944208.9004
      1023.8614
   5979998.20948   4770565.09447  20837342.6914   20837347.2094
     -3687.6774
  -3140774.27047  -2359192.50246  22469452.8184   22469454.4544
      -739.1174
  11997525.74445  11935015.94946  23082271.1494   23082274.9064
     -4440.9264
  -4965485.61946  -3764004.62746  22456732.3074   22456736.8334
      1051.5004
 06  5  7  0  7 15.0000000  0  9G30G 9G 1G 4G25G 5G 2G14G 6
  -5939651.53648  -4518573.33447  20191969.2414   20191972.3724
     -1341.4574
  40597062.93945  31741433.20445  24726538.9204   24726544.9084
     -6057.3744
    267235.44846   1763380.99746  22954250.4874   22954254.6654
     -1738.0404
   6509204.75846   5114087.20346  23196151.0674   23196154.8234
     -3210.6534
  -1385292.89746  -1021801.23946  23941287.1044   23941291.4664
      1019.8444
   6035365.12448   4813708.13847  20847878.6684   20847882.6784
     -3694.5924
  -3129612.49047  -2350495.00246  22471576.8454   22471578.6754
      -749.1394
  12064194.57945  11986965.66846  23094957.8054   23094962.5604
     -4448.2654
  -4981221.38646  -3776266.23146  22453737.8854   22453742.4734
      1046.5994
 06  5  7  0  7 30.0000000  0  9G30G 9G 1G 4G25G 5G 2G14G 6
  -5919468.18848  -4502846.04747  20195810.0114   20195813.2344
     -1349.6544
  40687932.14644  31812240.33545  24743830.7114   24743834.0194
     -6058.5024
    293382.78846   1783755.57346  22959226.1774   22959231.2154
     -1748.2814
   6557438.31746   5151671.77246  23205329.6364   23205334.4394
     -3220.4634
  -1400560.38846  -1033698.00446  23938381.8034   23938385.7274
      1015.8514
   6090835.72048   4856931.97147  20858434.3714   20858438.3004
     -3701.4794
  -3118300.13647  -2341680.16746  22473729.5104   22473731.2894
      -759.1694
  12130973.33045  12039001.04846  23107665.3914   23107669.9014
     -4455.5614
  -4996883.67446  -3788470.59146  22450757.4184   22450762.3684
      1041.7264
 06  5  7  0  7 45.0000000  0  9G30G 9G 1G 4G25G 5G 2G14G 6
  -5899162.16448  -4487023.16747  20199674.1194   20199677.4284
     -1357.7924
  40778817.43845  31883060.06845  24761125.5964   24761132.2414
     -6059.5164
    319682.94546   1804249.19646  22964230.9294   22964235.7924
     -1758.4004
   6605818.28846   5189370.42846  23214536.0674   23214540.4824
     -3230.1724
  -1415768.09446  -1045548.17246  23935487.8494   23935492.3984
      1011.9044
   6146409.03548   4900235.85147  20869009.6184   20869013.3424
     -3708.2754
  -3106837.86547  -2332748.51046  22475910.6904   22475912.3414
      -769.1234
  12197860.70445  12091121.05446  23120393.6284   23120398.7704
     -4462.7364
  -5012473.00646  -3800618.08146  22447790.8394   22447795.5554
      1036.9004
 06  5  7  0  8  0.0000000  0  9G30G 9G 1G 4G25G 5G 2G14G 6
  -5878734.84848  -4471105.77947  20203561.3034   20203564.5394
     -1365.8604
  40869717.17045  31953890.97445  24778423.2644   24778429.7404
     -6060.4584
    346134.81046   1824861.03646  22969264.5644   22969269.1464
     -1768.5094
   6654343.24946   5227182.07346  23223770.0794   23223775.0364
     -3239.8164
  -1430916.98346  -1057352.50946  23932605.1194   23932610.5154
      1007.9554
   6202083.69948   4943618.69747  20879604.1554   20879607.9924
     -3715.0184
  -3095226.63447  -2323700.79146  22478120.2134   22478122.0254
      -779.0434
  12264855.13145  12143324.48746  23133142.2454   23133145.0164
     -4469.8594
  -5027990.67846  -3812709.76146  22444837.8994   22444842.7984
      1032.1154
 06  5  7  0  8 15.0000000  0  9G30G 9G 1G 4G25G 5G 2G14G 6
  -5858185.19148  -4455093.05447  20207471.7724   20207475.3094
     -1374.1234
  40960631.91245  32024733.56745  24795723.7974   24795728.2154
     -6061.5464
    372739.24246   1845591.74346  22974327.2174   22974331.7154
     -1778.7864
   6703013.94746   5265107.26646  23233031.8284   23233036.5614
     -3249.6394
  -1446005.93246  -1069110.14146  23929733.7924   23929739.1424
      1003.8774
   6257860.43848   4987081.08947  20890218.1224   20890222.0464
     -3721.9104
  -3083465.48147  -2314536.23946  22480358.2614   22480360.0344
      -789.1324
  12331957.16245  12195611.75646  23145911.3364   23145916.2134
     -4477.1044
  -5043435.48846  -3824744.66246  22441898.8344   22441903.5694
      1027.1594
 06  5  7  0  8 30.0000000  0  9G30G 9G 1G 4G25G 5G 2G14G 6
  -5837512.66648  -4438984.58547  20211405.6194   20211409.2644
     -1382.2094
  41051561.90145  32095588.11745  24813027.2284   24813031.8484
     -6062.4414
    399496.70346   1866441.69646  22979418.9864   22979423.4404
     -1788.8784
   6751830.60546   5303146.21346  23242321.3384   23242326.5064
     -3259.2224
  -1461034.28246  -1080820.51746  23926873.9564   23926879.4584
       999.9094
   6313739.50148   5030623.21547  20900851.5624   20900855.5794
     -3728.6204
  -3071553.72847  -2305254.33546  22482624.9664   22482626.6384
      -799.0824
  12399166.95345  12247982.98946  23158700.9464   23158705.4634
     -4484.1794
  -5058806.88246  -3836722.35446  22438973.7404   22438978.6154
      1022.3794
 06  5  7  0  8 45.0000000  0  9G30G 9G 1G 4G25G 5G 2G14G 6
  -5816718.00548  -4422780.95347  20215362.7004   20215366.0804
     -1390.4434
  41142506.06245  32166453.69145  24830333.3554   24830339.1494
     -6063.4734
    426406.56846   1887410.45346  22984539.7554   22984544.1954
     -1799.1254
   6800792.29046   5341298.11446  23251638.4584   23251643.2694
     -3269.0024
  -1476002.32345  -1092483.93146  23924025.5984   23924030.8354
       995.8034
   6369720.12148   5074244.47647  20911504.3224   20911508.0034
     -3735.4784
  -3059491.93447  -2295855.52446  22484920.2264   22484922.3384
      -809.1694
  12466483.48745  12300437.41846  23171510.8734   23171514.7374
     -4491.3584
  -5074105.28546  -3848643.16046  22436062.5474   22436067.5134
      1017.4304
 06  5  7  0  9  0.0000000  0  9G30G 9G 1G 4G25G 5G 2G14G 6
  -5795800.91848  -4406481.92347  20219343.0794   20219346.4364
     -1398.4714
  41233464.51645  32237330.32945  24847642.1934   24847647.2844
     -6064.2864
    453469.00946   1908498.07446  22989689.5514   22989694.0824
     -1809.1504
   6849899.18646   5379563.19846  23260983.2104   23260987.7124
     -3278.5504
  -1490909.71545  -1104100.03846  23921188.7984   23921194.6024
       991.8864
   6425802.41648   5117944.97147  20922176.4194   20922180.0814
     -3742.1124
  -3047279.55047  -2286339.37346  22487244.1594   22487245.8404
      -819.0864
  12533906.65645  12352974.93546  23184341.0604   23184345.9224
     -4498.3304
  -5089330.23546  -3860506.74646  22433165.3174   22433169.8134
      1012.6594
 06  5  7  0  9 15.0000000  0  9G30G 9G 1G 4G25G 5G 2G14G 6
  -5774760.89048  -4390087.10247  20223346.8644   20223350.5324
     -1406.7284
  41324437.31344  32308218.20145  24864953.7354   24864961.6384
     -6065.2734
    480684.30546   1929704.80546  22994868.4264   22994872.6424
     -1819.4074
   6899151.30446   5417941.45346  23270355.6064   23270361.1624
     -3288.2834
  -1505755.80346  -1115668.41646  23918363.6794   23918369.2994
       987.7444
   6481986.47148   5161724.74847  20932867.8764   20932871.6984
     -3748.9444
  -3034916.18447  -2276705.56846  22489596.8204   22489598.1604
      -829.2164
  12601436.32745  12405595.45146  23197191.5564   23197195.9224
     -4505.4714
  -5104481.25546  -3872312.71146  22430282.1654   22430286.9554
      1007.6174
 06  5  7  0  9 30.0000000  0  9G30G 9G 1G 4G25G 5G 2G14G 6
  -5753597.61248  -4373596.23647  20227374.1064   20227377.7984
     -1414.9804
  41415424.58944  32379117.32645  24882268.0194   24882273.4734
     -6066.2934
    508052.99946   1951031.07746  23000076.5004   23000081.2304
     -1829.6664
   6948549.05946   5456433.22446  23279755.7194   23279761.9704
     -3297.9964
  -1520539.90046  -1127188.50046  23915550.3464   23915555.1424
       983.5674
   6538272.63948   5205584.09647  20943578.7724   20943582.9264
     -3755.7944
  -3022401.19247  -2266953.62046  22491978.3354   22491980.2974
      -839.3684
  12669072.53645  12458298.96146  23210062.3104   23210066.2234
     -4512.5894
  -5119557.65946  -3884060.54146  22427413.2154   22427418.0674
      1002.6174
 06  5  7  0  9 45.0000000  0  9G30G 9G 1G 4G25G 5G 2G14G 6
  -5732311.51948  -4357009.66947  20231424.7164   20231428.0874
     -1423.2134
  41506425.61545  32450027.15845  24899584.9584   24899590.3024
     -6067.2064
    535574.48746   1972476.42946  23005313.6424   23005318.3004
     -1839.8964
   6998091.54946   5495037.77746  23289183.3594   23289189.7494
     -3307.6924
  -1535262.29146  -1138660.49646  23912748.7234   23912753.2644
       979.3894
   6594660.21048   5249522.45247  20954308.9704   20954313.1604
     -3762.5884
  -3009734.94147  -2257083.80546  22494388.6264   22494390.7304
      -849.5014
  12736814.36545  12511084.77046  23222953.1594   23222957.8524
     -4519.6884
  -5134559.87146  -3895750.55546  22424558.3874   22424562.9804
       997.6294
 06  5  7  0 10  0.0000000  0  9G30G 9G 1G 4G25G 5G 2G14G 6
  -5710901.67548  -4340326.67447  20235498.8744   20235502.5554
     -1431.3984
  41597440.62045  32520947.95545  24916904.5934   24916910.9034
     -6068.0934
    563249.47846   1994041.37146  23010579.9734   23010584.3524
     -1850.0834
   7047779.48446   5533755.62046  23298638.6574   23298643.4754
     -3317.3184
  -1549921.90846  -1150083.53146  23909959.0384   23909963.3254
       975.2564
   6651149.76048   5293540.27847  20965058.5854   20965063.0104
     -3769.3234
  -2996916.56847  -2247095.45446  22496827.8574   22496829.5754
      -859.5934
  12804662.46045  12563953.42646  23235864.2404   23235868.8104
     -4526.6934
  -5149486.87846  -3907381.96546  22421717.8594   22421722.4034
       992.6724
 06  5  7  0 10 15.0000000  0  9G30G 9G 1G 4G25G 5G 2G14G 6
  -5689370.07948  -4323548.81547  20239596.2104   20239599.5194
     -1439.5984
  41688467.69945  32591878.10145  24934226.5114   24934231.9534
     -6068.9744
    591076.16246   2015724.52146  23015875.1754   23015879.4914
     -1860.2644
   7097610.65246   5572585.09146  23308121.2064   23308125.8884
     -3326.9454
  -1564520.44945  -1161459.03946  23907180.9954   23907185.7934
       971.1164
   6707739.31048   5337636.02447  20975827.2374   20975831.4754
     -3776.0564
  -2983947.71747  -2236989.84046  22499295.7224   22499297.5074
      -869.7094
  12872614.45045  12616903.00546  23248795.1014   23248798.8484
     -4533.6914
  -5164340.24346  -3918956.00546  22418891.3554   22418896.0574
       987.6864
 06  5  7  0 10 30.0000000  0  9G30G 9G 1G 4G25G 5G 2G14G 6
  -5667715.42448  -4306675.05147  20243716.9694   20243720.0724
     -1447.7044
  41779507.79244  32662818.38645  24951550.8834   24951557.1924
     -6069.7274
    619055.68846   2037526.77046  23021199.4614   23021203.7494
     -1870.3594
   7147586.20846   5611527.06946  23317631.2414   23317635.9764
     -3336.4704
  -1579056.45546  -1172785.82146  23904414.8744   23904420.7004
       967.0224
   6764429.89148   5381810.49747  20986615.1114   20986618.9574
     -3782.6994
  -2970827.05847  -2226765.93546  22501792.4994   22501794.0954
      -879.7314
  12940671.16545  12669934.16546  23261745.8634   23261749.5404
     -4540.5554
  -5179118.74846  -3930471.69346  22416079.0964   22416083.9054
       982.7574
 06  5  7  0 10 45.0000000  0  9G30G 9G 1G 4G25G 5G 2G14G 6
  -5645938.06648  -4289705.68047  20247861.0694   20247863.9744
     -1455.8964
  41870560.01344  32733768.14745  24968877.5354   24968883.1704
     -6070.5114
    647187.61346   2059447.75346  23026552.7464   23026557.2754
     -1880.5184
   7197705.45546   5650581.01946  23327168.5654   23327172.9164
     -3346.0544
  -1593530.01646  -1184063.93646  23901660.6604   23901665.1534
       962.8394
   6821220.89148   5426063.22647  20997422.0834   20997425.8894
     -3789.4004
  -2957554.84347  -2216423.94446  22504318.1304   22504319.6994
      -889.8624
  13008831.65845  12723046.19846  23274716.3854   23274719.3614
     -4547.4744
  -5193822.58846  -3941929.21346  22413281.0284   22413285.7444
       977.7774
 06  5  7  0 11  0.0000000  0  9G30G 9G 1G 4G25G 5G 2G14G 6
  -5624037.69148  -4272640.45747  20252028.5814   20252031.5044
     -1464.1014
  41961624.43544  32804727.37145  24986206.5294   24986212.8374
     -6071.3344
    675472.31046   2081487.79046  23031935.1334   23031939.8854
     -1890.6974
   7247968.43646   5689746.95246  23336733.2604   23336738.3354
     -3355.6084
  -1607940.49846  -1195292.89546  23898918.4644   23898922.7484
       958.6324
   6878112.53748   5470394.37747  21008248.2074   21008252.1254
     -3796.0944
  -2944130.57247  -2205963.46046  22506872.6954   22506874.2974
      -899.9924
  13077096.21245  12776239.36446  23287706.7214   23287711.6394
     -4554.3934
  -5208451.22746  -3953328.12446  22410497.2744   22410501.5744
       972.7754
 06  5  7  0 11 15.0000000  0  9G30G 9G 1G 4G25G 5G 2G14G 6
  -5602014.26648  -4255479.34047  20256219.5144   20256222.1314
     -1472.3084
  42052700.97144  32875696.11345  25003537.8104   25003542.2654
     -6072.1164
    703909.68346   2103646.78746  23037346.5894   23037351.6154
     -1900.8934
   7298374.93246   5729024.67246  23346325.2904   23346329.7634
     -3365.2044
  -1622287.77546  -1206472.56946  23896188.2804   23896192.2934
       954.3994
   6935104.71048   5514803.85947  21019093.4534   21019097.2734
     -3802.7864
  -2930554.09447  -2195384.37146  22509456.2104   22509457.8324
      -910.1464
  13145464.30545  12829513.17846  23300716.7524   23300721.0984
     -4561.2904
  -5223004.51546  -3964668.33046  22407727.8394   22407732.2584
       967.7414
 06  5  7  0 11 30.0000000  0  9G30G 9G 1G 4G25G 5G 2G14G 6
  -5579868.20148  -4238222.66247  20260433.7744   20260436.6544
     -1480.5784
  42143788.64544  32946673.48045  25020871.2534   25020875.4884
     -6072.9664
    732499.22946   2125924.38146  23042786.9854   23042792.4644
     -1911.1374
   7348924.43146   5768413.82546  23355944.5564   23355949.1274
     -3374.8094
  -1636572.01246  -1217603.10546  23893470.0684   23893473.8494
       950.0854
   6992196.67948   5559291.10547  21029957.6794   21029961.3394
     -3809.5454
  -2916825.64847  -2184686.86746  22512068.6124   22512070.3934
      -920.3924
  13213935.02845  12882866.95946  23313746.3474   23313750.8494
     -4568.2174
  -5237482.75446  -3975950.05046  22404972.6954   22404977.5734
       962.6294
 06  5  7  0 11 45.0000000  0  9G30G 9G 1G 4G25G 5G 2G14G 6
  -5557599.32548  -4220870.28847  20264671.4094   20264674.5864
     -1488.7054
  42234887.42544  33017659.47445  25038206.7964   25038211.3014
     -6073.6104
    761241.14946   2148320.69346  23048256.3654   23048261.3464
     -1921.2184
   7399616.85146   5807914.40346  23365591.0404   23365595.7094
     -3384.2694
  -1650792.85246  -1228684.25846  23890763.9244   23890768.1174
       945.9344
   7049388.46648   5603856.12947  21040840.8964   21040844.9704
     -3816.1234
  -2902944.92047  -2173870.70546  22514709.9884   22514712.0554
      -930.4684
  13282508.27845  12936300.65046  23326795.4214   23326799.9744
     -4574.9824
  -5251885.46846  -3987172.92546  22402231.9274   22402236.2874
       957.6664
 06  5  7  0 12  0.0010000  0  9G30G 9G 1G 4G25G 5G 2G14G 6
  -5535205.70748  -4203420.71947  20268932.7794   20268936.2284
     -1496.9484
  42326003.44744  33088659.03945  25055545.6364   25055551.9014
     -6074.3984
    790137.77146   2170837.58146  23053755.2054   23053760.6104
     -1931.4374
   7450455.72346   5847529.08246  23375265.4074   23375270.4964
     -3393.8414
  -1664950.56546  -1239716.23646  23888069.8134   23888073.8794
       941.6144
   7106684.17148   5648502.11847  21051743.8974   21051748.3314
     -3822.8294
  -2888910.49247  -2162934.77246  22517380.6364   22517382.4894
      -940.6984
  13351188.66145  12989817.80846  23339864.8854   23339869.5234
     -4581.8314
  -5266213.09146  -3998337.28746  22399505.4514   22399509.7854
       952.5404
 06  5  7  0 12 15.0010000  0  9G30G 9G 1G 4G25G 5G 2G14G 6
  -5512689.94848  -4185875.97247  20273217.3954   20273220.9654
     -1505.1814
  42417124.75744  33159662.59045  25072885.4594   25072890.4304
     -6075.1174
    819185.44546   2193472.13446  23059282.7974   23059287.9484
     -1941.6234
   7501434.37446   5887252.71346  23384966.3854   23384971.3784
     -3403.3534
  -1679042.67346  -1250697.11846  23885388.1904   23885392.2614
       937.3184
   7164076.25548   5693223.22147  21062665.2334   21062669.6854
     -3829.4874
  -2874723.80347  -2151880.20646  22520080.2854   22520081.5694
      -950.8844
  13419966.81045  13043411.15146  23352952.9594   23352956.9204
     -4588.6284
  -5280463.28646  -4009441.32146  22396793.7204   22396798.2934
       947.4354
 06  5  7  0 12 30.0010000  0  9G30G 9G 1G 4G25G 5G 2G14G 6
  -5490050.38048  -4168234.75347  20277525.5684   20277529.0554
     -1513.4024
  42508257.43744  33230674.97345  25090227.4314   25090233.1194
     -6075.8364
    848386.35246   2216226.10146  23064839.5534   23064844.5964
     -1951.7974
   7552556.15546   5927087.83846  23394694.5734   23394699.9424
     -3412.8514
  -1693069.75346  -1261627.33146  23882718.9394   23882722.2024
       932.9984
   7221568.61148   5738022.45047  21073605.6554   21073610.2374
     -3836.1214
  -2860383.61847  -2140706.03646  22522809.1504   22522810.4274
      -961.1044
  13488847.19445  13097084.16946  23366060.4974   23366064.2954
     -4595.4084
  -5294636.55146  -4020485.40346  22394096.6274   22394101.1854
       942.3554
 06  5  7  0 12 45.0010000  0  9G30G 9G 1G 4G25G 5G 2G14G 6
  -5467289.27848  -4150498.82647  20281856.8714   20281859.8964
     -1521.5204
  42599398.60545  33301694.05045  25107571.0354   25107576.4074
     -6076.4104
    877738.03146   2239097.55446  23070424.9914   23070429.7194
     -1961.8804
   7603818.51046   5967032.53546  23404449.5204   23404455.1314
     -3422.2524
  -1707033.82846  -1272508.44146  23880061.7004   23880065.5424
       928.7564
   7279158.69648   5782897.83647  21084564.6934   21084569.4114
     -3842.6664
  -2845892.00647  -2129413.86146  22525566.8434   22525567.8124
      -971.2274
  13557827.22445  13150834.83146  23379186.9794   23379190.7824
     -4602.0404
  -5308735.09846  -4031471.25946  22391413.7554   22391418.5884
       937.3554
 06  5  7  0 13  0.0010000  0  9G30G 9G 1G 4G25G 5G 2G14G 6
  -5444404.47448  -4132666.51247  20286211.7054   20286214.8714
     -1529.7884
  42690550.38545  33372721.41445  25124916.6664   25124921.8954
     -6077.1244
    907242.67846   2262088.20446  23076039.5404   23076044.5844
     -1972.1004
   7655223.46346   6007088.35646  23414231.5834   23414236.0834
     -3431.7574
  -1720932.53846  -1283338.61346  23877416.8684   23877421.7144
       924.3764
   7336848.55848   5827850.97647  21095542.7054   21095547.1964
     -3849.3244
  -2831246.67647  -2118001.90746  22528353.7614   22528354.6354
      -981.4894
  13626908.61145  13204664.46745  23392332.7464   23392336.6154
     -4608.8024
  -5322756.56146  -4042397.05146  22388745.5514   22388750.3634
       932.1864
 06  5  7  0 13 15.0010000  0  9G30G 9G 1G 4G25G 5G 2G14G 6
  -5421395.73348  -4114737.62147  20290590.1254   20290593.2934
     -1538.1034
  42781712.69945  33443756.92745  25142264.3144   25142269.6514
     -6077.8634
    936900.54246   2285198.22946  23081683.2474   23081687.8984
     -1982.3534
   7706770.98646   6047255.27646  23424040.7714   23424045.3964
     -3441.2764
  -1734765.29446  -1294117.38946  23874784.5774   23874789.5204
       919.9454
   7394638.28648   5872881.92147  21106539.7364   21106544.1844
     -3856.0054
  -2816447.31547  -2106469.92146  22531169.9604   22531170.9304
      -991.8084
  13696091.11645  13258572.89945  23405497.7624   23405501.7574
     -4615.5714
  -5336700.55946  -4053262.48446  22386092.0704   22386096.6334
       926.9664
 06  5  7  0 13 30.0010000  0  9G30G 9G 1G 4G25G 5G 2G14G 6
  -5398262.22148  -4096711.50647  20294992.2874   20294995.3104
     -1546.3254
  42872885.72845  33514800.87345  25159614.0024   25159621.1984
     -6078.4864
    966712.28646   2308428.17846  23087356.2374   23087360.8294
     -1992.5154
   7758461.49346   6087533.59046  23433877.1434   23433881.7794
     -3450.7464
  -1748531.16446  -1304844.04046  23872165.0144   23872169.2454
       915.5514
   7452528.37248   5917991.07047  21117555.8734   21117560.1374
     -3862.6114
  -2801492.96747  -2094817.18246  22534015.6414   22534017.1334
     -1002.0554
  13765375.15845  13312560.44845  23418682.0894   23418685.8374
     -4622.2464
  -5350566.14046  -4064066.80546  22383453.5044   22383457.5844
       921.8084
 06  5  7  0 13 45.0010000  0  9G30G 9G 1G 4G25G 5G 2G14G 6
  -5375005.27348  -4078589.21147  20299417.9324   20299421.0684
     -1554.6854
  42964067.92245  33585851.88145  25176965.4234   25176970.1144
     -6079.2214
    996676.45246   2331776.90046  23093058.2214   23093062.7194
     -2002.7954
   7810293.56446   6127922.16746  23443740.4384   23443745.5774
     -3460.2644
  -1762231.21346  -1315519.40046  23869557.9984   23869562.2134
       911.0354
   7510517.32248   5963177.26147  21128590.8084   21128595.0434
     -3869.3204
  -2786384.96047  -2083044.68646  22536890.5694   22536892.5924
     -1012.4164
  13834758.95945  13366625.75246  23431885.4204   23431890.1274
     -4628.9974
  -5364354.44946  -4074810.92746  22380829.6534   22380833.9654
       916.5444
 06  5  7  0 14  0.0010000  0  9G30G 9G 1G 4G25G 5G 2G14G 6
  -5351623.85848  -4060369.93147  20303867.2724   20303870.3054
     -1562.8454
  43055260.21544  33656910.79045  25194318.7374   25194323.6244
     -6079.7294
   1026794.02046   2355245.13046  23098789.4084   23098794.2954
     -2012.8864
   7862267.81746   6168421.55546  23453630.7894   23453635.0714
     -3469.6114
  -1775864.21646  -1326142.52246  23866963.7314   23866967.9154
       906.6944
   7568605.99348   6008441.15747  21139644.7344   21139649.0144
     -3875.8214
  -2771122.17947  -2071151.60646  22539794.9414   22539796.6794
     -1022.6084
  13904243.25145  13420769.34645  23445107.8114   23445112.8364
     -4635.5564
  -5378064.37246  -4085493.96246  22378220.7364   22378225.0734
       911.4604
 06  5  7  0 14 15.0010000  0  9G30G 9G 1G 4G25G 5G 2G14G 6
  -5328118.93448  -4042054.40747  20308340.1204   20308343.4104
     -1571.0624
  43146461.19644  33727976.45245  25211673.7024   25211676.8684
     -6080.3264
   1057064.01346   2378832.14046  23104549.5804   23104553.4844
     -2023.0694
   7914383.16246   6209030.91746  23463547.9934   23463552.5994
     -3479.0114
  -1789430.99546  -1336714.03546  23864382.0664   23864386.4714
       902.2694
   7626793.19648   6053781.83447  21150717.3954   21150721.5404
     -3882.4084
  -2755705.31947  -2059138.46046  22542728.6464   22542730.5444
     -1032.9024
  13973826.66445  13474990.15345  23458349.0954   23458353.7964
     -4642.1604
  -5391696.69646  -4096116.54046  22375626.5794   22375631.1654
       906.2764
 06  5  7  0 14 30.0010000  0  9G30G 9G 1G 4G25G 5G 2G14G 6
  -5304488.21848  -4023640.86247  20312836.9094   20312839.9894
     -1579.5024
  43237672.78045  33799050.37445  25229030.7214   25229035.2514
     -6081.0554
   1087488.69346   2402539.70746  23110339.2034   23110342.9944
     -2033.3964
   7966641.60546   6249751.76546  23473492.4104   23473496.3594
     -3488.5974
  -1802928.91846  -1347231.89046  23861813.5014   23861817.3784
       897.6254
   7685081.15948   6099201.02447  21161809.2234   21161813.5504
     -3889.1444
  -2740131.98447  -2047003.37946  22545692.1274   22545693.5224
     -1043.3674
  14043511.07445  13529289.67445  23471609.5984   23471614.3624
     -4648.9084
  -5405248.88246  -4106676.66646  22373047.6824   22373052.2284
       900.8814
 06  5  7  0 14 45.0010000  0  9G30G 9G 1G 4G25G 5G 2G14G 6
  -5280732.81748  -4005130.15847  20317357.4204   20317360.5404
     -1587.8294
  43328894.08945  33870131.87945  25246389.6264   25246393.7024
     -6081.7084
   1118066.87346   2426366.85746  23116158.0264   23116162.2834
     -2043.6454
   8019042.02246   6290583.25846  23483463.8754   23483468.5334
     -3498.0494
  -1816358.68646  -1357696.64046  23859257.9094   23859261.8994
       893.0704
   7743468.62148   6144697.73547  21172919.9824   21172924.5864
     -3895.7784
  -2724403.07447  -2034747.06446  22548685.2314   22548686.6334
     -1053.7554
  14113295.08645  13583666.81245  23484889.0774   23484893.0034
     -4655.5464
  -5418721.80846  -4117175.02746  22370483.8484   22370488.3354
       895.5834
 06  5  7  0 15  0.0010000  0  9G30G 9G 1G 4G25G 5G 2G14G 6
  -5256854.55648  -3986523.71647  20321901.3094   20321904.1584
     -1596.0334
  43420122.61645  33941219.03645  25263749.9004   25263754.5364
     -6082.1974
   1148796.59146   2450312.11846  23122005.6824   23122009.8354
     -2053.7604
   8071582.13546   6331523.55246  23493461.9364   23493465.8854
     -3507.3844
  -1829722.13846  -1368109.70546  23856714.9144   23856719.0064
       888.6314
   7801953.45648   6190270.32547  21184049.2774   21184053.8954
     -3902.2884
  -2708520.44747  -2022370.98346  22551707.5874   22551708.7764
     -1064.0124
  14183176.26145  13638119.67245  23498187.0464   23498190.1844
     -4662.0274
  -5432117.36046  -4127613.10846  22367934.7484   22367939.4354
       890.3994
 06  5  7  0 15 15.0010000  0  9G30G 9G 1G 4G25G 5G 2G14G 6
  -5232851.17248  -3967819.77747  20326469.0014   20326471.9354
     -1604.4564
  43511360.36245  34012313.39645  25281111.8884   25281118.6214
     -6082.8614
   1179680.16346   2474377.25546  23127882.6064   23127887.1864
     -2064.0894
   8124263.90946   6372574.27346  23503486.9474   23503491.4184
     -3516.9064
  -1843016.79146  -1378469.18646  23854185.0134   23854190.4544
       883.9564
   7860537.79848   6235920.45147  21195197.5214   21195202.0234
     -3908.9814
  -2692481.76347  -2009873.30646  22554759.6474   22554760.8454
     -1074.5134
  14253156.59045  13692649.78145  23511503.8924   23511508.1644
     -4668.7074
  -5445432.99746  -4137988.89846  22365400.8464   22365405.7334
       884.9964
 06  5  7  0 15 30.0010000  0  9G30G 9G 1G 4G25G 5G 2G14G 6
  -5208722.03948  -3949017.86147  20331060.6204   20331063.7784
     -1612.7364
  43602607.46544  34083414.97245  25298475.6374   25298481.2804
     -6083.4254
   1210717.88246   2498562.49546  23133788.8854   23133792.8694
     -2074.2694
   8177087.61546   6413735.57946  23513538.9754   23513543.6314
     -3526.2674
  -1856241.84846                  23851668.3604
       879.4114
   7919221.82048   6281648.26647  21206364.7354   21206368.9794
     -3915.5294
  -2676286.40647  -1997253.54346  22557841.5244   22557842.6084
     -1084.8654
  14323236.04645  13747257.12745  23524839.5714   23524843.7584
     -4675.2124
  -5458668.21146  -4148302.04346  22362882.2474   22362886.7664
       879.7004
 06  5  7  0 15 45.0010000  0  9G30G 9G 1G 4G25G 5G 2G14G 6
  -5184469.15648  -3930119.50447  20335675.7914   20335679.2444
     -1620.9264
  43693861.87243  34154522.30645  25315840.7744   25315847.1484
     -6083.8324
   1241907.96946   2522866.45946  23139724.1634   23139728.2724
     -2084.3634
   8230051.28146   6455005.92346  23523617.6344   23523623.0804
     -3535.5354
  -1869398.80546                  23849164.6414
       874.9014
   7978003.64648   6327452.28147  21217550.5594   21217554.8194
     -3921.9934
  -2659935.99147  -1984512.95046  22560952.8864   22560954.0814
     -1095.1384
  14393412.60345  13801940.15745  23538193.7384   23538197.3844
     -4681.6114
  -5471824.42846  -4158553.60046  22360378.6864   22360383.0304
       874.5194
 06  5  7  0 16  0.0010000  0  9G30G 9G 1G 4G25G 5G 2G14G 6
  -5160092.95048  -3911125.05647  20340314.4184   20340318.1924
     -1629.1924
  43785122.69044  34225634.56945  25333207.1404   25333210.5534
     -6084.2374
   1273249.90246   2547288.74946  23145688.3344   23145693.1354
     -2094.5204
   8283154.25246   6496384.86746  23533722.8084   23533728.3254
     -3544.8674
  -1882488.00446                  23846673.8064
       870.3534
   8036882.66748   6373332.03447  21228754.8724   21228758.8804
     -3928.5004
  -2643430.87947  -1971651.81946  22564093.6834   22564095.1404
     -1105.4944
  14463685.35245  13856698.11045  23551566.2364   23551569.9194
     -4688.0294
  -5484902.05446  -4168743.96846  22357890.0894   22357894.6304
       869.2284
 06  5  7  0 16 15.0010000  0  9G30G 9G 1G 4G25G 5G 2G14G 6
  -5135592.20448  -3892033.56847  20344976.7534   20344980.7134
     -1637.5094
  43876390.73944  34296752.48545  25350574.9184   25350577.9934
     -6084.7394
   1304744.71546   2571830.17846  23151681.6174   23151686.4164
     -2104.7314
   8336397.37846   6537873.04246  23543854.6694   23543859.6364
     -3554.1614
  -1895508.07546                  23844196.1554
       865.7294
   8095859.79248   6419288.23547  21239977.8484   21239981.9494
     -3935.0474
  -2626769.85347  -1958669.19246  22567264.1384   22567265.4424
     -1115.9144
  14534054.85345  13911531.49745  23564957.1514   23564959.9304
     -4694.4964
  -5497899.72646  -4178872.00146  22355416.7124   22355421.6344
       863.8784
 06  5  7  0 16 30.0010000  0  9G30G 9G 1G 4G25G 5G 2G14G 6
  -5110967.46148  -3872845.45147  20349662.6774   20349666.5344
     -1645.7484
  43967665.25544  34367875.49245  25367943.9144   25367949.0714
     -6085.1664
   1336391.80846   2596490.26146  23157703.8594   23157708.3954
     -2114.8524
   8389779.83946   6579469.75246  23554013.0204   23554018.5804
     -3563.4304
  -1908459.30746                  23841731.5844
       861.1144
   8154934.25348   6465320.27947  21251219.3474   21251223.7174
     -3941.5204
  -2609953.35747  -1945565.41346  22570464.1894   22570465.6744
     -1126.2694
  14604520.45145  13966439.74645  23578366.3114   23578369.5424
     -4700.8834
  -5510817.98646  -4188938.16846  22352958.4414   22352963.4764
       858.5884
 06  5  7  0 16 45.0010000  0  9G30G 9G 1G 4G25G 5G 2G14G 6
  -5086218.93648  -3853560.89147  20354372.1604   20354375.5594
     -1654.0724
  44058946.21444  34439003.49145  25385314.1014   25385320.5304
     -6085.6374
   1368191.01646   2621268.87946  23163755.0354   23163759.1844
     -2125.0544
   8443301.16646   6621174.66646  23564197.8064   23564202.8374
     -3572.7634
  -1921341.51546                  23839280.1714
       856.4744
   8214105.83048   6511427.99747  21262479.3374   21262483.9824
     -3948.0284
  -2592981.45947  -1932340.55346  22573693.8104   22573695.7434
     -1136.6714
  14675081.55945  14021422.41345  23591793.6674   23591797.3954
     -4707.2814
  -5523656.67946  -4198942.33246  22350515.3024   22350520.0894
       853.2134
 06  5  7  0 17  0.0010000  0  9G30G 9G 1G 4G25G 5G 2G14G 6
  -5061344.39648  -3834178.13147  20359105.6254   20359108.9614
     -1662.4454
  44150235.01643  34510137.66445  25402685.7944   25402689.6024
     -6086.1164
   1400144.25846   2646167.50446  23169835.5174   23169839.1534
     -2135.2934
   8496963.20646   6662989.23846  23574409.3794   23574413.9824
     -3582.0954
  -1934152.51346     -9314.95846  23836842.3024   23836846.8674
       851.7234
   8273376.28048   6557612.75847  21273758.1454   21273762.8324
     -3954.5994
  -2575851.97147  -1918992.89146  22576953.4214   22576955.4314
     -1147.1684
  14745739.62845  14076480.63945  23605239.4744   23605243.2794
     -4713.7164
  -5536413.65346  -4208882.82046  22348087.7124   22348092.3994
       847.7984
 06  5  7  0 17 15.0010000  0  9G30G 9G 1G 4G25G 5G 2G14G 6
  -5036345.16848  -3814698.21847  20363862.8184   20363865.7004
     -1670.9104
  44241530.18043  34581276.64545  25420058.6664   25420064.3834
     -6086.6944
   1432250.26646   2671185.18346  23175945.0934   23175949.2894
     -2145.6364
   8550764.44646   6704912.26946  23584647.4404   23584653.3974
     -3591.5214
  -1946893.26146    -19242.80946  23834417.8354   23834423.2444
       846.8964
   8332744.29348   6603873.54647  21285055.5014   21285059.8134
     -3961.2624
  -2558565.99047  -1905523.27246  22580242.8084   22580245.1844
     -1157.7654
  14816493.09145  14131613.20145  23618703.4244   23618707.1574
     -4720.2144
  -5549089.92946  -4218760.41446  22345675.4944   22345680.5354
       842.2394
 06  5  7  0 17 30.0010000  0  9G30G 9G 1G 4G25G 5G 2G14G 6
  -5011220.80548  -3795120.79547  20368643.8324   20368646.7444
     -1679.0854
  44332831.77143  34652420.73245  25437432.7494   25437438.1744
     -6086.9494
   1464509.44246   2696322.20346  23182083.8114   23182088.2564
     -2155.6704
   8604705.10046   6746943.90146  23594912.0224   23594916.9754
     -3600.6594
  -1959563.02946    -29115.37346  23832006.8894   23832011.3314
       842.3164
   8392210.12348   6650210.54647  21296371.4834   21296376.0934
     -3967.6004
  -2541122.87247  -1891931.22446  22583562.0954   22583564.3174
     -1168.0794
  14887342.13845  14186820.21345  23632185.5484   23632188.6854
     -4726.4054
  -5561684.79946  -4228574.57546  22343278.7634   22343283.1444
       836.9794
 06  5  7  0 17 45.0010000  0  9G30G 9G 1G 4G25G 5G 2G14G 6
  -4985972.00948  -3775446.40247  20373448.5234   20373451.2104
     -1687.4864
  44424139.11243  34723569.26745  25454807.9064   25454814.4864
     -6087.4224
   1496920.92546   2721577.90546  23188251.5024   23188255.8294
     -2165.9284
   8658784.39246   6789083.60946  23605202.9974   23605207.8674
     -3609.9674
  -1972162.33746    -38933.03046  23829609.3424   23829614.5284
       837.5064
   8451772.79648   6696623.01347  21307705.8974   21307710.1594
     -3974.1404
  -2523523.36647  -1878217.31846  22586911.1604   22586912.8884
     -1178.5874
  14958285.59345  14242100.82545  23645685.6464   23645689.2024
     -4732.7644
  -5574198.95846  -4238325.84946  22340897.3954   22340901.6244
       831.5004
 06  5  7  0 18  0.0010000  0  9G30G 9G 1G 4G25G 5G 2G14G 6
  -4960599.15448  -3755675.34647  20378276.8224   20378279.3364
     -1695.6444
  44515451.40243  34794721.68545  25472184.0494   25472189.8094
     -6087.6174
   1529484.47846   2746952.12846  23194448.1104   23194453.6314
     -2175.9524
   8713001.66546   6831330.84046  23615520.2154   23615525.3644
     -3619.0604
  -1984691.17646    -48695.75546  23827225.2034   23827230.0624
       832.9424
   8511431.95748   6743110.67147  21319058.6814   21319062.4594
     -3980.4714
  -2505767.58847  -1864381.63246  22590289.9724   22590291.3494
     -1188.9124
  15029322.80045  14297454.48445  23659203.5804   23659207.9154
     -4738.9114
  -5586632.50646  -4248014.31146  22338531.3694   22338535.5924
       826.2414
 06  5  7  0 18 15.0010000  0  9G30G 9G 1G 4G25G 5G 2G14G 6
  -4935101.47048  -3735807.01647  20383128.8764   20383131.5044
     -1703.9964
  44606768.84143  34865878.11945  25489561.1624   25489563.7494
     -6087.9784
   1562200.47246   2772445.13446  23200673.7344   23200679.1404
     -2186.1264
   8767357.08746   6873685.70746  23625863.7074   23625869.9624
     -3628.2634
  -1997148.85946    -58403.04146  23824854.5944   23824859.6504
       828.1484
   8571187.87948   6789673.72347  21330429.8764   21330433.3764
     -3986.9324
  -2487854.94547  -1850423.72346  22593698.6484   22593700.2764
     -1199.3974
  15100453.79245  14352881.20945  23672739.3454   23672742.9314
     -4745.1674
  -5598984.69946  -4257639.39146  22336180.8244   22336184.8464
       820.7654
 06  5  7  0 18 30.0010000  0  9G30G 9G 1G 4G25G 5G 2G14G 6
  -4909479.74648  -3715842.03347  20388004.5234   20388007.3594
     -1712.4084
  44698090.60243  34937037.91545  25506939.1194   25506945.6254
     -6088.4034
   1595068.17546   2798056.32046  23206928.2394   23206933.7194
     -2196.3834
   8821850.03746   6916147.74546  23636233.3754   23636238.7444
     -3637.5674
  -2009535.77046    -68055.19246  23822497.4504   23822502.1594
       823.2794
   8631039.74248   6836311.52947  21341819.3294   21341822.8364
     -3993.4704
  -2469786.01347  -1836344.02746  22597137.0694   22597138.5814
     -1209.9644
  15171677.62245  14408380.29545  23686292.7874   23686297.6174
     -4751.4894
  -5611256.04346  -4267201.47046  22333845.6654   22333850.3524
       815.2474
 06  5  7  0 18 45.0010000  0  9G30G 9G 1G 4G25G 5G 2G14G 6
  -4883733.36048  -3695779.91047  20392903.8964   20392906.8804
     -1720.4764
  44789417.09043  35008201.35845  25524318.0014   25524326.3764
     -6088.4904
   1628088.10546   2823786.14746  23213211.7064   23213216.7564
     -2206.3074
   8876480.56246   6958716.99046  23646629.2064   23646634.6724
     -3646.5214
  -2021851.01246    -77651.49546  23820153.9484   23820159.2454
       818.7274
   8690987.96948   6883024.43247  21353227.1084   21353230.9634
     -3999.6524
  -2451560.09247  -1822142.00646  22600605.3464   22600606.9174
     -1220.2064
  15242994.40045  14463951.81745  23699863.9344   23699867.0804
     -4757.4524
  -5623445.75146  -4276699.91746  22331526.0354   22331530.9534
       810.0084
 06  5  7  0 19  0.0010000  0  9G30G 9G 1G 4G25G 5G 2G14G 6
  -4857863.01048  -3675621.19447  20397826.8464   20397830.0474
     -1728.9324
  44880747.28343  35079367.73245  25541697.5844   25541704.2814
     -6088.8824
   1661259.58646   2849634.07646  23219524.0294   23219529.1804
     -2216.5954
   8931247.99446   7001392.91546  23657051.1154   23657056.5284
     -3655.8354
  -2034094.90146    -87192.17546  23817824.0444   23817829.0474
       813.7704
   8751031.83348   6929811.84947  21364653.0864   21364657.1054
     -4006.2304
  -2433177.58847  -1807817.96546  22604103.4184   22604104.9854
     -1230.8304
  15314403.17045  14519594.97645  23713452.5524   23713455.7564
     -4763.7414
  -5635554.28846  -4286135.12246  22329221.8364   22329227.0214
       804.4204
 06  5  7  0 19 15.0010000  0  9G30G 9G 1G 4G25G 5G 2G14G 6
  -4831868.38848  -3655365.64747  20402773.4494   20402776.7624
     -1737.0744
  44972081.08343  35150536.91345  25559077.8674   25559082.3414
     -6089.0004
   1694582.82146   2875600.22246  23225865.2414   23225869.6144
     -2226.5544
   8986152.12146   7044175.32946  23667499.0434   23667504.2334
     -3664.7894
  -2046267.08046    -96676.98646  23815507.7774   23815513.1114
       809.1334
   8811171.33948   6976673.79947  21376097.2594   21376101.3254
     -4012.4474
  -2414638.27847  -1793371.73346  22607631.3354   22607632.9714
     -1241.1364
  15385903.75545  14575309.72045  23727058.7034   23727061.5864
     -4769.7204
  -5647581.30946  -4295506.80946  22326933.1474   22326937.7924
       799.1314
 06  5  7  0 19 30.0010000  0  9G30G 9G 1G 4G25G 5G 2G14G 6
  -4805748.60548  -3635012.55947  20407743.8694   20407747.2694
     -1745.5144
  45063419.17943  35221709.44745  25576458.9904   25576462.1654
     -6089.3644
   1728058.53346   2901685.19946  23232235.4774   23232240.3394
     -2236.8174
   9041193.54046   7087064.70146  23677973.1114   23677978.3774
     -3674.0244
  -2058366.41446   -106105.03846  23813205.3474   23813210.4874
       804.1714
   8871407.18548   7023610.82247  21387559.7654   21387563.4094
     -4018.9594
  -2395941.17447  -1778802.55846  22611189.2754   22611190.9614
     -1251.7614
  15457496.71145  14631096.43445  23740682.3744   23740685.1914
     -4775.9534
  -5659525.79946  -4304814.18446  22324660.1684   22324664.9924
       793.5164
 06  5  7  0 19 45.0010000  0  9G30G 9G 1G 4G25G 5G 2G14G 6
  -4779502.98248  -3614561.42547  20412738.2414   20412741.8234
     -1753.9064
  45154761.89143  35292885.53545  25593840.9194   25593846.8194
     -6089.6514
   1761687.24546   2927889.40146  23238634.8214   23238640.1914
     -2247.0064
   9096372.84246   7130061.55446  23688473.4024   23688478.5934
     -3683.1954
  -2070392.08646   -115475.68646  23810916.9414   23810921.7154
       799.2464
   8931739.76348   7070623.21647  21399040.6784   21399044.3774
     -4025.3804
  -2377085.57147  -1764109.87146  22614777.3604   22614778.8894
     -1262.3134
  15529182.17645  14686955.19845  23754323.6764   23754328.5194
     -4782.0844
  -5671386.89846  -4314056.57146  22322403.0544   22322407.5194
       787.9884
 06  5  7  0 20  0.0010000  0  8G30G 1G 4G25G 5G 2G14G 6
  -4753132.95948  -3594013.36047  20417756.2894   20417759.7344
     -1762.1384
   1795467.62046   2954211.77246  23245063.0164   23245067.6814
     -2257.0524
   9151688.33446   7173164.52446  23698999.6084   23699004.6394
     -3692.2024
  -2082345.07546   -124789.68446  23808642.3624   23808647.0854
       794.4544
   8992167.62648   7117709.85847  21410539.7204   21410543.8174
     -4031.6774
  -2358072.70947  -1749294.64546  22618395.3654   22618396.9814
     -1272.7574
  15600958.41445  14742884.73845  23767982.2564   23767985.4204
     -4788.0894
  -5683165.85946  -4323234.97346  22320161.5774   22320166.2774
       782.5324
 06  5  7  0 20 15.0010000  0  8G30G 1G 4G25G 5G 2G14G 6
  -4726639.08748  -3573368.78247  20422797.9094   20422801.0654
     -1770.5344
   1829398.93446   2980651.77746  23251519.9244   23251524.8564
     -2267.2694
   9207139.14246   7216372.89146  23709551.5704   23709556.1884
     -3701.3684
  -2094225.81346   -134047.42646  23806381.5464   23806386.0354
       789.4954
   9052689.95048   7164870.10447  21422056.7374   21422060.7474
     -4038.1184
  -2338903.05547  -1734357.25046  22622043.2064   22622045.0504
     -1283.3564
  15672824.48345  14798884.25445  23781657.9044   23781660.8604
     -4794.1964
  -5694863.02446  -4332349.62746  22317935.6514   22317940.2324
       776.9234
 06  5  7  0 20 30.0010000  0  8G30G 1G 4G25G 5G 2G14G 6
  -4700019.18048  -3552625.99447  20427863.5044   20427866.8594
     -1778.8264
   1863483.27046   3007211.01246  23258005.9474   23258009.9914
     -2277.3614
   9262727.17146   7259688.17946  23720129.6434   23720134.5194
     -3710.3864
  -2106031.81146   -143246.90946  23804134.9594   23804139.3494
       784.6174
   9113308.78748   7212105.55847  21433592.1264   21433595.8764
     -4044.4354
  -2319574.21347  -1719295.81746  22625721.3434   22625723.0144
     -1293.8624
  15744782.09445  14854955.10345  23795351.0014   23795354.0154
     -4800.1594
  -5706475.97447  -4341398.66146  22315725.7584   22315729.7714
       771.4294
 06  5  7  0 20 45.0010000  0  8G30G 1G 4G25G 5G 2G14G 6
  -4673274.84348  -3531786.24747  20432952.7784   20432955.9764
     -1787.1364
   1897719.07246   3033888.26546  23264520.7994   23264524.4924
     -2287.4554
   9318450.65246   7303109.02546  23730733.5044   23730738.1244
     -3719.4384
  -2117764.40246   -152389.19446  23801902.3484   23801906.6754
       779.6904
   9174022.47148   7259414.92347  21445145.5594   21445149.2444
     -4050.7654
  -2300087.73747  -1704111.54746  22629429.4924   22629430.8614
     -1304.3894
  15816829.38945  14911095.83745  23809061.1574   23809065.3864
     -4806.1494
  -5718006.16146  -4350383.21246  22313531.6204   22313535.7184
       765.8874
 06  5  7  0 21  0.0010000  0  8G30G 1G 4G25G 5G 2G14G 6
  -4646404.84148  -3510848.58447  20438065.9704   20438069.0724
     -1795.4434
   1932107.35346   3060684.32946  23271064.6464   23271068.6454
     -2297.5464
   9374310.50346   7346636.12446  23741363.3004   23741368.2764
     -3728.4674
  -2129422.09546   -161473.14246  23799683.9924   23799688.4064
       774.7574
   9234831.88848   7306798.88147  21456717.2014   21456720.6434
     -4057.0544
  -2280442.40247  -1688803.47946  22633167.8704   22633169.2134
     -1314.8994
  15888967.13045  14967307.06845  23822788.5404   23822793.1924
     -4812.0944
  -5729452.34546  -4359302.29746  22311353.4684   22311357.8084
       760.3614
 06  5  7  0 21 15.0010000  0  8G30G 1G 4G25G 5G 2G14G 6
  -4619409.73948  -3489813.43747  20443202.9684   20443205.9314
     -1803.8644
   1966647.26246   3087598.55546  23277637.3604   23277641.2214
     -2307.7404
   9430305.81946   7390268.83846  23752018.8814   23752023.4974
     -3737.5794
  -2141005.57546   -170499.26246  23797479.7434   23797483.5944
       769.7194
   9295736.06248   7354256.68047  21468306.8714   21468310.4474
     -4063.4754
  -2260638.90647  -1673372.17546  22636936.3374   22636937.9314
     -1325.5484
  15961194.11045  15023587.83945  23836532.9084   23836537.5094
     -4818.1364
  -5740815.07046  -4368156.35146  22309191.2004   22309195.5354
       754.6784
 06  5  7  0 21 30.0010000  0  8G30G 1G 4G25G 5G 2G14G 6
  -4592290.61748  -3468681.65247  20448363.5534   20448366.5394
     -1812.0414
   2001338.06946   3114630.36046  23284238.7884   23284242.6724
     -2317.7114
   9486435.57146   7434006.29946  23762700.0534   23762704.8594
     -3746.4444
  -2152515.14446   -179467.74646  23795289.5744   23795294.6294
       764.8694
   9356734.24648   7401787.72747  21479914.4254   21479918.4414
     -4069.6444
  -2240677.60147  -1657817.89646  22640734.8444   22640737.0924
     -1335.9754
  16033509.23745  15079937.25745  23850294.0254   23850298.1324
     -4823.9044
  -5752094.86246  -4376945.78146  22307044.7224   22307049.4874
       749.2644
 06  5  7  0 21 45.0010000  0  8G30G 1G 4G25G 5G 2G14G 6
  -4565046.21248  -3447452.24847  20453547.9814   20453551.0164
     -1820.5114
   2036180.58546   3141780.39446  23290869.0814   23290873.4374
     -2327.9274
   9542700.27746   7477848.89446  23773406.9054   23773411.4994
     -3755.5174
  -2163949.63246   -188377.71146  23793113.6844   23793118.6044
       759.7564
   9417827.12048   7449392.55647  21491539.9914   21491544.2044
     -4076.0584
  -2220557.83247  -1642140.13746  22644563.4954   22644565.5734
     -1346.6384
  16105913.16245  15136355.88445  23864072.0544   23864076.3124
     -4829.9104
  -5763290.64447  -4385669.75746  22304914.2104   22304918.7474
       743.5354
 06  5  7  0 22  0.0010000  0  8G30G 1G 4G25G 5G 2G14G 6
  -4537675.85448  -3426124.69547  20458756.3844   20458759.2764
     -1828.8724
   2071175.34446   3169049.03446  23297528.3484   23297532.9214
     -2338.0504
   9599100.52046   7521797.15246  23784139.5204   23784144.2444
     -3764.5084
  -2175308.19746   -197228.52446  23790952.2184   23790957.4084
       754.7154
   9479015.15548   7497071.53847  21503183.6754   21503188.3084
     -4082.3674
  -2200278.86247  -1626338.33646  22648422.4394   22648423.6384
     -1357.2374
  16178405.96145  15192843.77145  23877866.9594   23877869.6014
     -4835.7964
  -5774401.55847  -4394327.59346  22302799.8664   22302804.5174
       737.9064
 06  5  7  0 22 15.0010000  0  8G30G 1G 4G25G 5G 2G14G 6
  -4510180.89448  -3404700.04747  20463988.4924   20463991.4064
     -1837.1414
   2106321.28046   3196435.47546  23304216.3944   23304221.5204
     -2348.0624
   9655635.12446   7565850.13345  23794897.6934   23794902.5604
     -3773.4034
  -2186591.55246   -206020.73846  23788805.0594   23788810.2744
       749.7284
   9540297.17948   7544823.76147  21514845.2434   21514849.6474
     -4088.5734
  -2179841.49847  -1610413.11046  22652311.5334   22652312.7004
     -1367.7454
  16250986.47345  15249399.99845  23891678.6124   23891683.2494
     -4841.5684
  -5785428.45347  -4402919.95746  22300701.4994   22300705.8164
       732.3484
 06  5  7  0 22 30.0010000  0  8G30G 1G 4G25G 5G 2G14G 6
  -4482561.75648  -3383178.63947  20469244.2294   20469247.2934
     -1845.4404
   2141617.61946   3223939.13146  23310933.0624   23310937.9304
     -2358.1404
   9712302.74746   7610006.77045  23805681.1654   23805687.0174
     -3782.3164
  -2197800.21446   -214754.75746  23786672.1264   23786676.6914
       744.7214
   9601672.30948   7592648.53647  21526524.5344   21526529.0814
     -4094.8084
  -2159246.41747  -1594364.99446  22656230.6264   22656232.2024
     -1378.3134
  16323653.31145  15306023.50745  23905506.6754   23905509.7924
     -4847.3754
  -5796371.96847  -4411447.34846  22298618.9844   22298623.1404
       726.7494
 06  5  7  0 22 45.0010000  0  8G30G 1G 4G25G 5G 2G14G 6
  -4454817.05948  -3361559.39647  20474523.8654   20474527.2474
     -1853.8034
   2177065.75946   3251561.06746  23317678.6274   23317683.2804
     -2368.2314
   9769104.97646   7654268.24745  23816490.2564   23816494.4934
     -3791.2784
  -2208932.34546   -223429.12446  23784553.7424   23784558.7524
       739.6124
   9663141.95348   7640546.94647  21538221.8124   21538225.9914
     -4101.0974
  -2138491.91747  -1578192.65346  22660180.0534   22660181.9684
     -1388.9214
  16396407.74245  15362715.24345  23919351.3854   23919354.8754
     -4853.1584
  -5807230.25647  -4419908.33346  22296552.7014   22296556.9484
       721.0744
 06  5  7  0 23  0.0010000  0  8G30G 1G 4G25G 5G 2G14G 6
  -4426947.91448  -3339843.17947  20479827.1854   20479830.2354
     -1862.1424
   2212664.28546   3279300.19246  23324452.7844   23324457.5544
     -2378.3054
   9826040.16246   7698633.36045  23827324.6514   23827330.6754
     -3800.1474
  -2219988.98546   -232044.67946  23782449.7104   23782453.9904
       734.5404
   9724704.57248   7688517.81347  21549936.7894   21549940.9274
     -4107.3244
  -2117579.20247  -1561897.02846  22664159.6024   22664162.0004
     -1399.5114
  16469248.02845  15419473.90145  23933212.4114   23933217.1274
     -4858.9154
  -5818004.53246  -4428303.86646  22294502.4054   22294506.4524
       715.4324
 06  5  7  0 23 15.0010000  0  8G30G 1G 4G25G 5G 2G14G 6
  -4398952.57448  -3318028.62047  20485154.5144   20485157.5914
     -1870.5464
   2248415.07346   3307157.94146  23331255.9374   23331260.6434
     -2388.4334
   9883109.99445   7743103.37645  23838184.6574   23838190.7694
     -3809.1214
  -2230968.00746   -240599.73546  23780360.4524   23780364.7834
       729.3644
   9786362.00448   7736562.55747  21561669.8124   21561673.8124
     -4113.6274
  -2096506.25947  -1545476.54346  22668169.6574   22668172.1094
     -1410.1784
  16542175.80145  15476300.72045  23947090.0774   23947094.0554
     -4864.7614
  -5828692.67646  -4436632.27646  22292468.5044   22292473.1064
       709.7124
 06  5  7  0 23 30.0010000  0  8G30G 1G 4G25G 5G 2G14G 6
  -4370833.08248  -3296117.32747  20490505.4684   20490508.6014
     -1878.7754
   2284315.88646   3335132.61146  23338087.6204   23338092.1334
     -2398.3914
   9940311.94645   7787676.38045  23849069.8094   23849075.8844
     -3817.8694
  -2241871.14346   -249095.64846  23778285.6184   23778290.2464
       724.3414
   9848111.89248   7784679.35447  21573420.4354   21573424.0794
     -4119.7374
  -2075275.17947  -1528932.83546  22672209.8194   22672211.7664
     -1420.6854
  16615188.47545  15533193.70145  23960983.9464   23960989.7144
     -4870.3454
  -5839296.62346  -4444895.08346  22290450.6204   22290455.2024
       704.1104
 06  5  7  0 23 45.0010000  0  8G30G 1G 4G25G 5G 2G14G 6
  -4342588.19548  -3274108.32147  20495880.2924   20495883.3774
     -1887.1364
   2320367.90646   3363225.10546  23344948.0844   23344952.6304
     -2408.4544
   9997646.93945   7832352.96845  23859980.2494   23859986.7714
     -3826.7174
  -2252697.04646   -257531.39846  23776225.4934   23776230.1044
       719.2004
   9909955.30748   7832869.03047  21585188.8474   21585192.6784
     -4125.9594
  -2053884.66647  -1512264.88746  22676280.3284   22676281.6054
     -1431.3054
  16688286.83645  15590153.46745  23974894.1244   23974898.8534
     -4876.0284
  -5849814.95746  -4453091.16546  22288449.0384   22288454.0364
       698.3994
 06  5  7  0 24  0.0010000  0  8G30G 1G 4G25G 5G 2G14G 6
  -4314218.08648  -3252001.74047  20501278.9424   20501282.0504
     -1895.4274
   2356570.70246   3391435.08346  23351837.2344   23351842.0854
     -2418.4664
  10055114.65245   7877132.96345  23870915.9694   23870922.1644
     -3835.5224
  -2263445.75346   -265907.00646  23774180.0694   23774184.7684
       714.0664
   9971891.77748   7881131.20747  21596974.9664   21596979.0164
     -4132.1154
  -2032334.97247  -1495472.91746  22680381.1304   22680382.3634
     -1441.8804
  16761470.29745  15647179.51445  23988820.4864   23988824.4354
     -4881.6344
  -5860247.84347  -4461220.66646  22286463.7134   22286468.3374
       692.7394
 06  5  7  0 24 15.0010000  0  8G30G 1G 4G25G 5G 2G14G 6
  -4285724.66148  -3229799.07447  20506701.0554   20506704.6054
     -1903.7064
   2392922.38746   3419761.08146  23358754.7004   23358758.6264
     -2428.4514
  10112713.08546   7922014.87846  23881876.5774   23881882.3024
     -3844.2884
  -2274118.76346   -274223.62446  23772149.0564   23772153.3714
       708.9604
  10033919.41848   7929464.42647  21608778.4394   21608782.8004
     -4138.2494
  -2010627.67647  -1478558.13146  22684511.9124   22684513.2614
     -1452.4494
  16834736.72945  15704270.23445  24002762.6344   24002767.3804
     -4887.2184
  -5870596.85147  -4469284.81746  22284494.3454   22284499.0674
       687.0984
 06  5  7  0 24 30.0010000  0  8G30G 1G 4G25G 5G 2G14G 6
  -4257106.53048  -3207499.22047  20512146.8984   20512150.3654
     -1912.0144
   2429424.39846   3448204.20646  23365700.7944   23365705.4184
     -2438.4404
  10170443.41246   7966999.55046  23892862.2804   23892867.4364
     -3853.0394
  -2284714.27846   -282479.85046  23770132.7964   23770137.5014
       703.8104
  10096039.47948   7977869.66147  21620599.5024   21620604.0384
     -4144.3874
  -1988761.09147  -1461519.23046  22688672.9884   22688674.4964
     -1463.0464
  16908087.26245  15761426.48645  24016720.7794   24016724.1204
     -4892.8084
  -5880860.35747  -4477282.33346  22282541.2484   22282545.5014
       681.4024
 06  5  7  0 24 45.0010000  0  8G30G 1G 4G25G 5G 2G14G 6
  -4228364.53048  -3185102.85647  20517616.3044   20517619.6444
     -1920.3244
   2466075.41146   3476763.44146  23372675.2604   23372679.9744
     -2448.4314
  10228304.10646   8012085.79446  23903872.8174   23903878.2544
     -3861.7704
  -2295233.22346   -290676.44846  23768131.1064   23768135.8214
       698.6424
  10158250.65148   8026345.89247  21632437.8974   21632442.2234
     -4150.4994
  -1966736.44347  -1444357.16146  22692864.1264   22692865.7364
     -1473.6424
  16981520.16745  15818646.89845  24030694.5824   24030697.8684
     -4898.3344
  -5891039.37547  -4485214.01846  22280604.2304   22280608.4154
       675.7274
 06  5  7  0 25  0.0010000  0  8G30G 1G 4G25G 5G 2G14G 6
  -4199497.46448  -3162609.03647  20523109.5164   20523112.5284
     -1928.6374
   2502876.87546   3505439.90146  23379678.3344   23379682.8374
     -2458.4434
  10286296.35846   8057274.51246  23914908.3914   23914912.4694
     -3870.5194
  -2305673.90546   -298812.01546  23766144.2964   23766149.0614
       693.4344
  10220554.22348   8074894.12147  21644293.8724   21644297.9984
     -4156.6504
  -1944552.19647  -1427070.72746  22697085.6274   22697087.1154
     -1484.2694
  17055036.45745  15875932.30845  24044684.3104   24044686.8884
     -4903.8574
  -5901132.14847  -4493078.50146  22278683.6274   22278687.4744
       669.9894
 06  5  7  0 25 15.0010000  0  8G30G 1G 4G25G 5G 2G14G 6
  -4170504.56548  -3140017.16847  20528626.6814   20528629.7734
     -1936.9774
   2539829.30546   3534234.00446  23386710.1504   23386715.3884
     -2468.4504
  10344420.45946   8102566.02046  23925969.0604   23925974.6484
     -3879.2454
  -2316035.39046   -306885.87146  23764172.5524   23764177.3654
       688.2034
  10282950.65148   8123514.70847  21656167.5184   21656171.7874
     -4162.7864
  -1922207.63547  -1409659.38146  22701337.6284   22701339.4534
     -1494.9054
  17128636.59645  15933283.05745  24058689.9784   24058693.9604
     -4909.3864
  -5911138.08747  -4500875.32446  22276779.5514   22276783.4034
       664.2434
 06  5  7  0 25 30.0020000  0  8G30G 1G 4G25G 5G 2G14G 6
  -4141385.86748  -3117327.27247  20534167.7854   20534171.1884
     -1945.2814
   2576933.12046   3563146.07446  23393770.7724   23393776.3604
     -2478.4114
  10402678.27546   8147961.68646  23937055.1754   23937061.0654
     -3887.9474
  -2326320.08346   -314899.89546  23762215.3994   23762220.1304
       682.9954
  10345442.05448   8172209.29447  21668059.2374   21668063.2294
     -4168.8574
  -1899703.10147  -1392123.37446  22705620.0644   22705621.8344
     -1505.5224
  17202323.12945  15990701.10545  24072712.0264   24072718.7324
     -4914.8274
  -5921059.45847  -4508606.24846  22274891.5584   22274895.3484
       658.5394
 06  5  7  0 25 45.0020000  0  8G30G 1G 4G25G 5G 2G14G 6
  -4112145.73748  -3094542.75547  20539732.0044   20539735.4364
     -1953.4754
   2614182.80946   3592171.81246  23400859.1624   23400863.7644
     -2488.2674
  10461061.25746   8193454.91046  23948165.0984   23948171.0414
     -3896.5494
  -2336526.81846   -322853.18646  23760273.0794   23760277.6174
       677.8374
  10408019.40948   8220970.86647  21679967.3124   21679971.4064
     -4174.8434
  -1877042.06347  -1374465.41746  22709932.2924   22709934.2824
     -1516.0174
  17276085.61145  16048178.35445  24086748.5744   24086754.2844
     -4920.1854
  -5930895.30247  -4516270.53046  22273019.8454   22273023.7924
       652.8784
 06  5  7  0 26  0.0020000  0  8G30G 1G 4G25G 5G 2G14G 6
  -4082781.85448  -3071661.81147  20545319.7624   20545323.0644
     -1961.8014
   2651581.15446   3621313.40546  23407975.8494   23407979.8394
     -2498.2784
  10519573.63646   8239048.99546  23959299.6274   23959305.1814
     -3905.2154
  -2346655.55546   -330745.67046  23758345.6074   23758349.8824
       672.5634
  10470687.15448   8269802.87047  21691892.5844   21691896.5734
     -4180.9514
  -1854222.57947  -1356683.99546  22714274.6864   22714276.7204
     -1526.6804
  17349928.56545  16105718.28945  24100800.3954   24100804.1784
     -4925.6324
  -5940645.68347  -4523868.20946  22271164.3934   22271168.5424
       647.0654
 06  5  7  0 26 15.0020000  0  8G30G 1G 4G25G 5G 2G14G 6
  -4053292.53148  -3048683.10747  20550931.3864   20550934.7594
     -1970.1324
   2689129.89046   3650572.17546  23415121.1574   23415125.3104
     -2508.2454
  10578216.83146   8284744.99046  23970459.0394   23970464.0724
     -3913.8644
  -2356704.20446   -338575.76346  23756433.3914   23756437.7644
       667.2574
  10533446.94348   8318706.59247  21703835.3714   21703839.7404
     -4187.0304
  -1831242.61447  -1338777.52646  22718647.6234   22718649.6024
     -1537.3244
  17423853.55245  16163322.15745  24114867.8514   24114871.9374
     -4931.0364
  -5950308.53847  -4531397.70246  22269325.6054   22269329.5504
       641.2974
 06  5  7  0 26 30.0020000  0  8G30G 1G 4G25G 5G 2G14G 6
  -4023678.37048  -3025607.14447  20556566.7724   20556570.1684
     -1978.4264
   2726827.85146   3679947.21846  23422294.8484   23422298.2544
     -2518.1734
  10636989.28446   8330541.73446  23981643.0534   23981648.2874
     -3922.4574
  -2366673.65846   -346344.15446  23754536.2454   23754540.4394
       661.9974
  10596297.52448   8367681.06047  21715795.4424   21715799.6454
     -4193.0464
  -1808103.32447  -1320746.90746  22723050.8894   22723052.6934
     -1547.9284
  17497859.20745  16220988.91245  24128950.7114   24128955.3144
     -4936.3734
  -5959884.85647  -4538859.75346  22267503.2844   22267507.4584
       635.5494
 06  5  7  0 26 45.0020000  0  8G30G 1G 4G25G 5G 2G14G 6
  -3993939.54748  -3002434.02947  20562225.8744   20562229.4584
     -1986.8354
   2764675.11146   3709438.60246  23429496.9554   23429501.3634
     -2528.2124
  10695891.00046   8376439.13845  23992851.6694   23992856.9514
     -3931.1644
  -2376563.48746   -354050.51046  23752654.2484   23752658.3404
       656.5654
  10659238.91048   8416726.28747  21727772.7934   21727776.7294
     -4199.2134
  -1784804.38347  -1302591.89246  22727484.5444   22727486.1094
     -1558.6744
  17571945.17445  16278718.18945  24143048.8104   24143055.5104
     -4941.8264
  -5969374.29547  -4546254.11046  22265697.5004   22265701.6874
       629.6574
 06  5  7  0 27  0.0020000  0  8G30G 1G 4G25G 5G 2G14G 6
  -3964075.24448  -2979163.14547  20567908.8624   20567912.3484
     -1995.0794
   2802672.30546   3739046.80846  23436727.5714   23436732.1194
     -2538.0864
  10754922.59546   8422437.75046  24004085.0174   24004091.4074
     -3939.6994
  -2386372.64246   -361693.99946  23750787.5924   23750791.9904
       651.3034
  10722271.69648   8465842.73747  21739767.5314   21739771.1834
     -4205.1734
  -1761344.97147  -1284311.82146  22731948.7324   22731950.1234
     -1569.2544
  17646111.90845  16336510.45345  24157162.2914   24157168.4184
     -4947.0664
  -5978775.82147  -4553579.96446  22263908.4404   22263912.8214
       623.8914
 06  5  7  0 27 15.0020000  0  8G30G 1G 4G25G 5G 2G14G 6
  -3934086.80348  -2955795.53247  20573615.4654   20573618.8104
     -2003.3054
   2840817.85946   3768770.62646  23443986.4104   23443990.5724
     -2547.9144
  10814082.30946   8468536.15946  24015342.7414   24015347.8394
     -3948.1954
  -2396102.21746   -369275.46246  23748936.0814   23748940.7294
       646.0624
  10785394.30648   8515029.18047  21751779.3724   21751783.2794
     -4211.0944
  -1737726.36147  -1265907.69846  22736443.2054   22736444.4844
     -1579.8254
  17720357.63745  16394364.21845  24171290.7934   24171296.4754
     -4952.2774
  -5988090.76347  -4560838.35046  22262135.8594   22262140.1154
       618.1604
 06  5  7  0 27 30.0020000  0  8G30G 1G 4G25G 5G 2G14G 6
  -3903975.78448  -2932332.39347  20579345.3984   20579348.7954
     -2011.5274
   2879110.19146   3798608.82446  23451273.1674   23451278.0874
     -2557.7494
  10873368.45545   8514733.10746  24026624.5724   24026629.7424
     -3956.6424
  -2405753.44446   -376795.88946  23747099.4854   23747104.3224
       640.7604
  10848605.12448   8564284.35747  21763807.9994   21763811.9824
     -4217.0344
  -1713949.97647  -1247380.65446  22740967.7064   22740969.5194
     -1590.3894
  17794680.48045  16452278.11145  24185433.9874   24185438.6604
     -4957.4524
  -5997320.45147  -4568030.29546  22260379.4974   22260384.0964
       612.4244
 06  5  7  0 27 45.0020000  0  8G30G 1G 4G25G 5G 2G14G 6
  -3873740.35248  -2908772.32347  20585099.0104   20585102.0004
     -2019.8934
   2917550.97646   3828562.68246  23458588.1794   23458593.1084
     -2567.7214
  10932782.49946   8561029.74245  24037930.7414   24037936.1224
     -3965.2504
  -2415324.36246   -384253.71346  23745278.1754   23745282.5444
       635.3264
  10911905.61648   8613609.40847  21775853.6904   21775857.7734
     -4223.0654
  -1690014.19447  -1228729.39146  22745522.5504   22745524.2184
     -1601.0914
  17869081.58845  16510252.99245  24199592.0744   24199597.0744
     -4962.7254
  -6006462.99447  -4575154.34546  22258639.7114   22258643.9594
       606.5494
 06  5  7  0 28  0.0020000  0  8G30G 1G 4G25G 5G 2G14G 6
  -3843380.43848  -2885115.24347  20590876.3064   20590879.2314
     -2028.1184
   2956140.34746   3858632.33246  23465931.4464   23465935.4664
     -2577.5404
  10992324.28646   8607425.92346  24049261.1774   24049267.7294
     -3973.6684
  -2424814.40346   -391648.53446  23743472.2744   23743476.8614
       629.9934
  10975295.98148   8663004.48947  21787916.4844   21787920.5484
     -4228.9674
  -1665918.57447  -1209953.58246  22750107.8084   22750109.5034
     -1611.6684
  17943561.05545  16568288.88845  24213765.0774   24213768.5444
     -4967.8504
  -6015517.88447  -4582210.09846  22256916.6084   22256921.2674
       600.7824
 06  5  7  0 28 15.0020000  0  8G30G 1G 4G25G 5G 2G14G 6
  -3812895.56148  -2861360.79347  20596677.3824   20596680.2374
     -2036.4674
   2994878.36446   3888817.79746  23473303.0014   23473307.8154
     -2587.4994
  11051993.88446   8653921.63945  24060615.9514   24060622.4074
     -3982.2554
  -2434223.16946   -398980.02646  23741681.8544   23741686.4504
       624.5184
  11038776.15648   8712469.55147  21799996.3704   21800000.1534
     -4235.0194
  -1641662.86047  -1191053.02446  22754723.5334   22754725.5114
     -1622.4034
  18018118.61245  16626385.68345  24227952.9394   24227957.3024
     -4973.1054
  -6024484.72847  -4589197.23646  22255210.2604   22255214.5304
       594.8174
 06  5  7  0 28 30.0020000  0  8G30G 1G 4G25G 5G 2G14G 6
  -3782286.07648  -2837509.25147  20602502.1714   20602505.3894
     -2044.6884
   3033764.68646   3919118.82146  23480702.7994   23480707.5264
     -2597.2804
  11111790.72646   8700516.46045  24071994.9454   24071999.8574
     -3990.6174
  -2443550.57646   -406248.10146  23739906.9064   23739911.0884
       619.1984
  11102345.85448   8762004.38047  21812093.2894   21812097.0434
     -4240.8684
  -1617247.15347  -1172027.78946  22759369.7014   22759371.4624
     -1632.9634
  18092753.68745  16684542.88245  24242155.5564   24242159.7794
     -4978.1564
  -6033363.57147  -4596115.80146  22253520.6604   22253524.8824
       589.0564
 06  5  7  0 28 45.0020000  0  8G30G 1G 4G25G 5G 2G14G 6
  -3751553.24248  -2813561.58347  20608350.4404   20608353.9184
     -2052.9524
   3072798.10646   3949534.47946  23488130.5994   23488136.0614
     -2607.1284
  11171713.63646   8747209.66645  24083397.9184   24083403.0324
     -3999.0294
  -2452797.53646   -413453.50146  23738147.2724   23738150.7544
       613.7864
  11166003.76848   8811607.94247  21824206.9984   21824210.7304
     -4246.7894
  -1592672.54447  -1152878.72946  22764046.0874   22764048.0184
     -1643.5994
  18167464.81345  16742759.31145  24256372.6274   24256377.3244
     -4983.2564
  -6042155.37047  -4602966.54946  22251847.6344   22251852.2764
       583.2384
 06  5  7  0 29  0.0020000  0  8G30G 1G 4G25G 5G 2G14G 6
  -3720696.51548  -2789517.38347  20614222.2844   20614225.7864
     -2061.3424
   3111978.80346   3980064.88646  23495586.4584   23495591.1374
     -2617.0514
  11231762.57145   8794001.05846  24094824.8524   24094830.7494
     -4007.5864
  -2461963.34946   -420595.66746  23736403.0704   23736407.6394
       608.2524
  11229750.06548   8861280.37747  21836337.5294   21836341.2364
     -4252.7924
  -1567938.67547  -1133605.58646  22768752.7634   22768754.4314
     -1654.3344
  18242251.87245  16801034.90545  24270604.1514   24270608.2574
     -4988.4304
  -6050859.71747  -4609749.15246  22250191.2374   22250195.6934
       577.2654
 06  5  7  0 29 15.0020000  0  8G30G 1G 4G25G 5G 2G14G 6
  -3689715.33548  -2765376.19947  20620117.8044   20620121.1984
     -2069.6104
   3151307.22846   4010710.42046  23503070.4374   23503074.9314
     -2626.8664
  11291937.71546   8840890.76946  24106275.8614   24106280.6014
     -4015.9174
  -2471047.31446   -427674.06946  23734674.4414   23734678.8554
       602.8134
  11293585.07848   8911021.93947  21848484.9384   21848488.8724
     -4258.6754
  -1543045.02847  -1114207.93546  22773489.8464   22773491.0704
     -1664.9604
  18317115.00145  16859369.81645  24284850.1574   24284855.1714
     -4993.4554
  -6059475.94447  -4616463.07946  22248551.6114   22248556.4034
       571.4054
 06  5  7  0 29 30.0020000  0  8G30G 1G 4G25G 5G 2G14G 6
  -3658610.12848  -2741138.37547  20626036.9214   20626039.7184
     -2077.7694
   3190783.05346   4041470.80846  23510582.4484   23510587.3834
     -2636.5834
  11352238.77046   8887878.64945  24117750.8084   24117756.0354
     -4024.2144
  -2480049.27146   -434688.55346  23732961.4274   23732965.8484
       597.4584
  11357508.45048   8960832.34647  21860649.1574   21860652.8344
     -4264.4424
  -1517991.51347  -1094685.71946  22778257.3504   22778258.8424
     -1675.5044
  18392053.38245  16917763.32545  24299110.4714   24299116.4084
     -4998.3444
  -6068003.98547  -4623108.29846  22246928.7664   22246933.4364
       565.6634
 06  5  7  0 29 45.0020000  0  8G30G 1G 4G25G 5G 2G14G 6
  -3627381.99048  -2716804.76647  20631979.4374   20631982.4234
     -2085.8884
   3230404.86646   4072344.96746  23518122.2554   23518126.6934
     -2646.2444
  11412663.97146   8934963.23345  24129249.3724   24129253.9544
     -4032.3964
  -2488970.34046   -441640.00346  23731263.7864   23731268.0404
       592.1264
  11421518.74948   9010710.49347  21872829.9184   21872833.4604
     -4270.1634
  -1492779.54547  -1075040.03646  22783055.0164   22783056.6864
     -1685.9994
  18467065.65345  16976214.42545  24313384.8264   24313388.7664
     -5003.1844
  -6076444.99047  -4629685.69646  22245322.4874   22245327.2924
       559.9004
 06  5  7  0 30  0.0020000  0  8G30G 1G 4G25G 5G 2G14G 6
  -3596029.63048  -2692374.35547  20637945.5914   20637948.8344
     -2094.3104
   3270173.90246   4103333.82346  23525690.0784   23525694.7254
     -2656.1984
  11473214.45146   8982145.41345  24140771.7554   24140776.3784
     -4040.9194
  -2497808.96446   -448527.24546  23729581.8234   23729585.8764
       586.4704
  11485617.09348   9060657.25247  21885027.4354   21885031.3124
     -4276.1774
  -1467407.85447  -1055269.89446  22787883.0894   22787884.6304
     -1696.7974
  18542152.73745  17034723.84245  24327673.4654   24327678.2594
     -5008.3134
  -6084797.49547  -4636194.14646  22243733.0574   22243738.0604
       553.8584
 06  5  7  0 30 15.0020000  0  8G30G 1G 4G25G 5G 2G14G 6
  -3564552.97748  -2667847.09147  20643935.3984   20643938.9854
     -2102.5674
   3310090.24446   4134437.48546  23533285.9284   23533289.4234
     -2665.9714
  11533890.13846   9029425.17945  24152317.9674   24152322.3414
     -4049.1634
  -2506564.57446   -455349.76446  23727915.6614   23727919.6224
       580.9514
  11549803.58948   9110672.69647  21897241.7284   21897245.5304
     -4282.0154
  -1441876.05347  -1035374.96746  22792741.6334   22792743.2694
     -1707.4374
  18617314.47345  17093291.39445  24341976.2874   24341979.3324
     -5013.2354
  -6093060.93647  -4642633.17446  22242160.5854   22242165.8174
       547.9634
 06  5  7  0 30 30.0020000  0  8G30G 1G 4G25G 5G 2G14G 6
  -3532952.95048  -2643223.68747  20649948.6814   20649952.3874
     -2110.7544
   3350152.68646   4165654.98046  23540909.5694   23540913.6984
     -2675.6714
  11594689.58246   9076801.29246  24163887.7434   24163892.5184
     -4057.3844
  -2515237.90546   -462108.18446  23726265.1634   23726269.9784
       575.5094
  11614076.94248   9160755.81147  21909472.5514   21909476.6174
     -4287.7564
  -1416185.12447  -1015356.05546  22797630.4654   22797632.2484
     -1718.0024
  18692549.25945  17151915.88945  24356293.0204   24356296.4384
     -5018.0634
  -6101236.35747  -4649003.61846  22240604.8504   22240610.0534
       542.1244
 06  5  7  0 30 45.0020000  0  8G30G 1G 4G25G 5G 2G14G 6
  -3501229.14748  -2618503.84347  20655985.5194   20655989.0084
     -2118.9814
   3390361.55946   4196986.58246  23548561.0984   23548565.5764
     -2685.4134
  11655612.97246   9124274.01446  24175481.1144   24175484.3914
     -4065.6284
  -2523828.42546   -468802.08446  23724630.4294   23724634.4794
       569.9814
  11678437.51148   9210906.88847  21921719.9784   21921724.0644
     -4293.5564
  -1390334.69547   -995212.86646  22802549.6474   22802551.0404
     -1728.6374
  18767857.28845  17210597.43345  24370623.6704   24370627.7644
     -5022.8944
  -6109323.19547  -4655305.04146  22239065.9714   22239070.9224
       536.2224
 06  5  7  0 31  0.0020000  0  8G30G 1G 4G25G 5G 2G14G 6
  -3469382.25348  -2593688.08747  20662045.7814   20662048.7794
     -2127.1884
   3430716.16746   4228431.74446  23556240.3334   23556244.0904
     -2695.1294
  11716659.70746   9171842.89545  24187097.9324   24187102.8734
     -4073.8784
  -2532336.32146   -475431.57646  23723011.4314   23723015.9284
       564.4634
  11742884.49248   9261125.30347  21933983.8484   21933988.0144
     -4299.3054
  -1364325.08347   -974945.63046  22807499.1204   22807500.4454
     -1739.2464
  18843237.48845  17269335.25145  24384968.0854   24384971.5704
     -5027.6964
  -6117321.77047  -4661537.68546  22237543.8744   22237548.5764
       530.3234
 06  5  7  0 31 15.0020000  0  8G30G 1G 4G25G 5G 2G14G 6
  -3437413.06648  -2568777.03747  20668129.3194   20668132.4204
     -2135.3694
   3471215.45246   4259989.62346  23563947.0814   23563950.8624
     -2704.7854
  11777828.45346   9219506.91945  24198737.9584   24198743.2774
     -4081.9894
  -2540762.23746   -481997.19346  23721408.0414   23721411.9244
       558.9764
  11807416.81148   9311410.22147  21946263.9464   21946267.8624
     -4305.0084
  -1338157.27447   -954555.14246  22812478.7014   22812480.3324
     -1749.8074
  18918688.69745  17328128.39545  24399325.9604   24399329.7444
     -5032.4524
  -6125232.84647  -4667702.15646  22236038.4364   22236042.7354
       524.4584
 06  5  7  0 31 30.0020000  0  8G30G 1G 4G25G 5G 2G14G 6
  -3405320.92448  -2543770.17047  20674236.2514   20674239.4954
     -2143.6794
   3511859.88946   4291660.61246  23571681.4374   23571685.1454
     -2714.5624
  11839119.47446   9267266.18845  24210401.2734   24210406.9164
     -4090.2174
  -2549105.42746   -488498.35746  23719820.3744   23719824.3534
       553.3434
  11872034.89548   9361761.96647  21958560.3594   21958564.5924
     -4310.8204
  -1311830.80147   -934040.99546  22817488.4674   22817489.8874
     -1760.4884
  18994211.00645  17386976.91645  24413697.3914   24413700.9194
     -5037.2794
  -6133055.75147  -4673797.90846  22234549.7784   22234553.7874
       518.4664
 06  5  7  0 31 45.0020000  0  8G30G 1G 4G25G 5G 2G14G 6
  -3373105.08748  -2518666.91347  20680366.7184   20680370.3564
     -2151.8134
   3552650.31346   4323445.36646  23579443.5534   23579447.2814
     -2724.1894
  11900533.50246   9315121.28645  24222087.9794   24222092.9884
     -4098.3344
  -2557364.57646   -494934.04246  23718248.7084   23718253.1494
       547.8404
  11936739.55148   9412181.16547  21970873.2454   21970877.3264
     -4316.4924
  -1285344.50647   -913402.32646  22822528.6394   22822530.4814
     -1771.0414
  19069805.02044  17445881.33645  24428082.4544   24428087.4024
     -5041.9544
  -6140789.25047  -4679823.99746  22233078.1334   22233082.3474
       512.6164
 06  5  7  0 32  0.0020000  0  8G30G 1G 4G25G 5G 2G14G 6
  -3340766.38348  -2493467.92847  20686520.5604   20686523.7564
     -2160.0364
   3593585.58146   4355342.96846  23587233.2204   23587237.7334
     -2733.8704
  11962069.13546   9363071.14046  24233797.8164   24233802.6994
     -4106.4074
  -2565540.50546   -501304.88346  23716692.8924   23716697.0174
       542.2524
  12001529.57148   9462666.88647  21983202.3744   21983206.7074
     -4322.1944
  -1258699.31647   -892639.84246  22827599.0434   22827600.5514
     -1781.6614
  19145469.29844  17504840.48245  24442480.8794   24442484.4084
     -5046.6294
  -6148434.20247  -4685781.08546  22231623.3444   22231627.6884
       506.6774
 06  5  7  0 32 15.0020000  0  8G30G 1G 4G25G 5G 2G14G 6
  -3308303.74448  -2468172.35947  20692697.9944   20692700.7924
     -2168.3044
   3634666.69846   4387354.24846  23595050.6424   23595054.9804
     -2743.5884
  12023727.20846   9411116.35846  24245530.9514   24245536.5964
     -4114.6214
  -2573631.81946   -507609.77146  23715153.1784   23715157.1354
       536.6154
  12066405.89648   9513219.86447  21995547.9284   21995552.2884
     -4327.9564
  -1231894.16247   -871752.70346  22832699.8874   22832701.1674
     -1792.3354
  19221204.51645  17563854.94845  24456892.8264   24456896.9654
     -5051.3524
  -6155989.37547  -4691668.23046  22230185.6454   22230189.7354
       500.6824
 06  5  7  0 32 30.0020000  0  8G30G 1G 4G25G 5G 2G14G 6
  -3275717.15448  -2442780.22247  20698899.0164   20698902.2244
     -2176.5394
   3675893.71746   4419479.21046  23602895.8414   23602901.2634
     -2753.2734
  12085507.73246   9459257.01246  24257287.4154   24257293.6554
     -4122.7004
  -2581638.01046   -513848.34946  23713629.6644   23713634.0014
       530.9414
  12131368.59648   9563840.13447  22007909.9224   22007914.2244
     -4333.6714
  -1204928.78447   -850740.71446  22837831.2144   22837832.7934
     -1802.9934
  19297010.44345  17622924.51545  24471318.2474   24471320.8834
     -5056.0304
  -6163454.41947  -4697485.13346  22228765.1054   22228769.4564
       494.7154
 06  5  7  0 32 45.0020000  0  8G30G 1G 4G25G 5G 2G14G 6
  -3243006.40048  -2417291.31947  20705123.6774   20705127.3304
     -2184.8724
   3717266.55346   4451717.78546  23610768.8224   23610773.9484
     -2763.0664
  12147410.48046   9507492.91046  24269067.1194   24269073.0074
     -4130.9264
  -2589558.70546   -520020.31246  23712122.4104   23712125.9894
       525.1844
  12196417.57548   9614527.64947  22020288.3304   22020292.4464
     -4339.4864
  -1177803.05147   -829603.77746  22842993.0644   22842994.7274
     -1813.7444
  19372886.94845  17682049.02545  24485757.0544   24485760.2084
     -5060.7984
  -6170829.03647  -4703231.58146  22227361.7674   22227365.8254
       488.6244
 06  5  7  0 33  0.0020000  0  8G30G 1G 4G25G 5G 2G14G 6
  -3210171.55748  -2391705.72247  20711371.9404   20711375.4734
     -2193.0254
   3758784.93346   4484069.77246  23618669.5144   23618674.3824
     -2772.6464
  12209435.09946   9555823.80646  24280870.0234   24280875.4324
     -4138.8964
  -2597393.88946   -526125.62846  23710631.4134   23710635.7054
       519.5834
  12261552.51647   9665282.13547  22032683.0954   22032687.4404
     -4345.0904
  -1150517.11047   -808341.99546  22848185.4114   22848187.0894
     -1824.2994
  19448833.46145  17741228.11445  24500209.2104   24500212.6254
     -5065.3264
  -6178113.24447  -4708907.58146  22225975.6244   22225979.8354
       482.6924
 06  5  7  0 33 15.0020000  0  8G30G 1G 4G25G 5G 2G14G 6
  -3177214.10148  -2366024.58747  20717643.5324   20717646.5364
     -2201.3114
   3800447.36246   4516533.99146  23626597.6294   23626602.8634
     -2782.3474
  12271579.91246   9604248.31346  24292695.8034   24292700.1394
     -4147.0734
  -2605144.60146   -532165.11946  23709156.4984   23709160.8534
       513.8544
  12326771.86848   9716102.40247  22045093.9254   22045098.1754
     -4350.8254
  -1123072.31247   -786956.44046  22853408.0074   22853409.3034
     -1835.0124
  19524848.27944  17800460.44145  24514674.3524   24514676.7184
     -5069.9714
  -6185308.15747  -4714513.99146  22224606.4734   22224611.2274
       476.6414
 06  5  7  0 33 30.0020000  0  8G30G 1G 4G25G 5G 2G14G 6
  -3144133.14448  -2340247.22747  20723938.6274   20723941.1154
     -2209.5164
   3842254.52046   4549110.99946  23634553.2884   23634558.1614
     -2791.9624
  12333845.48146   9652766.95946  24304544.5464   24304549.6254
     -4155.0394
  -2612809.80246   -538137.98446  23707697.8544   23707702.0454
       508.1464
  12392076.33948   9766988.99647  22057520.9574   22057525.3304
     -4356.4684
  -1095467.77547   -765446.40746  22858660.9894   22858662.2224
     -1845.6324
  19600931.70344  17859746.19545  24529152.5284   24529157.0624
     -5074.4954
  -6192412.94647  -4720050.18546  22223254.4734   22223259.0284
       470.6274
 06  5  7  0 33 45.0020000  0  8G30G 1G 4G25G 5G 2G14G 6
  -3110928.63447  -2314373.58847  20730257.2444   20730259.9924
     -2217.7864
   3884206.30446   4581800.71846  23642536.4694   23642540.7644
     -2801.6404
  12396231.36846   9701379.33346  24316416.1964   24316420.6834
     -4163.0934
  -2620389.10746   -544043.93246  23706255.5484   23706259.7184
       502.3754
  12457465.76948   9817941.79147  22069964.1454   22069968.0834
     -4362.1514
  -1067703.47747   -743811.88946  22863944.3684   22863946.0874
     -1856.3204
  19677083.36645  17919085.13045  24543643.7114   24543647.8524
     -5079.0714
  -6199427.24947  -4725515.86446  22221919.7014   22221924.4644
       464.5724
 06  5  7  0 34  0.0020000  0  8G30G 1G 4G25G 5G 2G14G 6
  -3077601.41948  -2288404.32847  20736599.2124   20736602.8874
     -2226.0434
   3926301.95046   4614602.53146  23650547.0154   23650551.2244
     -2811.2914
  12458736.93946   9750084.99346  24328310.6154   24328316.7774
     -4171.1404
  -2627882.91446   -549883.24246  23704829.5034   23704833.6264
       496.5994
  12522939.41447   9868960.21447  22082423.3584   22082427.6704
     -4367.8314
  -1039779.96247   -722053.31046  22869258.0374   22869260.0234
     -1867.0024
  19753302.28845  17978476.49145  24558147.6944   24558150.9464
     -5083.6244
  -6206351.58947  -4730911.44246  22220602.0474   22220606.2864
       458.4954
 06  5  7  0 34 15.0020000  0  8G30G 1G 4G25G 5G 2G14G 6
  -3044150.60248  -2262338.76347  20742964.7084   20742968.6734
     -2234.2314
   3968542.14746   4647516.98146  23658585.0714   23658589.3154
     -2820.8674
  12521362.62846   9798884.23646  24340227.9054   24340232.7114
     -4179.0714
  -2635290.15646   -555655.09146  23703419.9284   23703423.8544
       490.8814
  12588497.88447   9920044.72147  22094898.7074   22094902.9344
     -4373.4444
  -1011696.31047   -700169.94446  22874602.1634   22874603.9244
     -1877.6194
  19829588.99644  18037920.64845  24572664.5464   24572668.8094
     -5088.0734
  -6213184.91047  -4736236.10646  22219301.7164   22219305.9214
       452.4664
 06  5  7  0 34 30.0020000  0  8G30G 1G 4G25G 5G 2G14G 6
  -3010576.42248  -2236177.05147  20749353.6604   20749357.5594
     -2242.4874
   4010926.20646   4680543.52646  23666650.5014   23666654.1624
     -2830.4934
  12584107.51646   9847776.33146  24352167.8774   24352173.2254
     -4187.0604
  -2642611.00946   -561359.64446  23702026.8054   23702030.7444
       485.0814
  12654140.52647   9971194.82547  22107390.0914   22107394.7964
     -4379.0694
   -983453.09947   -678162.25346  22879976.6594   22879978.5564
     -1888.3034
  19905942.45244  18097416.87245  24587194.1544   24587199.8454
     -5092.5544
  -6219927.67047  -4741490.19146  22218018.6114   22218022.5304
       446.3924
 06  5  7  0 34 45.0020000  0  8G30G 1G 4G25G 5G 2G14G 6
  -2976878.15648  -2209918.66647  20755766.2214   20755769.2224
     -2250.6364
   4053455.09946   4713682.94646  23674743.4624   23674747.5204
     -2840.0424
  12646972.43445   9896761.94045  24364130.6724   24364136.4844
     -4194.9304
  -2649844.14546   -566995.83446  23700650.3794   23700654.3874
       479.3334
  12719868.22447  10022411.20647  22119897.6584   22119902.3934
     -4384.6294
   -955049.16347   -656029.31246  22885381.7384   22885383.6984
     -1898.9004
  19982363.41844  18156965.62545  24601736.6104   24601742.1284
     -5096.9234
  -6226578.66147  -4746672.76146  22216752.9704   22216757.0684
       440.3814
 06  5  7  0 35  0.0020000  0  8G30G 1G 4G25G 5G 2G14G 6
  -2943057.87448  -2183565.20447  20762202.0064   20762204.2554
     -2258.8124
   4096126.50146   4746933.37446  23682863.5404   23682868.2694
     -2849.5564
  12709954.99546   9945839.23046  24376115.8714   24376121.3994
     -4202.8064
  -2656991.50646   -572565.17346  23699290.2774   23699294.5294
       473.5814
  12785678.68048  10073692.07747  22132420.9804   22132425.5894
     -4390.1624
   -926486.73147   -633772.87346  22890816.9894   22890818.5504
     -1909.4994
  20058849.38144  18216565.07045  24616291.4254   24616295.7954
     -5101.2814
  -6233139.78547  -4751785.31246  22215504.4214   22215508.6364
       434.3664
 06  5  7  0 35 15.0020000  0  8G30G 1G 4G25G 5G 2G14G 6
  -2909114.31048  -2157115.68147  20768661.2564   20768663.7274
     -2266.9834
   4138941.48046   4780295.71646  23691010.9404   23691014.9684
     -2859.0784
  12773056.25946   9995009.05845  24388123.6524   24388128.9904
     -4210.6744
  -2664051.63546   -578066.54846  23697946.7764   23697950.9734
       467.8004
  12851572.91048  10125038.22547  22144960.2384   22144964.4014
     -4395.6984
   -897764.42147   -611391.85046  22896282.6744   22896284.0864
     -1920.1134
  20135401.16144  18276215.78345  24630858.7614   24630863.0064
     -5105.5944
  -6239609.63447  -4756826.74346  22214273.2414   22214277.1954
       428.3224
 06  5  7  0 35 30.0020000  0  8G30G 1G 4G25G 5G 2G14G 6
  -2875048.11448  -2130570.59147  20775143.8474   20775147.1574
     -2275.2314
   4181899.16746   4813769.23246  23699185.4974   23699189.1634
     -2868.6544
  12836275.00346  10044270.40245  24400153.7774   24400160.0824
     -4218.5784
  -2671024.98946   -583500.31546  23696619.7864   23696623.9034
       461.9344
  12917550.04348  10176448.97347  22157515.2744   22157519.5994
     -4401.3014
   -868883.09847   -588886.92246  22901778.6194   22901779.9894
     -1930.7864
  20212017.57843  18335916.94145  24645438.3754   24645442.3794
     -5109.9724
  -6245988.79347  -4761797.50046  22213059.3254   22213063.7394
       422.1934
 06  5  7  0 35 45.0020000  0  8G30G 1G 4G25G 5G 2G14G 6
  -2840858.45948  -2103929.29047  20781649.9224   20781653.4994
     -2283.4334
   4225000.40646   4847354.62846  23707387.3634   23707391.1984
     -2878.2124
  12899612.12446  10093623.97945  24412206.4204   24412211.6634
     -4226.4294
  -2677910.29446   -588865.47646  23695309.5364   23695313.8254
       456.0694
  12983610.94348  10227924.99747  22170086.2504   22170090.5214
     -4406.8584
   -839841.70147   -566257.26246  22907305.0194   22907306.9444
     -1941.4354
  20288699.39145  18395668.92645  24660030.4984   24660034.5364
     -5114.2994
  -6252276.12447  -4766696.71146  22211862.8784   22211867.3474
       416.0724
 06  5  7  0 36  0.0020000  0  8G30G 1G 4G25G 5G 2G14G 6
  -2806545.11748  -2077191.61847  20788179.5304   20788182.6794
     -2291.6834
   4268245.16746   4881051.85646  23715616.5344   23715620.0824
     -2887.7694
  12963067.31246  10143069.53945  24424281.5694   24424286.5764
     -4234.2914
  -2684707.10246   -594161.68746  23694016.1234   23694020.4374
       450.1654
  13049755.55748  10279466.24647  22182673.1564   22182677.6184
     -4412.4324
   -810640.09547   -543502.75946  22912861.9164   22912863.9034
     -1952.1254
  20365446.29544  18455471.71745  24674634.9754   24674638.5354
     -5118.6214
  -6258471.33047  -4771524.12746  22210683.9544   22210688.5614
       409.9134
 06  5  7  0 36 15.0020000  0  8G30G 1G 4G25G 5G 2G14G 6
  -2772108.92548  -2050358.22647  20794732.5204   20794735.3984
     -2299.9184
   4311632.60746   4914860.23746  23723872.8734   23723877.3104
     -2897.3314
  13026639.61546  10192606.30945  24436378.9924   24436384.2694
     -4242.1624
  -2691415.92846   -599389.31946  23692739.4554   23692743.8774
       444.2204
  13115983.00948  10331072.04047  22195275.8254   22195280.2774
     -4418.0024
   -781278.89347   -520623.90546  22918449.1694   22918450.9714
     -1962.8104
  20442257.08843  18515324.24245  24689251.5464   24689255.2814
     -5122.8994
  -6264575.02047  -4776280.23246  22209522.4374   22209527.1564
       403.7774
 06  5  7  0 36 30.0020000  0  8G30G 1G 4G25G 5G 2G14G 6
  -2737548.34548  -2023427.90447  20801309.1874   20801311.9304
     -2308.1744
   4355164.13846   4948780.92746  23732156.6634   23732161.4904
     -2906.9054
  13090330.43746  10242235.48545  24448498.9794   24448503.5244
     -4249.9904
  -2698034.89046   -604546.94946  23691479.8684   23691484.6234
       438.2734
  13182294.66047  10382743.45547  22207894.5124   22207898.6274
     -4423.5744
   -751756.64547   -497619.55246  22924067.0744   22924069.2194
     -1973.5124
  20519132.93243  18575227.46545  24703880.5244   24703883.4574
     -5127.2164
  -6270585.36647  -4780963.60346  22208378.6884   22208382.4264
       397.5794
 06  5  7  0 36 45.0020000  0  8G30G 1G 4G25G 5G 2G14G 6
  -2702863.43448  -1996400.70447  20807909.5194   20807912.4154
     -2316.3444
   4398839.50646   4982813.68846  23740467.8064   23740472.7154
     -2916.3584
  13154139.29646  10291956.72345  24460641.4344   24460645.7164
     -4257.7094
  -2704563.77746   -609634.36246  23690237.4214   23690241.7774
       432.3694
  13248690.33347  10434480.33047  22220529.1874   22220533.7434
     -4429.0354
   -722073.34047   -474489.71046  22929715.6264   22929717.4334
     -1984.1224
  20596073.40844  18635181.07845  24718521.8784   24718525.5104
     -5131.3934
  -6276502.41447  -4785574.27746  22207252.6834   22207256.7854
       391.4834
 06  5  7  0 37  0.0020000  0  8G30G 1G 4G25G 5G 2G14G 6
  -2668055.20448  -1969277.41147  20814533.3214   20814536.7724
     -2324.6644
   4442657.58046   5016957.64146  23748806.1184   23748811.5814
     -2925.9594
  13218064.85446  10341768.84245  24472806.0864   24472810.2904
     -4265.6044
  -2711003.39046   -614652.23046  23689011.9714   23689016.5704
       426.3154
  13315168.80948  10486281.72947  22233179.6254   22233183.6954
     -4434.6594
   -692230.02147   -451235.17046  22935394.6174   22935396.2174
     -1994.8914
  20673077.15245  18695183.94645  24733175.2354   24733180.1394
     -5135.6794
  -6282326.81447  -4790112.76146  22206144.3074   22206148.8684
       385.2104
 06  5  7  0 37 15.0020000  0  8G30G 1G 4G25G 5G 2G14G 6
  -2633124.05048  -1942058.32447  20821180.5074   20821184.2884
     -2332.8354
   4486617.71146   5051212.29046  23757171.4884   23757175.9434
     -2935.4064
  13282106.44946  10391671.38545  24484992.8334   24484998.2704
     -4273.2854
  -2717353.88446   -619600.65046  23687803.4884   23687808.1154
       420.3994
  13381729.46348  10538147.16947  22245845.7104   22245849.9634
     -4440.1084
   -662227.11747   -427856.28546  22941103.9924   22941105.3794
     -2005.5014
  20750143.25244  18755235.45945  24747840.4564   24747844.0964
     -5139.7914
  -6288059.01647  -4794579.39446  22205053.4794   22205057.9714
       379.0724
 06  5  7  0 37 30.0020000  0  8G30G 1G 4G25G 5G 2G14G 6
  -2598069.49948  -1914743.08647  20827851.1624   20827854.7334
     -2341.0434
   4530720.28846   5085577.94046  23765563.9564   23765568.7424
     -2944.8694
  13346264.29446  10441664.51945  24497201.6684   24497207.8574
     -4281.0164
  -2723614.52446   -624479.06446  23686612.1054   23686615.9864
       414.4314
  13448372.70548  10590076.95847  22258527.5214   22258531.9034
     -4445.5874
   -632064.12147   -404352.64846  22946843.8274   22946845.4374
     -2016.1614
  20827271.94345  18815335.72545  24762517.6254   24762520.8704
     -5143.9474
  -6293698.34047  -4798973.66346  22203980.3244   22203984.7454
       372.9014
 06  5  7  0 37 45.0020000  0  8G30G 1G 4G25G 5G 2G14G 6
  -2562892.72148  -1887332.60647  20834545.0744   20834548.2534
     -2349.2124
   4574964.11846   5120053.66046  23773983.3144   23773988.2064
     -2954.3104
  13410537.17246  10491747.32845  24509432.4124   24509438.0034
     -4288.7024
  -2729785.98346   -629287.96546  23685437.6884   23685442.1824
       408.4374
  13515097.22848  10642070.09247  22271224.7974   22271229.1544
     -4451.0304
   -601742.08247   -380725.08646  22952613.9294   22952615.5634
     -2026.7994
  20904461.75344  18875483.59845  24777206.3814   24777208.3504
     -5148.0314
  -6299245.52147  -4803296.13146  22202924.7164   22202929.7044
       366.7094
 06  5  7  0 38  0.0020000  0  8G30G 1G 4G25G 5G 2G14G 6
  -2527592.19648  -1859825.70547  20841262.5374   20841265.6044
     -2357.4234
   4619350.49546   5154640.45246  23782429.7584   23782433.9154
     -2963.7684
  13474925.93246  10541920.36545  24521685.2024   24521691.1804
     -4296.3764
  -2735866.62046   -634026.09546  23684280.5624   23684285.4054
       402.4104
  13581904.43747  10694127.64947  22283937.7984   22283942.1334
     -4456.5084
   -571259.38147   -356972.33546  22958414.6134   22958416.6854
     -2037.4634
  20981713.86244  18935680.03045  24791906.9744   24791910.1294
     -5152.1514
  -6304699.05747  -4807545.62546  22201886.9234   22201891.3054
       360.5114
 06  5  7  0 38 15.0020000  0  8G30G 1G 4G25G 5G 2G14G 6
  -2492168.40048  -1832222.75047  20848003.4594   20848006.6504
     -2365.6654
   4663878.79746   5189337.82946  23790903.1884   23790908.3314
     -2973.2374
  13539430.08045  10592183.36745  24533959.8954   24533965.5764
     -4304.0674
  -2741856.62746   -638693.61846  23683140.6924   23683144.9924
       396.3464
  13648793.62847  10746249.08947  22296666.3894   22296670.6104
     -4461.9594
   -540616.61347   -333094.85446  22964245.7304   22964247.7274
     -2048.1484
  21059027.27244  18995924.20945  24806619.2554   24806623.1884
     -5156.2174
  -6310059.32247  -4811722.44046  22200866.8794   22200871.4964
       354.2784
 06  5  7  0 38 30.0020000  0  8G30G 1G 4G25G 5G 2G14G 6
  -2456621.70948  -1804524.03147  20854767.7674   20854770.9174
     -2373.9444
   4708548.55346   5224145.43246  23799403.5584   23799407.8404
     -2982.7484
  13604048.73846  10642535.51245  24546256.4034   24546261.4084
     -4311.8104
  -2747756.04746   -643290.54746  23682018.0574   23682022.0574
       390.2074
  13715764.32548  10798434.03247  22309410.4964   22309414.9414
     -4467.4824
   -509814.04047   -309092.85146  22970107.2614   22970108.9564
     -2058.8914
  21136401.25344  19056215.58045  24821343.0724   24821346.9524
     -5160.3164
  -6315326.25447  -4815826.53146  22199864.5934   22199869.5444
       347.9404
 06  5  7  0 38 45.0020000  0  8G30G 1G 4G25G 5G 2G14G 6
  -2420950.26248  -1776728.09647  20861555.8194   20861558.9974
     -2382.3064
   4753361.38946   5259064.52946  23807931.1254   23807935.7454
     -2992.3404
  13668783.92746  10692978.52845  24558575.0684   24558579.4494
     -4319.5754
  -2753562.83846   -647815.31346  23680913.0404   23680917.3244
       383.9794
  13782818.27048  10850683.85047  22322170.4474   22322175.1634
     -4473.0814
   -478849.88547   -284964.93346  22975999.5104   22976001.0804
     -2069.7144
  21213837.33944  19116555.39145  24836078.6924   24836082.3454
     -5164.5194
  -6320498.01347  -4819856.46846  22198880.4234   22198885.4304
       341.5834
 06  5  7  0 39  0.0030000  0  8G30G 1G 4G25G 5G 2G14G 6
  -2385152.46748  -1748833.71347  20868367.9134   20868371.0894
     -2390.3914
   4798319.20546   5294096.57646  23816486.2814   23816490.7794
     -3001.6154
  13733638.21846  10743514.33245  24570916.4234   24570920.0164
     -4327.0954
  -2759277.98346   -652268.67246  23679825.4694   23679830.1294
       378.0064
  13849958.79148  10903001.13047  22334946.8764   22334951.4204
     -4478.3654
   -447722.90647   -260710.16146  22981922.7494   22981924.0264
     -2080.2484
  21291339.45944  19176946.60245  24850826.8614   24850829.3024
     -5168.3604
  -6325575.82547  -4823813.19546  22197914.1414   22197918.6904
       335.4514
 06  5  7  0 39 15.0030000  0  8G30G 1G 4G25G 5G 2G14G 6
  -2349234.82948  -1720845.94047  20875202.8124   20875205.8464
     -2398.5764
   4843414.31846   5329235.63046  23825067.5804   23825072.0474
     -3011.0044
  13798601.79446  10794135.46445  24583278.5854   24583282.2834
     -4334.6574
  -2764902.10246   -656651.08646  23678755.2244   23678759.3004
       371.9054
  13917175.21148  10955377.55947  22347737.7514   22347742.0524
     -4483.7564
   -416438.86847   -236332.98846  22987875.8884   22987877.0744
     -2090.9024
  21368895.16343  19237379.61845  24865585.2054   24865588.2854
     -5172.3144
  -6330560.28647  -4827697.18146  22196965.6344   22196970.0014
       329.1794
 06  5  7  0 39 30.0030000  0  8G30G 1G 4G25G 5G 2G14G 6
  -2313194.13648  -1692762.29347  20882061.1354   20882064.3364
     -2406.8344
   4888650.45746   5364484.57246  23833675.6984   23833680.8804
     -3020.4624
  13863678.81946  10844844.90645  24595662.3104   24595667.3814
     -4342.2714
  -2770434.28246   -660961.87846  23677702.4904   23677706.3304
       365.7334
  13984472.77348  11007817.20847  22360544.0594   22360548.4714
     -4489.2194
   -384994.84747   -211831.15846  22993859.4734   22993860.6294
     -2101.6304
  21446510.13543  19297858.77245  24880354.8304   24880357.1804
     -5176.3074
  -6335450.57847  -4831507.78546  22196035.0384   22196039.5054
       322.8604
 06  5  7  0 39 45.0030000  0  8G30G 1G 4G25G 5G 2G14G 6
  -2277030.82648  -1664583.09547  20888942.7914   20888946.1554
     -2414.9644
   4934026.98246   5399842.90246  23842310.5594   23842315.7054
     -3029.7714
  13928868.85545  10895642.28045  24608067.5264   24608072.0204
     -4349.7324
  -2775874.76246   -665201.22346  23676667.2204   23676671.4154
       359.6444
  14051850.79547  11060319.55647  22373365.6784   22373370.0294
     -4494.5354
   -353391.19147   -187204.93646  22999873.4514   22999875.1284
     -2112.2234
  21524183.66843  19358383.59945  24895135.6184   24895139.5594
     -5180.1694
  -6340247.14047  -4835245.35146  22195122.2834   22195126.4754
       316.6434
 06  5  7  0 40  0.0030000  0  8G30G 1G 4G25G 5G 2G14G 6
  -2240743.68448  -1636307.39647  20895848.0064   20895851.4074
     -2423.2324
   4979544.83946   5435311.37746  23850972.3354   23850976.6024
     -3039.1984
  13994172.58045  10946528.20945  24620494.3874   24620499.3064
     -4357.3514
  -2781222.04246   -669367.93846  23675649.6794   23675653.9844
       353.4174
  14119310.34447  11112885.42647  22386202.8114   22386207.2994
     -4499.9704
   -321626.87747   -162453.52446  23005918.0134   23005919.8374
     -2122.9444
  21601916.47644  19418954.60545  24909927.7224   24909931.9704
     -5184.1194
  -6344948.47047  -4838908.71346  22194227.6494   22194231.6034
       310.2824
 06  5  7  0 40 15.0030000  0  8G30G 1G 4G25G 5G 2G14G 6
  -2204333.48548  -1607935.81047  20902776.6334   20902779.9214
     -2431.4624
   5025203.27346   5470889.38046  23859660.8594   23859664.7064
     -3048.5814
  14059589.52945  10997502.47645  24632942.7964   24632947.4264
     -4364.8964
  -2786476.57846   -673462.34346  23674649.7614   23674654.2194
       347.2044
  14186850.57547  11165514.16547  22399055.3024   22399059.9214
     -4505.3834
   -289702.53547   -137577.41646  23011993.0134   23011994.4544
     -2133.6214
  21679707.50044  19479570.92245  24924730.9144   24924735.2894
     -5187.9944
  -6349555.20747  -4842498.36546  22193351.0194   22193355.0254
       303.9784
 06  5  7  0 40 30.0030000  0  8G30G 1G 4G25G 5G 2G14G 6
  -2167800.00548  -1579468.16947  20909728.7224   20909732.3334
     -2439.6854
   5071002.35046   5506576.98646  23868376.1514   23868380.2874
     -3057.9574
  14125119.50345  11048564.87145  24645412.7464   24645418.9944
     -4372.4474
  -2791637.94946   -677484.17946  23673667.5614   23673672.0504
       340.9714
  14254471.59847  11218205.86446  22411923.1634   22411927.6794
     -4510.7664
   -257617.97347   -112576.45646  23018098.5004   23018100.5604
     -2144.3264
  21757556.55044  19540232.52145  24939545.1314   24939550.3524
     -5191.8774
  -6354067.03347  -4846014.06746  22192492.4474   22192496.4324
       297.6114
 06  5  7  0 40 45.0030000  0  8G30G 1G 4G25G 5G 2G14G 6
  -2131142.62248  -1550903.97547  20916704.3834   20916707.5624
     -2447.9344
   5116942.47146   5542374.48846  23877118.2934   23877122.9134
     -3067.3594
  14190762.45045  11099715.24545  24657904.1734   24657908.7104
     -4379.9554
  -2796705.15346   -681432.64046  23672703.2854   23672707.6994
       334.6804
  14322173.82348  11270960.83946  22424806.4864   22424810.6394
     -4516.1684
   -225372.48447    -87450.11546  23024234.6184   23024236.8204
     -2155.0484
  21835463.96544  19600939.59545  24954370.4344   24954376.0584
     -5195.7384
  -6358482.99447  -4849455.05946  22191652.1094   22191656.0884
       291.2264
 06  5  7  0 41  0.0030000  0  8G30G 1G 4G25G 5G 2G14G 6
  -2094362.49148  -1522244.12747  20923703.4064   20923706.4064
     -2456.1634
   5163022.18946   5578280.77446  23885886.9824   23885891.3084
     -3076.6964
  14256517.05745  11150952.60345  24670416.8174   24670420.7474
     -4387.4284
  -2801679.28246   -685308.57446  23671756.7174   23671761.1734
       328.4404
  14389955.78848  11323777.95647  22437704.9844   22437709.1204
     -4521.5194
   -192967.43447    -62199.42546  23030401.0914   23030402.5874
     -2165.7194
  21913428.02844  19661690.76645  24969206.5044   24969211.6704
     -5199.5354
  -6362804.37847  -4852822.36646  22190829.7794   22190833.7434
       284.8644
 06  5  7  0 41 15.0030000  0  8G30G 1G 4G25G 5G 2G14G 6
  -2057460.28648  -1493489.15847  20930725.6604   20930728.5394
     -2464.2434
   5209240.79946   5614295.27846  23894682.1174   23894685.6224
     -3085.8924
  14322382.61745  11202276.40645  24682950.5724   24682956.3844
     -4394.7234
  -2806560.54046   -689112.15146  23670827.8254   23670832.3424
       322.2924
  14457816.84448  11376656.69147  22450618.5434   22450622.7224
     -4526.7134
   -160403.31447    -36824.79046  23036597.8424   23036599.1454
     -2176.2594
  21991447.81844  19722485.39845  24984053.1844   24984058.1504
     -5203.1994
  -6367031.47847  -4856116.20046  22190025.3854   22190029.5984
       278.6404
 06  5  7  0 41 30.0030000  0  8G30G 1G 4G25G 5G 2G14G 6
  -2020434.79948  -1464638.13447  20937771.3754   20937774.4044
     -2472.4374
   5255599.41546   5650418.88946  23903503.9164   23903507.0604
     -3095.1994
  14388359.80045  11253687.15345  24695505.5944   24695510.6364
     -4402.1724
  -2811347.43946   -692842.20046  23669916.9144   23669920.9424
       316.0134
  14525758.02548  11429597.87147  22463547.3454   22463551.2564
     -4532.0504
   -127678.90147    -11325.25646  23042825.0964   23042826.6684
     -2186.9384
  22069524.24443  19783324.16245  24998910.6294   24998915.3644
     -5206.9444
  -6371162.76247  -4859335.36646  22189239.2114   22189243.1464
       272.2814
 06  5  7  0 41 45.0030000  0  8G30G 1G 4G25G 5G 2G14G 6
  -1983285.94048  -1435690.97747  20944840.5784   20944843.9824
     -2480.6934
   5302098.01446   5686651.57946  23912352.3094   23912356.3444
     -3104.5504
  14454448.64145  11305184.98245  24708081.8724   24708086.3584
     -4409.6224
  -2816039.58046   -696498.39546  23669024.0104   23669028.3094
       309.6544
  14593779.39247  11482601.53746  22476491.3784   22476495.1784
     -4537.4114
    -94793.91947     14299.40346  23049082.8964   23049084.4854
     -2197.6664
  22147657.00843  19844206.78645  25013778.8104   25013783.9374
     -5210.7144
  -6375198.11647  -4862479.78446  22188471.2994   22188475.3344
       265.8214
 06  5  7  0 42  0.0030000  0  8G30G 1G 4G25G 5G 2G14G 6
  -1946013.27648  -1406647.34147  20951933.3344   20951936.5784
     -2488.9894
   5348736.83746   5722993.51746  23921227.3794   23921231.7184
     -3113.9374
  14520649.27945  11356769.89145  24720679.4334   24720685.0904
     -4417.1244
  -2820636.26146   -700080.19946  23668149.2804   23668153.9564
       303.2394
  14661881.16848  11535667.84546  22489450.7134   22489454.7424
     -4542.8154
    -61748.11947     40049.37246  23055371.2954   23055373.2484
     -2208.4304
  22225846.22043  19905133.42945  25028657.7614   25028665.0794
     -5214.4704
  -6379136.93247  -4865548.98046  22187721.7594   22187726.1004
       259.3384
 06  5  7  0 42 15.0030000  0  8G30G 1G 4G25G 5G 2G14G 6
  -1908618.39848  -1377508.47447  20959049.3404   20959052.5434
     -2497.0984
   5395514.09746   5759443.35146  23930128.7884   23930132.5484
     -3123.1374
  14586959.81345  11408440.43945  24733297.8864   24733301.3074
     -4424.3564
  -2825138.85247   -703588.71346  23667292.4504   23667296.7664
       296.9924
  14730061.56348  11588795.41846  22502425.0114   22502428.7674
     -4548.0144
    -28543.11447     65923.40046  23061689.9944   23061692.1734
     -2219.0114
  22304089.72543  19966102.39045  25043547.0024   25043551.8144
     -5218.0874
  -6382980.50047  -4868543.95146  22186990.3414   22186994.5694
       253.0444
 06  5  7  0 42 30.0030000  0  8G30G 1G 4G25G 5G 2G14G 6
  -1871100.23648  -1348273.54047  20966188.8064   20966191.6674
     -2505.4004
   5442430.57046   5796001.63346  23939056.6614   23939061.0684
     -3132.4724
  14653380.74145  11460197.03745  24745937.3294   24745942.8764
     -4431.8184
  -2829546.08147   -707022.90046  23666453.7744   23666457.6284
       290.5744
  14798321.44747  11641984.93746  22515414.4474   22515418.3154
     -4553.3644
      4821.94747     91922.14146  23068039.1614   23068041.0014
     -2229.7464
  22382388.53843  20027114.39745  25058446.7504   25058451.3914
     -5221.7914
  -6386727.88547  -4871463.97046  22186277.2234   22186281.1004
       246.5524
 06  5  7  0 42 45.0030000  0  8G30G 1G 4G25G 5G 2G14G 6
  -1833457.39248  -1318941.46247  20973352.0004   20973354.8464
     -2513.6364
   5489487.79246   5832669.59746  23948011.3114   23948015.3064
     -3141.7814
  14719913.60845  11512040.87545  24758598.0784   24758605.2484
     -4439.1864
  -2833855.97147   -710381.23846  23665633.6374   23665637.5424
       284.1184
  14866662.26247  11695237.52246  22528419.2764   22528423.4084
     -4558.6964
     38348.87247    118047.02446  23074419.1254   23074420.9134
     -2240.4814
  22460743.48643  20088170.16945  25073357.1994   25073361.5304
     -5225.4524
  -6390377.12647  -4874307.52146  22185582.7844   22185587.2074
       240.0534
 06  5  7  0 43  0.0030000  0  8G30G 1G 4G25G 5G 2G14G 6
  -1795691.72048  -1289513.66247  20980538.5664   20980541.6874
     -2521.8204
   5536683.51046   5869445.48246  23956992.3024   23956996.2144
     -3150.9914
  14786555.95845  11563969.95345  24771279.6984   24771284.4944
     -4446.4904
  -2838070.34147   -713665.13646  23664831.6774   23664835.6644
       277.7624
  14935081.88947  11748551.51846  22541439.0834   22541443.1134
     -4563.9334
     72035.52547    144296.35746  23080829.4964   23080831.1564
     -2251.1034
  22539152.26443  20149267.88545  25088277.8924   25088280.9544
     -5229.0534
  -6393930.16747  -4877076.12246  22184906.6544   22184910.8074
       233.6614
 06  5  7  0 43 15.0030000  0  8G30G 1G 4G25G 5G 2G14G 6
  -1757803.05248  -1259990.02647  20987748.5414   20987751.8664
     -2530.0614
   5584017.86046   5906329.38146  23965999.6544   23966004.1624
     -3160.2864
  14853307.91845  11615984.45245  24783982.1764   24783986.8204
     -4453.8084
  -2842188.57447   -716874.11646  23664047.9984   23664052.3374
       271.2954
  15003580.40147  11801926.97346  22554473.8994   22554478.4174
     -4569.2454
    105882.16147    170670.36246  23087270.3164   23087271.8554
     -2261.8194
  22617614.86943  20210407.59845  25103208.8104   25103214.2454
     -5232.6664
  -6397386.54447  -4879769.39146  22184248.9094   22184253.3334
       227.1594
 06  5  7  0 43 30.0030000  0  8G30G 1G 4G25G 5G 2G14G 6
  -1719791.75948  -1230370.83747  20994981.8494   20994985.5834
     -2538.2394
   5631490.20946   5943320.81346  23975033.3274   23975037.8084
     -3169.5084
  14920168.85845  11668083.87245  24796705.4114   24796708.7584
     -4461.1404
  -2846210.89647   -720008.38146  23663282.5794   23663286.5644
       264.8684
  15072157.26247  11855363.48346  22567523.6324   22567528.1594
     -4574.4934
    139888.39147    197168.71546  23093741.4974   23093743.0844
     -2272.4894
  22696130.54743  20271588.62845  25118149.8584   25118154.0674
     -5236.2184
  -6400746.48547  -4882387.52046  22183609.5204   22183614.0544
       220.6864
 06  5  7  0 43 45.0030000  0  8G30G 1G 4G25G 5G 2G14G 6
  -1681656.57348  -1200655.10947  21002238.7344   21002242.1284
     -2546.4894
   5679101.87446   5980420.81646  23984093.5024   23984097.9944
     -3178.7524
  14987139.87945  11720269.18245  24809449.5714   24809453.3834
     -4468.4114
  -2850135.56747   -723066.54646  23662535.7444   23662539.6094
       258.3724
  15140813.70947  11908862.00746  22580588.5164   22580593.2084
     -4579.7594
    174055.59447    223792.52046  23100243.3054   23100245.1734
     -2283.1934
  22774700.33743  20332811.77845  25133101.2204   25133106.6224
     -5239.8114
  -6404008.36647  -4884929.22546  22182988.8004   22182993.2404
       214.1934
 06  5  7  0 44  0.0030000  0  8G30G 1G 4G25G 5G 2G14G 6
  -1643398.08948  -1170843.30147  21009519.0764   21009522.1664
     -2554.7144
   5726851.88146   6017628.60646  23993180.0314   23993184.0954
     -3187.9874
  15054219.86745  11772539.43445  24822214.4264   24822217.4564
     -4475.6544
  -2853963.12247   -726049.02646  23661807.3764   23661811.3374
       251.8804
  15209548.85547  11962421.85046  22593668.3934   22593673.0434
     -4585.0084
    208383.03347    250541.17146  23106775.6064   23106777.2364
     -2293.8864
  22853323.05344  20394076.22145  25148062.6884   25148067.6744
     -5243.2874
  -6407172.94547  -4887395.11246  22182386.5894   22182390.8614
       207.6714
 06  5  7  0 44 15.0030000  0  8G30G 1G 4G25G 5G 2G14G 6
  -1605015.83448  -1140935.05047  21016822.9724   21016826.0864
     -2562.9334
   5774740.67946   6054944.55546  24002293.0014   24002297.2914
     -3197.1834
  15121408.91445  11824894.46945  24835000.0464   24835005.2024
     -4482.8734
  -2857692.59347   -728955.09846  23661097.6814   23661102.1244
       245.3824
  15278363.18847  12016043.41146  22606763.3334   22606767.7574
     -4590.2444
    242871.43347    277415.24346  23113338.5314   23113339.8974
     -2304.5784
  22931998.95943  20455382.07645  25163034.2304   25163039.9454
     -5246.8084
  -6410239.35747  -4889784.50846  22181803.0514   22181807.4464
       201.1704
 06  5  7  0 44 30.0030000  0  8G30G 1G 4G25G 5G 2G14G 6
  -1566511.35448  -1110931.56647  21024150.1324   21024153.2394
     -2571.0204
   5822766.45846   6092367.25246  24011432.0464   24011436.0554
     -3206.2734
  15188705.33645  11877333.17645  24847806.1274   24847810.9944
     -4489.9864
  -2861325.31547   -731785.77046  23660406.4014   23660410.7794
       238.9674
  15347254.88647  12069725.24546  22619872.9924   22619877.3564
     -4595.3524
    277519.02547    304413.35746  23119931.7614   23119932.8734
     -2315.1304
  23010726.13343  20516727.92945  25178015.5184   25178019.5174
     -5250.1664
  -6413209.00347  -4892098.50146  22181237.9264   22181242.2884
       194.7534
 06  5  7  0 44 45.0030000  0  8G30G 1G 4G25G 5G 2G14G 6
  -1527884.14148  -1080832.43347  21031500.6474   21031504.0874
     -2579.2784
   5870929.51446   6129896.91046  24020597.2064   24020601.4274
     -3215.4714
  15256109.34345  11929855.79545  24860632.6794   24860637.5534
     -4497.2154
  -2864860.57347   -734540.49846  23659733.6524   23659737.5574
       232.3994
  15416224.31047  12123467.65446  22632997.4254   22633001.6624
     -4600.5854
    312326.21547    331535.83846  23126555.3564   23126556.4204
     -2325.8324
  23089504.67543  20578113.76845  25193006.5924   25193010.8314
     -5253.6554
  -6416081.23447  -4894336.59146  22180691.3414   22180695.8394
       188.2014
 06  5  7  0 45  0.0030000  0  8G30G 1G 4G25G 5G 2G14G 6
  -1489134.58748  -1050637.98047  21038874.4424   21038877.5634
     -2587.3844
   5919229.41446   6167533.19146  24029788.4094   24029792.3954
     -3224.5554
  15323620.35445  11982461.78545  24873479.5904   24873483.6864
     -4504.3164
  -2868298.37547   -737219.27746  23659079.4464   23659083.5384
       225.9344
  15485271.08747  12177270.32746  22646136.5784   22646141.1724
     -4605.7044
    347292.78947    358782.51146  23133209.2894   23133210.3894
     -2336.4254
  23168333.94943  20639539.20745  25208007.3264   25208011.3374
     -5256.9704
  -6418856.18347  -4896498.87446  22180163.2744   22180168.0154
       181.7404
 06  5  7  0 45 15.0030000  0  8G30G 1G 4G25G 5G 2G14G 6
  -1450263.11548  -1020348.51747  21046271.4224   21046274.5924
     -2595.4784
   5967665.56946   6205275.67846  24039005.5414   24039009.8084
     -3233.6004
  15391237.78245  12035150.73245  24886346.7904   24886352.3564
     -4511.3614
  -2871638.77847   -739822.17546  23658443.7704   23658447.8374
       219.4554
  15554394.66447  12231132.83946  22659290.3564   22659294.9014
     -4610.7694
    382418.31347    386153.05646  23139893.4714   23139894.2764
     -2346.9844
  23247213.05043  20701003.40245  25223017.5724   25223023.3094
     -5260.2434
  -6421534.03847  -4898585.51446  22179653.6884   22179658.3284
       175.3164
 06  5  7  0 45 30.0030000  0  8G30G 1G 4G25G 5G 2G14G 6
  -1411269.94648   -989964.23447  21053691.5694   21053694.7704
     -2603.6234
   6016237.52046   6243123.94446  24048248.5014   24048252.3104
     -3242.6664
  15458961.00345  12087922.14545  24899234.1044   24899238.2204
     -4518.4024
  -2874881.87547   -742349.26246  23657826.6064   23657830.5844
       212.9454
  15623594.55047  12285054.82546  22672458.6574   22672463.0684
     -4615.8734
    417702.43347    413647.16646  23146607.8184   23146609.3264
     -2357.5744
  23326141.41343  20762506.03145  25238037.1604   25238041.6794
     -5263.5404
  -6424114.96647  -4900596.61546  22179162.5554   22179167.2374
       168.8144
 06  5  7  0 45 45.0030000  0  8G30G 1G 4G25G 5G 2G14G 6
  -1372153.67548   -959484.02647  21061135.1454   21061138.6424
     -2611.8794
   6064946.58746   6281079.05646  24057517.5584   24057521.0954
     -3251.8694
  15526790.95545  12140776.65145  24912141.7034   24912145.5034
     -4525.5914
  -2878025.93847   -744799.17046  23657228.2794   23657232.6834
       206.2544
  15692872.08447  12339037.31546  22685641.7364   22685646.1154
     -4621.1294
    453146.54947    441265.94346  23153352.6144   23153354.4714
     -2368.3074
  23405120.04643  20824047.77845  25253066.3134   25253068.4354
     -5266.9464
  -6426597.38547  -4902530.93946  22178690.1644   22178694.2274
       162.1844
 06  5  7  0 46  0.0030000  0  8G30G 1G 4G25G 5G 2G14G 6
  -1332913.82648   -928907.51547  21068602.2334   21068605.6834
     -2620.1174
   6113793.10046   6319141.28146  24066812.7094   24066815.8034
     -3261.0164
  15594728.17045  12193714.76645  24925069.7104   24925075.0674
     -4532.7264
  -2881070.07747   -747171.20346  23656648.9634   23656653.3224
       199.6014
  15762227.60847  12393080.58246  22698839.6554   22698843.9234
     -4626.3094
    488751.20047    469009.82346  23160127.9484   23160129.9134
     -2378.9974
  23484149.19143  20885628.88345  25268105.0604   25268110.7014
     -5270.2954
  -6428980.53847  -4904387.92746  22178236.6604   22178241.0614
       155.5674
 06  5  7  0 46 15.0030000  0  8G30G 1G 4G25G 5G 2G14G 6
  -1293551.42548   -898235.51747  21076092.6454   21076095.9304
     -2628.2984
   6162775.82746   6357309.64246  24076133.7704   24076138.2574
     -3270.1064
  15662771.13045  12246735.24345  24938017.8194   24938023.9064
     -4539.7914
  -2884015.06547   -749465.99246  23656088.5364   23656092.4274
       192.9694
  15831659.95947  12447183.70146  22712052.1934   22712056.9594
     -4631.4424
    524515.29247    496877.94146  23166933.6254   23166935.8714
     -2389.6474
  23563227.41743  20947248.28445  25283153.1694   25283159.3924
     -5273.5784
  -6431265.35247  -4906168.28846  22177801.8674   22177806.2394
       148.9874
 06  5  7  0 46 30.0030000  0  8G30G 1G 4G25G 5G 2G14G 6
  -1254066.38048   -867467.95647  21083606.4014   21083609.6334
     -2636.3904
   6211894.62346   6395584.03246  24085480.7164   24085485.1384
     -3279.0924
  15730919.86145  12299838.15945  24950986.0804   24950990.6874
     -4546.7474
  -2886860.58647   -751683.26646  23655547.0414   23655551.1054
       186.4044
  15901169.07747  12501346.64546  22725279.3454   22725284.1754
     -4636.4804
    560438.94047    524870.39446  23173769.6724   23173772.0514
     -2400.1974
  23642354.59743  21008905.79045  25298210.5904   25298213.4744
     -5276.7424
  -6433451.54147  -4907871.80046  22177385.8514   22177390.1094
       142.4884
 06  5  7  0 46 45.0030000  0  8G30G 1G 4G25G 5G 2G14G 6
  -1214459.47148   -836605.43247  21091143.3634   21091146.3474
     -2644.5814
   6261148.66246   6433963.78446  24094853.3944   24094857.2994
     -3288.1574
  15799173.25845  12353022.75545  24963974.2434   24963978.0204
     -4553.7444
  -2889607.12247   -753823.40446  23655024.3704   23655028.4634
       179.7484
  15970754.13447  12555568.76246  22738520.9594   22738525.1254
     -4641.5824
    596521.37247    552986.57446  23180635.9314   23180638.0524
     -2410.8474
  23721529.47743  21070600.46345  25313277.0594   25313278.7144
     -5279.9624
  -6435539.67347  -4909498.89746  22176988.4884   22176992.4824
       135.8854
 06  5  7  0 47  0.0030000  0  8G30G 1G 4G25G 5G 2G14G 6
  -1174728.47148   -805646.21047  21098703.9314   21098706.9984
     -2652.8164
   6310539.82546   6472450.40746  24104252.1704   24104256.2924
     -3297.2594
  15867532.97145  12406290.11645  24976982.6154   24976989.2024
     -4560.8124
  -2892252.28447   -755884.57446  23654521.0024   23654524.8724
       173.0024
  16040417.03447  12609851.53546  22751777.3884   22751782.0514
     -4646.7324
    632764.70447    581228.13046  23187532.8044   23187534.7194
     -2421.5284
  23800753.74943  21132333.65445  25328352.9154   25328352.9984
     -5283.2134
  -6437527.45247  -4911047.80646  22176610.2234   22176614.5144
       129.2194
 06  5  7  0 47 15.0030000  0  8G30G 1G 4G25G 5G 2G14G 6
  -1134874.89948   -774591.47547  21106287.8214   21106291.0694
     -2660.9654
   6360066.59646   6511042.69046  24113676.7754   24113680.8284
     -3306.2804
  15935997.46845  12459639.06745  24990010.9664   24990016.0894
     -4567.7714
  -2894797.04447   -757867.51946  23654036.7534   23654040.4564
       166.3224
  16110156.32347  12664193.83446  22765048.3544   22765052.9834
     -4651.8084
    669167.59047    609594.00646  23194460.0514   23194461.8114
     -2432.1584
  23880025.84943  21194104.09645  25343437.8904   25343442.8114
     -5286.3554
  -6439416.06247  -4912519.43446  22176250.8244   22176254.8234
       122.6194
 06  5  7  0 47 30.0030000  0  8G30G 1G 4G25G 5G 2G14G 6
  -1094899.41248   -743441.74247  21113894.9084   21113897.9924
     -2669.1374
   6409728.08946   6549739.95846  24123127.0184   24123131.6504
     -3315.3024
  16004565.70545  12513068.80745  25003059.0834   25003063.8394
     -4574.6984
  -2897241.82747   -759772.53546  23653571.5054   23653575.0454
       159.6064
  16179971.15847  12718594.99846  22778333.7034   22778338.2394
     -4656.8684
    705729.23247    638083.59146  23201417.5074   23201419.2724
     -2442.7734
  23959344.66943  21255910.98645  25358531.7534   25358533.5234
     -5289.4944
  -6441206.09447  -4913914.24546  22175910.1874   22175914.3914
       116.0174
 06  5  7  0 47 45.0030000  0  8G30G 1G 4G25G 5G 2G14G 6
  -1054800.47548   -712195.82147  21121525.4874   21121528.4944
     -2677.4164
   6459525.79046   6588543.33446  24132603.2234   24132608.6384
     -3324.4174
  16073239.22145  12566580.62145  25016127.2514   25016131.8904
     -4581.7494
  -2899584.72647   -761598.15346  23653125.6484   23653130.2344
       152.7534
  16249862.99447  12773056.16346  22791633.7064   22791637.9314
     -4662.0634
    742451.18347    666698.09646  23208405.4684   23208407.2944
     -2453.5124
  24038711.54143  21317755.26445  25373634.8224   25373638.1634
     -5292.7324
  -6442895.66547  -4915230.79046  22175588.6744   22175592.4924
       109.2524
 06  5  7  0 48  0.0030000  0  8G30G 1G 4G25G 5G 2G14G 6
  -1014578.04748   -680853.67847  21129179.5744   21129182.6444
     -2685.5594
   6509459.34746   6627452.61846  24142105.3044   24142109.6154
     -3333.3744
  16142017.59845  12620174.19645  25029215.3134   25029218.7744
     -4588.6434
  -2901825.59347   -763344.27746  23652699.2074   23652703.3994
       146.0354
  16319831.70647  12827577.23046  22804948.3294   22804952.1754
     -4667.0914
    779333.42347    695437.48946  23215423.9354   23215425.4324
     -2464.1034
  24118126.02543  21379636.68745  25388746.8654   25388751.1984
     -5295.8194
  -6444484.74747  -4916469.03446  22175286.2834   22175289.9774
       102.6384
 06  5  7  0 48 15.0030000  0  8G30G 1G 4G25G 5G 2G14G 6
   -974232.97648   -649415.96147  21136856.9964   21136860.2744
     -2693.7744
   6559527.87246   6666467.05746  24151633.0714   24151638.4074
     -3342.4164
  16210899.74645  12673848.62545  25042323.1314   25042326.0954
     -4595.6164
  -2903964.87947   -765011.24746  23652292.0974   23652295.9864
       139.2054
  16389876.31247  12882157.43746  22818277.3944   22818281.3524
     -4672.1904
    816375.17147    724301.18046  23222472.7674   23222474.3284
     -2474.7874
  24197586.97343  21441554.23345  25403867.7854   25403872.1174
     -5298.9444
  -6445973.83747  -4917629.34946  22175002.9094   22175006.6424
        95.9054
 06  5  7  0 48 30.0030000  0  8G30G 1G 4G25G 5G 2G14G 6
   -933765.30448   -617882.70247  21144557.7354   21144561.0684
     -2701.9914
   6609731.04546   6705586.41746  24161186.4534   24161190.8074
     -3351.4174
  16279885.15245  12727603.46545  25055450.6394   25055455.3924
     -4602.5144
  -2906002.41646   -766598.92846  23651904.3324   23651909.0834
       132.3894
  16459996.59647  12936796.60646  22831620.8564   22831625.3014
     -4677.2544
    853576.32947    753289.09046  23229551.9284   23229553.2584
     -2485.4424
  24277093.83243  21503507.67145  25418997.4404   25419000.7074
     -5302.0594
  -6447362.89447  -4918711.70846  22174738.5694   22174742.4854
        89.2224
 06  5  7  0 48 45.0030000  0  8G30G 1G 4G25G 5G 2G14G 6
   -893175.67048   -586254.41647  21152281.6874   21152284.7774
     -2710.0814
   6660068.12246   6744810.12646  24170765.2924   24170769.6154
     -3360.3234
  16348973.19745  12781438.29845  25068597.6834   25068603.1764
     -4609.3354
  -2907938.48547   -768107.54146  23651535.8854   23651540.3034
       125.6414
  16530191.77147  12991494.14146  22844978.5674   22844982.8054
     -4682.2204
    890936.11247    782400.59746  23236661.2764   23236662.4394
     -2495.9934
  24356645.71143  21565496.09645  25434135.6974   25434140.0614
     -5305.0174
  -6448652.43247  -4919716.52946  22174493.1794   22174497.0964
        82.5884
 06  5  7  0 49  0.0030000  0  8G30G 1G 4G25G 5G 2G14G 6
   -852463.61048   -554530.74047  21160028.9284   21160032.0344
     -2718.2214
   6710539.45146   6784138.43646  24180369.6694   24180374.2954
     -3369.2534
  16418163.95045  12835353.21545  25081764.3044   25081769.8404
     -4616.1744
  -2909772.31047   -769536.48346  23651186.8984   23651191.7274
       118.8174
  16600462.31347  13046250.40146  22858350.6174   22858354.4704
     -4687.2404
    928455.18847    811636.23346  23243800.9274   23243802.2664
     -2506.6014
  24436242.94543  21627519.86145  25449282.5494   25449286.8424
     -5307.9994
  -6449841.66147  -4920643.20146  22174266.8734   22174270.6654
        75.9044
 06  5  7  0 49 15.0030000  0  8G30G 1G 4G25G 5G 2G14G 6
   -811629.76648   -522712.16647  21167799.3454   21167802.6564
     -2726.3874
   6761144.15246   6823570.67946  24189999.4094   24190003.7944
     -3378.1584
  16487456.49645  12889347.46345  25094950.2584   25094955.1054
     -4622.9534
  -2911504.23447   -770886.03146  23650857.3054   23650861.2274
       111.9854
  16670807.42447  13101064.76746  22871736.8424   22871740.7184
     -4692.2354
    966132.81547    840995.41446  23250970.7464   23250972.0844
     -2517.2034
  24515884.43943  21689578.17245  25464437.8744   25464443.2844
     -5310.9514
  -6450931.02447  -4921492.03746  22174059.5684   22174063.3804
        69.2024
 06  5  7  0 49 30.0030000  0  8G30G 1G 4G25G 5G 2G14G 6
   -770672.81048   -490797.65447  21175593.1914   21175596.4264
     -2734.4824
   6811883.37046   6863107.73746  24199654.7514   24199658.9634
     -3387.0084
  16556851.88645  12943421.84545  25108155.7184   25108160.1924
     -4629.7034
  -2913132.70047   -772154.96846  23650547.4114   23650551.6724
       105.1874
  16741228.21947  13155938.10046  22885137.4634   22885141.1944
     -4697.1654
   1003970.20047    870479.08946  23258170.9694   23258172.1964
     -2527.7274
  24595571.02043  21751671.59645  25479601.7934   25479607.8504
     -5313.8434
  -6451919.14047  -4922261.99046  22173871.5284   22173875.6444
        62.5674
 06  5  7  0 49 45.0030000  0  8G30G 1G 4G25G 5G 2G14G 6
   -729594.19248   -458788.33947  21183410.1834   21183413.4734
     -2742.7604
   6862755.39646   6902748.28346  24209335.3444   24209338.6364
     -3396.0344
  16626348.34445  12997574.90845  25121380.4144   25121383.5474
     -4636.6264
  -2914658.83746   -773344.15746  23650256.9974   23650261.1304
        98.1894
  16811723.13347  13210869.19046  22898552.1924   22898556.3294
     -4702.2684
   1041965.74947    900085.99946  23265401.2844   23265402.7464
     -2538.4544
  24675300.87443  21813798.72945  25494773.8964   25494780.9264
     -5316.8734
  -6452807.26547  -4922954.02046  22173702.5154   22173706.5284
        55.7214
 06  5  7  0 50  0.0030000  0  8G30G 1G 4G25G 5G 2G14G 6
   -688393.78548   -426684.12647  21191250.3474   21191253.4674
     -2750.7274
   6913760.49846   6942492.50946  24219041.2664   24219045.0984
     -3404.7274
  16695946.01245  13051806.87245  25134624.4024   25134629.5004
     -4643.1934
  -2916081.96447   -774453.07246  23649986.1894   23649990.5194
        91.4744
  16882292.43747  13265858.23946  22911981.0794   22911985.2574
     -4707.0454
   1080119.95047    929816.54046  23272661.7844   23272663.5404
     -2548.8654
  24755074.08443  21875959.62545  25509954.2604   25509958.2794
     -5319.5854
  -6453594.83347  -4923567.68646  22173552.6404   22173556.5654
        49.1864
 06  5  7  0 50 15.0030000  0  8G30G 1G 4G25G 5G 2G14G 6
   -647071.32648   -394484.81947  21199113.7434   21199116.9534
     -2758.8954
   6964898.31246   6982340.14546  24228772.4734   24228776.9044
     -3413.6234
  16765644.52945  13106117.44745  25147887.5684   25147893.1564
     -4649.9304
  -2917401.98947   -775481.65846  23649734.9984   23649739.4804
        84.5344
  16952935.84247  13320905.03646  22925424.0874   22925428.6314
     -4712.0384
   1118432.60347    959670.55946  23279952.4384   23279954.0134
     -2559.4714
  24834890.25943  21938154.03845  25525142.8134   25525152.0604
     -5322.5014
  -6454281.80747  -4924102.97746  22173421.9024   22173425.9334
        42.4304
 06  5  7  0 50 30.0030000  0  8G30G 1G 4G25G 5G 2G14G 6
   -605626.49548   -362190.13947  21207000.4264   21207003.9674
     -2767.0324
   7016169.18746   7022291.47346  24238528.9944   24238533.4804
     -3422.4574
  16835444.02845  13160506.72545  25161169.9944   25161174.2464
     -4656.6054
  -2918618.09446   -776429.25146  23649503.5774   23649508.3954
        77.6564
  17023653.69047  13376009.84746  22938881.2674   22938885.7674
     -4716.9554
   1156904.23747    989648.44646  23287273.3284   23287274.6854
     -2570.0344
  24914749.37843  22000381.84645  25540339.4884   25540345.4144
     -5325.3184
  -6454867.58347  -4924559.41346  22173310.4104   22173314.3184
        35.7164
 06  5  7  0 50 45.0030000  0  8G30G 1G 4G25G 5G 2G14G 6
   -564060.07448   -329800.72147  21214910.2514   21214913.8024
     -2775.2324
   7067572.19146   7062345.76146  24248310.6854   24248315.6804
     -3431.3644
  16905343.42945  13214973.70645  25174471.4134   25174475.5914
     -4663.3894
  -2919730.69546   -777296.20446  23649291.8544   23649296.2094
        70.6314
  17094445.15147  13431172.01846  22952352.4404   22952356.6064
     -4721.9814
   1195534.11247   1019749.64146  23294624.3424   23294626.1004
     -2580.6884
  24994650.43243  22062642.42345  25555544.1664   25555548.2454
     -5328.2354
  -6455352.64247  -4924937.36346  22173218.0914   22173222.1174
        28.8754
 06  5  7  0 51  0.0030000  0  8G30G 1G 4G25G 5G 2G14G 6
   -522369.91548   -297314.88647  21222843.6234   21222847.1964
     -2783.4664
   7119109.51146   7102504.71346  24258117.9324   24258123.3664
     -3440.2874
  16975345.02345  13269520.45845  25187792.2654   25187796.0294
     -4670.1524
  -2920737.21447   -778080.47946  23649100.3184   23649104.8614
        63.5704
  17165312.41447  13486393.25046  22965838.0414   22965842.5044
     -4727.0034
   1234324.50647   1049975.92146  23302005.9014   23302007.8134
     -2591.3694
  25074595.53243  22124937.28545  25570757.2434   25570763.4434
     -5331.1244
  -6455734.53447  -4925234.93246  22173145.3944   22173149.2374
        22.0194
 06  5  7  0 51 15.0030000  0  8G30G 1G 4G25G 5G 2G14G 6
   -480557.42748   -264733.73247  21230800.2714   21230803.5184
     -2791.5974
   7170779.10646   7142766.71946  24267950.3524   24267955.4414
     -3449.0674
  17045446.69545  13324145.18045  25201132.1734   25201135.2684
     -4676.8114
  -2921639.10046   -778783.24346  23648928.6834   23648933.7614
        56.6184
  17236253.63847  13541672.11746  22979337.7154   22979341.7764
     -4731.8954
   1273273.54747   1080325.81646  23309417.6474   23309420.2554
     -2601.9044
  25154582.46343  22187264.71445  25585978.2544   25585985.2964
     -5333.8654
  -6456014.85347  -4925453.35646  22173092.0294   22173096.2854
        15.2704
 06  5  7  0 51 30.0030000  0  8G30G 1G 4G25G 5G 2G14G 6
   -438623.01748   -232057.57147  21238780.1254   21238783.4814
     -2799.6544
   7222580.59346   7183131.50346  24277807.8664   24277813.1674
     -3457.7864
  17115647.75345  13378847.29945  25214490.9774   25214495.1544
     -4683.3434
  -2922436.34147   -779404.45446  23648776.9604   23648781.0694
        49.6834
  17307268.43147  13597008.31446  22992851.3904   22992855.2614
     -4736.7324
   1312380.97247   1110799.12546  23316859.5384   23316862.1834
     -2612.4054
  25234610.76843  22249624.44145  25601207.1244   25601211.6534
     -5336.5654
  -6456193.56447  -4925592.59547  22173057.9974   22173061.9624
         8.5684
 06  5  7  0 51 45.0030000  0  8G30G 1G 4G25G 5G 2G14G 6
   -396568.78848   -199288.04447  21246782.7904   21246786.0674
     -2807.6734
   7274511.65346   7223597.26746  24287690.0434   24287694.2514
     -3466.4734
  17185946.28845  13433625.39945  25227868.3414   25227872.9964
     -4689.8844
  -2923130.71147   -779945.50446  23648644.7924   23648648.5794
        42.7814
  17378354.56847  13652400.10046  23006378.6414   23006382.6744
     -4741.5294
   1351644.56047   1141394.12046  23324331.1514   23324332.7944
     -2622.8554
  25314677.83943  22312014.33445  25616443.4044   25616449.1484
     -5339.1494
  -6456272.66547  -4925654.21146  22173042.9284   22173046.9254
         1.8794
 06  5  7  0 52  0.0030000  0  8G30G 1G 4G25G 5G 2G14G 6
   -354392.99448   -166423.78347  21254808.5814   21254811.8084
     -2815.8644
   7326574.14946   7264165.45446  24297597.2274   24297600.8944
     -3475.2914
  17256343.46145  13488480.42845  25241264.4914   25241268.5884
     -4696.5034
  -2923719.92147   -780404.61346  23648532.6514   23648537.0394
        35.6944
  17449513.81047  13707848.84846  23019919.7834   23019923.9984
     -4746.4744
   1391066.33847   1172112.39046  23331832.8714   23331834.8994
     -2633.4664
  25394785.39743  22374435.80345  25631687.3954   25631692.3754
     -5341.9174
  -6456250.02847  -4925636.54846  22173047.2134   22173051.0824
        -4.9874
 06  5  7  0 52 15.0030000  0  8G30G 1G 4G25G 5G 2G14G 6
   -312093.33048   -133463.00347  21262857.9334   21262861.2644
     -2824.0414
   7378769.95346   7304837.50446  24307529.7614   24307533.7344
     -3484.1064
  17326841.19645  13543413.76845  25254679.7474   25254682.9014
     -4703.1534
  -2924201.63247   -780779.96146  23648440.9814   23648445.0114
        28.5824
  17520748.16547  13763356.11746  23033475.2214   23033479.6694
     -4751.4044
   1430648.33147   1202955.50146  23339365.0674   23339366.7304
     -2644.0874
  25474935.15643  22436890.10345  25646939.3914   25646943.2344
     -5344.6574
  -6456123.41047  -4925537.87446  22173071.2834   22173075.1954
       -11.8634
 06  5  7  0 52 30.0030000  0  8G30G 1G 4G25G 5G 2G14G 6
   -269671.75548   -100407.23147  21270930.4724   21270933.7604
     -2832.0974
   7431096.93846   7345611.77246  24317487.2604   24317491.1354
     -3492.7514
  17397437.17845  13598423.60245  25268113.7084   25268118.7924
     -4709.6024
  -2924577.55547   -781072.87746  23648369.4514   23648373.3264
        21.6064
  17592055.57947  13818920.32446  23047044.5574   23047048.6944
     -4756.1934
   1470388.55647   1233921.89346  23346927.3914   23346929.3014
     -2654.5424
  25555124.90843  22499375.62545  25662199.0064   25662206.6584
     -5347.2264
  -6455894.44347  -4925359.43946  22173114.8324   22173118.7634
       -18.5984
 06  5  7  0 52 45.0040000  0  8G30G 1G 4G25G 5G 2G14G 6
   -227125.25748    -67254.12347  21279026.7914   21279030.2284
     -2840.3474
   7483558.57846   7386490.97546  24327470.3664   24327473.5024
     -3501.6144
  17468136.35845  13653513.83245  25281567.3164   25281571.9774
     -4716.2804
  -2924847.14447   -781282.94046  23648318.1454   23648322.1334
        14.3944
  17663440.92547  13874545.25246  23060628.7324   23060633.3534
     -4761.1654
   1510289.75447   1265013.73046  23354520.3394   23354521.9264
     -2665.2134
  25635359.82943  22561896.29745  25677467.1944   25677470.4634
     -5349.9584
  -6455562.91647  -4925101.10347  22173177.9134   22173181.8474
       -25.5564
 06  5  7  0 53  0.0040000  0  8G30G 1G 4G25G 5G 2G14G 6
   -184461.16848    -34009.37947  21287145.4874   21287148.9344
     -2848.2834
   7536146.11546   7427468.27046  24337477.3944   24337480.9734
     -3510.1364
  17538927.22845  13708675.61445  25295038.3804   25295044.0174
     -4722.5964
  -2925011.73747   -781411.17546  23648286.8244   23648291.1114
         7.4774
  17734892.83947  13930222.05146  23074225.5734   23074229.6424
     -4765.8304
   1550344.98547   1296225.59846  23362142.6034   23362144.3424
     -2675.5514
  25715627.24243  22624442.36845  25692741.5624   25692741.3434
     -5352.3884
  -6455130.18547  -4924763.89647  22173260.2484   22173264.0314
       -32.2024
 06  5  7  0 53 15.0040000  0  8G30G 1G 4G25G 5G 2G14G 6
   -141674.74648      -669.31247  21295287.4584   21295290.8484
     -2856.5684
   7588864.69346   7468547.66846  24347509.4024   24347513.1124
     -3519.0074
  17609816.07745  13763913.67445  25308528.0724   25308532.5374
     -4729.2544
  -2925069.24647   -781455.98846  23648275.8734   23648280.0324
         0.1784
  17806417.92247  13985955.86946  23087836.3434   23087840.9104
     -4770.8484
   1590558.75847   1327561.00446  23369795.0324   23369796.7494
     -2686.2874
  25795934.01043  22687018.97345  25708023.4464   25708028.1544
     -5355.1884
  -6454594.33147  -4924346.34447  22173362.2074   22173366.1244
       -39.2444
 06  5  7  0 53 30.0040000  0  8G30G 1G 4G25G 5G 2G14G 6
    -98766.27648     32765.85947  21303452.6574   21303456.6254
     -2864.6304
   7641713.89746   7509728.88846  24357566.2874   24357569.9314
     -3527.6184
  17680802.46445  13819227.76545  25322036.3434   25322040.0804
     -4735.6204
  -2925019.44447   -781417.16246  23648285.3444   23648289.1284
        -6.8884
  17878015.78547  14041746.39346  23101460.9724   23101465.2414
     -4775.5924
   1630930.86247   1359019.78846  23377477.5914   23377478.9544
     -2696.7294
  25876279.75543  22749626.01345  25723312.7204   25723321.0374
     -5357.6624
  -6453955.18147  -4923848.28647  22173483.8144   22173487.7854
       -46.0394
 06  5  7  0 53 45.0040000  0  8G30G 1G 4G25G 5G 2G14G 6
    -55735.70948     66296.17247  21311641.0924   21311644.8524
     -2872.7974
   7694693.53946   7551011.71546  24367647.9814   24367652.4114
     -3536.3354
  17751886.12845  13874617.63645  25335563.0674   25335568.9824
     -4742.1744
  -2924862.17147   -781294.59646  23648315.2614   23648319.9114
       -14.0854
  17949686.23747  14097593.47246  23115099.4084   23115103.7844
     -4780.4604
   1671461.10347   1390601.78746  23385190.2364   23385192.3844
     -2707.3004
  25956663.73443  22812262.86145  25738609.3304   25738614.9474
     -5360.2124
  -6453212.64647  -4923269.68246  22173625.0994   22173629.4454
       -52.9384
 06  5  7  0 54  0.0040000  0  8G30G 1G 4G25G 5G 2G14G 6
    -12583.89748     99920.96147  21319852.6014   21319856.2374
     -2880.7984
   7747802.79546   7592395.54046  24377754.3544   24377758.5494
     -3544.8974
  17823066.23045  13930082.69945  25349108.1304   25349113.0124
     -4748.5174
  -2924597.70747   -781088.49646  23648365.5684   23648369.7034
       -21.1634
  18021428.69647  14153496.68546  23128751.5434   23128756.1864
     -4785.1824
   1712148.90047   1422306.55446  23392932.8744   23392935.2674
     -2717.7344
  26037085.18743  22874928.93045  25753913.0754   25753917.2484
     -5362.6264
  -6452367.33347  -4922610.98547  22173785.9504   22173790.1624
       -59.7544
 06  5  7  0 54 15.0040000  0  8G30G 1G 4G25G 5G 2G14G 6
     30690.59148    133641.33947  21328087.4594   21328091.0504
     -2889.0734
   7801042.59846   7633881.10946  24387885.5564   24387889.7484
     -3553.6914
  17894343.69245  13985623.64045  25362671.7594   25362676.8714
     -4755.0854
  -2924224.64947   -780797.79646  23648436.5494   23648440.9974
       -28.5154
  18093244.06347  14209456.69346  23142417.5544   23142422.2014
     -4790.1434
   1752995.32747   1454134.93846  23400705.7004   23400708.2384
     -2728.3994
  26117544.84443  22937624.72345  25769224.0654   25769230.0314
     -5365.2604
  -6451417.81347  -4921871.08647  22173966.6324   22173971.0754
       -66.7934
 06  5  7  0 54 30.0040000  0  8G30G 1G 4G25G 5G 2G14G 6
     74087.19648    167456.86947  21336345.5604   21336349.0884
     -2897.1154
   7854412.36746   7675467.93646  24398041.4934   24398045.7964
     -3562.2584
  17965717.55445  14041239.62545  25376253.7164   25376258.6964
     -4761.4114
  -2923743.14947   -780422.59846  23648528.1744   23648532.9094
       -35.6804
  18165131.75447  14265473.06946  23156097.3484   23156101.7624
     -4794.8694
   1793999.88147   1486086.52946  23408508.6304   23408511.0594
     -2738.8614
  26198042.18543  23000349.92045  25784542.2234   25784548.6564
     -5367.6744
  -6450364.28247  -4921050.14046  22174167.0994   22174171.3914
       -73.6464
 06  5  7  0 54 45.0040000  0  8G30G 1G 4G25G 5G 2G14G 6
    117604.00048    201366.06647  21344626.5414   21344630.2374
     -2905.2884
   7907909.98746   7717154.39946  24408221.7594   24408225.8674
     -3570.9184
  18037185.82445  14096929.22045  25389853.6754   25389858.0614
     -4767.8434
  -2923154.78047   -779964.11046  23648640.1314   23648644.4184
       -42.9544
  18237089.76647  14321544.24646  23169790.5084   23169795.0904
     -4799.7004
   1835160.65747   1518159.86446  23416341.2794   23416343.2664
     -2749.4114
  26278574.72242  23063102.48745  25799866.9874   25799870.4264
     -5370.1614
  -6449208.53647  -4920149.54346  22174387.0114   22174391.6574
       -80.6204
 06  5  7  0 55  0.0040000  0  8G30G 1G 4G25G 5G 2G14G 6
    161243.74148    235371.05147  21352930.9184   21352934.3544
     -2913.3374
   7961538.01546   7758942.44546  24418426.8904   24418431.1024
     -3579.4924
  18108750.74345  14152694.11045  25403472.0204   25403476.8174
     -4774.1714
  -2922456.45747   -779419.94146  23648773.0174   23648777.0494
       -50.1784
  18309120.79847  14377672.30346  23183497.5604   23183502.4424
     -4804.4434
   1876480.33347   1550357.01446  23424204.1684   23424205.7744
     -2759.8904
  26359145.01942  23125884.53144  25815198.9574   25815204.4884
     -5372.5224
  -6447947.60647  -4919166.98547  22174626.9554   22174631.6724
       -87.5084
 06  5  7  0 55 15.0040000  0  8G30G 1G 4G25G 5G 2G14G 6
    205004.72748    269470.51847  21361258.3774   21361261.6494
     -2921.3844
   8015294.67946   7800830.75946  24428656.5064   24428660.1804
     -3587.9924
  18180410.79245  14208533.08745  25417108.4634   25417114.1914
     -4780.4394
  -2921649.57247   -778791.16946  23648926.5664   23648930.7624
       -57.3564
  18381223.09047  14433855.89746  23197218.1604   23197222.4724
     -4809.1324
   1917957.23447   1582676.67246  23432096.9744   23432098.8514
     -2770.3004
  26439751.07042  23188694.39645  25830537.8224   25830539.5704
     -5374.8484
  -6446582.93247  -4918103.58847  22174886.6284   22174891.0954
       -94.3504
 06  5  7  0 55 30.0040000  0  8G30G 1G 4G25G 5G 2G14G 6
    248886.60748    303664.19047  21369608.8364   21369611.9274
     -2929.5114
   8069179.19746   7842818.68846  24438910.3884   24438914.2734
     -3596.6014
  18252164.81145  14264445.28845  25430762.7694   25430767.1034
     -4786.7814
  -2920734.41547   -778078.05146  23649100.7254   23649104.9744
       -64.6684
  18453395.95547  14490094.48746  23210952.1984   23210956.5524
     -4813.9134
   1959590.67547   1615118.31446  23440019.5594   23440021.0704
     -2780.8184
  26520392.07643  23251531.58345  25845883.3414   25845887.1574
     -5377.2424
  -6445114.93847  -4916959.67647  22175165.9704   22175170.2964
      -101.3474
 06  5  7  0 55 45.0040000  0  8G30G 1G 4G25G 5G 2G14G 6
    292888.94648    337951.72447  21377982.2164   21377985.0284
     -2937.5824
   8123191.19346   7884905.94546  24449188.5304   24449193.0014
     -3605.1334
  18324012.54945  14320430.51245  25444434.9194   25444439.7714
     -4793.0484
  -2919710.76447   -777280.39546  23649295.5194   23649299.9054
       -71.9564
  18525639.08747  14546387.82346  23224699.6234   23224704.0224
     -4818.6224
   2001380.54747   1647681.83246  23447971.9044   23447973.4024
     -2791.2934
  26601067.51542  23314395.51645  25861235.3474   25861240.2104
     -5379.5924
  -6443543.60747  -4915735.25347  22175464.9734   22175469.3714
      -108.2794
 06  5  7  0 56  0.0040000  0  8G30G 1G 4G25G 5G 2G14G 6
    337013.10748    372334.19047  21386378.7704   21386381.6074
     -2945.6664
   8177331.79046   7927093.42746  24459491.1504   24459494.8384
     -3613.6324
  18395954.97545  14376489.52645  25458125.0974   25458129.9624
     -4799.3024
  -2918577.14847   -776397.05246  23649511.2454   23649515.6984
       -79.2294
  18597953.65147  14602736.83146  23238460.6334   23238465.0874
     -4823.3524
   2043328.09547   1680368.23746  23455954.2394   23455956.1584
     -2801.7454
  26681778.34142  23377286.97345  25876594.1524   25876597.6554
     -5381.8744
  -6441867.40147  -4914429.10847  22175783.9294   22175788.2424
      -115.2224
 06  5  7  0 56 15.0040000  0  8G30G 1G 4G25G 5G 2G14G 6
    381257.95048    406810.69047  21394798.2934   21394801.0574
     -2953.6794
   8231599.53046   7969379.97446  24469817.9274   24469822.3634
     -3622.1124
  18467990.66145  14432621.23645  25471833.0104   25471838.4354
     -4805.5324
  -2917334.39647   -775428.66246  23649747.7354   23649751.8294
       -86.5264
  18670338.37947  14659140.50746  23252235.0014   23252239.2064
     -4827.9904
   2085432.09447   1713176.53146  23463966.3474   23463968.2034
     -2812.1834
  26762523.00142  23440204.94045  25891959.3634   25891960.7464
     -5384.1244
  -6440087.37347  -4913042.07447  22176122.6484   22176126.7824
      -122.1584
 06  5  7  0 56 30.0040000  0  8G30G 1G 4G25G 5G 2G14G 6
    425625.39248    441382.72147  21403241.1404   21403243.8644
     -2961.9064
   8285996.26146   8011767.02046  24480169.2754   24480173.5624
     -3630.7284
  18540121.17545  14488826.82645  25485558.9944   25485562.3834
     -4811.8544
  -2915980.23747   -774373.46146  23650005.4204   23650009.3934
       -93.9864
  18742795.11847  14715600.30246  23266023.0674   23266027.7584
     -4832.8274
   2127694.36447   1746108.17446  23472008.5944   23472010.5814
     -2822.7434
  26843303.15242  23503150.45645  25907331.3414   25907337.6654
     -5386.4954
  -6438201.45147  -4911572.50547  22176481.5174   22176485.7654
      -129.2444
 06  5  7  0 56 45.0040000  0  8G30G 1G 4G25G 5G 2G14G 6
    470114.76348    476049.76147  21411707.1914   21411710.1104
     -2969.9364
   8340520.86546   8054253.70946  24490544.9364   24490548.7144
     -3639.1444
  18612345.51345  14545105.49745  25499302.8304   25499308.2494
     -4818.0004
  -2914515.38347   -773232.00346  23650284.1654   23650288.0734
      -101.2664
  18815322.83347  14772115.39146  23279824.6364   23279828.9404
     -4837.4564
   2170113.91247   1779162.35846  23480080.7784   23480082.6874
     -2833.1334
  26924117.54842  23566122.61745  25922709.8264   25922715.9524
     -5388.6694
  -6436210.33747  -4910020.98547  22176860.4054   22176864.7954
      -136.1544
 06  5  7  0 57  0.0040000  0  8G30G 1G 4G25G 5G 2G14G 6
    514723.70248    510809.97547  21420195.9904   21420199.4444
     -2977.9344
   8395171.23946   8096838.40846  24500944.5354   24500949.0574
     -3647.5534
  18684661.39345  14601455.55645  25513064.0664   25513069.3744
     -4824.1134
  -2912941.38947   -772005.50546  23650583.6774   23650587.7984
      -108.5964
  18887919.41747  14828684.14646  23293639.3014   23293643.7454
     -4842.0874
   2212688.84647   1812337.63246  23488182.5464   23488184.6954
     -2843.5194
  27004963.86643  23629119.81245  25938094.4374   25938099.5294
     -5390.8554
  -6434115.73947  -4908388.84047  22177258.9884   22177263.3184
      -143.1144
 06  5  7  0 57 15.0040000  0  8G30G 1G 4G25G 5G 2G14G 6
    559453.21648    545664.13647  21428707.7444   21428711.2534
     -2986.0034
   8449947.87246   8139521.49446  24511368.1434   24511372.2334
     -3655.9894
  18757069.29245  14657877.29545  25526842.8044   25526846.3994
     -4830.2694
  -2911257.23347   -770693.16346  23650904.1534   23650907.7934
      -115.9664
  18960585.60547  14885307.13546  23307467.2134   23307471.8264
     -4846.7344
   2255419.73247   1845634.43246  23496313.9794   23496315.3054
     -2853.9394
  27085842.62343  23692142.18945  25953485.2734   25953490.7254
     -5392.9864
  -6431916.77547  -4906675.36247  22177677.4354   22177681.4714
      -150.0904
 06  5  7  0 57 30.0040000  0  8G30G 1G 4G25G 5G 2G14G 6
    604303.69948    580612.56547  21437242.5074   21437246.0554
     -2994.0604
   8504851.01246   8182303.15046  24521815.8714   24521819.5914
     -3664.4264
  18829569.49745  14714370.94845  25540639.1044   25540643.6064
     -4836.4464
  -2909462.24647   -769294.47446  23651245.7234   23651249.5854
      -123.3744
  19033321.67647  14941984.58346  23321308.4404   23321312.9374
     -4851.4174
   2298307.06547   1879053.13646  23504475.1754   23504476.5104
     -2864.3694
  27166753.91342  23755189.93645  25968882.1914   25968887.0294
     -5395.1704
  -6429612.78847  -4904880.03447  22178115.8794   22178119.6704
      -157.1034
 06  5  7  0 57 45.0040000  0  8G30G 1G 4G25G 5G 2G14G 6
    649276.18248    615656.05347  21445800.4894   21445803.9764
     -3002.2574
   8559881.52746   8225184.06146  24532287.8184   24532292.5804
     -3672.9804
  18902162.75845  14770937.13745  25554453.1114   25554458.7784
     -4842.6554
  -2907554.97047   -767808.27546  23651608.6604   23651612.7144
      -130.9294
  19106128.59947  14998717.25046  23335163.1514   23335167.4194
     -4856.1914
   2341351.69447   1912594.39646  23512666.2954   23512667.9934
     -2874.9224
  27247698.47342  23818263.61845  25984285.4334   25984292.3184
     -5397.4274
  -6427202.55747  -4903001.93347  22178574.5364   22178578.6624
      -164.2574
 06  5  7  0 58  0.0040000  0  8G30G 1G 4G25G 5G 2G14G 6
    694370.33148    650794.34947  21454381.6254   21454385.0464
     -3010.2394
   8615039.06146   8268163.94346  24542783.9484   24542788.6004
     -3681.2924
  18974848.49545  14827575.36845  25568284.7264   25568290.4814
     -4848.6764
  -2905535.35847   -766234.55646  23651992.9794   23651997.1114
      -138.2844
  19179006.01547  15055504.83546  23349031.2854   23349035.4824
     -4860.7404
   2384553.52547   1946258.14346  23520887.3394   23520889.2684
     -2885.2574
  27328675.80742  23881362.67445  25999694.9424   25999699.9444
     -5399.4884
  -6424686.23047  -4901041.15647  22179053.3914   22179057.2774
      -171.1914
 06  5  7  0 58 15.0040000  0  8G30G 1G 4G25G 5G 2G14G 6
    739584.43648    686026.11547  21462985.5924   21462989.1184
     -3018.3154
   8670321.56546   8311241.21446  24553303.8834   24553308.1304
     -3689.6934
  19047624.50845  14884283.90245  25582133.5404   25582137.1384
     -4854.8224
  -2903404.96147   -764574.50746  23652398.3874   23652402.4014
      -145.7714
  19251952.00747  15112345.86246  23362912.4644   23362916.6784
     -4865.3814
   2427910.52847   1980042.82046  23529137.9024   23529139.8484
     -2895.6824
  27409683.72043  23944485.75945  26015110.3194   26015113.5194
     -5401.5654
  -6422065.31747  -4898998.87547  22179552.1384   22179556.2094
      -178.2464
 06  5  7  0 58 30.0040000  0  8G30G 1G 4G25G 5G 2G14G 6
    784919.74748    721352.32347  21471612.6314   21471616.3464
     -3026.3814
   8725730.10946   8354416.70946  24563847.7984   24563852.1334
     -3698.0774
  19120492.00245  14941063.77045  25595999.7744   25596005.8024
     -4860.8494
  -2901162.15347   -762826.84946  23652825.1804   23652829.3574
      -153.2494
  19324967.74947  15169241.24246  23376806.9054   23376811.1504
     -4870.0114
   2471424.01047   2013949.41846  23537418.2444   23537419.9844
     -2906.0914
  27490723.25642  24007633.43845  26030531.6004   26030535.7074
     -5403.6604
  -6419338.38447  -4896873.99147  22180071.0664   22180075.0744
      -185.3104
 06  5  7  0 58 45.0040000  0  7G30G 1G 4G25G 5G 2G 6
    830375.90348    756772.70347  21480262.6714   21480266.2234
     -3034.4234
   8781264.02446   8397689.87046  24574415.5764   24574419.7014
     -3706.4114
  19193450.23345  14997914.30845  25609883.2864   25609887.8404
     -4866.8884
  -2898807.13247   -760991.75346  23653273.3304   23653277.3824
      -160.7314
  19398052.66047  15226190.51846  23390714.5104   23390718.8934
     -4874.6144
   2515093.48047   2047977.57746  23545728.2564   23545730.5334
     -2916.4754
  -6416505.72347  -4894666.72147  22180610.1164   22180613.9844
      -192.3384
 06  5  7  0 59  0.0040000  0  7G30G 1G 4G25G 5G 2G 6
    875952.40048    792286.85147  21488935.6004   21488938.9224
     -3042.4174
   8836922.72246   8441060.28846  24585007.0964   24585011.2394
     -3714.6974
  19266498.66045  15054835.14645  25623783.9664   25623788.9914
     -4872.8544
  -2896340.00647   -759069.31646  23653742.8054   23653746.7264
      -168.1924
  19471206.23647  15283193.29646  23404635.1814   23404639.3274
     -4879.1524
   2558918.39447   2082126.84746  23554067.8574   23554070.6024
     -2926.8144
  -6413567.50647  -4892377.19747  22181169.2544   22181172.8484
      -199.3734
 06  5  7  0 59 15.0040000  0  7G30G 1G 4G25G 5G 2G 6
    921648.62748    827894.29747  21497631.3134   21497634.2044
     -3050.3104
   8892705.23546   8484527.17346  24595622.1474   24595626.2444
     -3722.8744
  19339636.14545  15111825.34545  25637701.6244   25637706.3154
     -4878.7004
  -2893761.21547   -757059.86346  23654233.5344   23654237.4104
      -175.5594
  19544427.66747  15340248.96046  23418568.7664   23418573.0594
     -4883.6004
   2602897.96747   2116396.63246  23562436.8944   23562439.2994
     -2937.0324
  -6410524.34447  -4890005.90247  22181748.3554   22181751.8274
      -206.2954
 06  5  7  0 59 30.0040000  0  7G30G 1G 4G25G 5G 2G 6
    967463.32548    863594.06447  21506349.5694   21506352.4544
     -3058.2774
   8948610.45846   8528089.65946  24606260.5454   24606265.3304
     -3731.0964
  19412861.46445  15168884.02645  25651635.9784   25651639.5304
     -4884.5954
  -2891071.46147   -754963.93846  23654745.3844   23654748.9874
      -183.0274
  19617715.83747  15397356.61146  23432515.0504   23432519.1374
     -4888.1064
   2647031.14247   2150786.11546  23570835.1644   23570836.7574
     -2947.3384
  -6407376.99147  -4887553.41747  22182347.2704   22182350.6934
      -213.3064
 06  5  7  0 59 45.0040000  0  7G30G 1G 4G25G 5G 2G 6
   1013398.71548    899387.87147  21515090.7944   21515094.0884
     -3066.4094
   9004640.16246   8571749.16746  24616922.6544   24616928.3294
     -3739.4884
  19486176.35345                  25665587.3714
     -4890.6674
  -2888268.36047   -752779.70446  23655278.7974   23655281.9674
      -190.6854
  19691072.64347  15454517.75446  23446474.3944   23446478.6964
     -4892.7734
   2691319.94247   2185296.85946  23579263.0504   23579264.5574
     -2957.8074
  -6404123.31947  -4885018.07947  22182966.4154   22182969.7704
      -220.5064
 06  5  7  1  0  0.0040000  0  7G30G 1G 4G25G 5G 2G 6
   1059454.89048    935275.79447  21523855.0094   21523858.1434
     -3074.5184
   9060794.33846   8615505.65246  24627608.4434   24627613.3864
     -3747.8424
  19559580.78145                  25679555.7684
     -4896.6854
  -2885351.45747   -750506.80646  23655833.8724   23655837.3544
      -198.3394
  19764498.27347  15511732.52546  23460446.8484   23460451.5574
     -4897.4094
   2735764.44647   2219928.93146  23587720.5644   23587722.2854
     -2968.2464
  -6400762.80447  -4882399.49147  22183605.8894   22183609.4744
      -227.6654
 06  5  7  1  0 15.0040000  0  7G30G 1G 4G25G 5G 2G 6
   1105631.09448    971257.25347  21532642.0504   21532644.9654
     -3082.3344
   9117072.00446   8659358.35746  24638317.7424   24638323.2994
     -3755.9134
  19633073.71345                  25693540.9994
     -4902.4134
  -2882321.29147   -748145.61746  23656410.4974   23656413.7724
      -205.7504
  19837991.63347  15569000.07946  23474432.1644   23474436.7584
     -4901.7844
   2780363.80147   2254681.66946  23596207.5354   23596209.4054
     -2978.4104
  -6397296.22247  -4879698.24647  22184265.5474   22184269.0654
      -234.5974
 06  5  7  1  0 30.0040000  0  7G30G 1G 4G25G 5G 2G 6
   1151926.57648   1007331.65847  21541451.7854   21541454.9834
     -3090.4004
   9173472.32046   8703306.63846  24649050.3884   24649055.1484
     -3764.1604
  19706654.25645                  25707542.9214
     -4908.3224
  -2879178.15947   -745696.41846  23657008.6164   23657012.3584
      -213.3594
  19911552.09647  15626319.89646  23488430.2674   23488434.5044
     -4906.3244
   2825117.33547   2289554.54646  23604723.8484   23604725.7784
     -2988.7504
  -6393723.92047  -4876914.63347  22184945.3304   22184949.0344
      -241.7274
 06  5  7  1  0 45.0040000  0  7G30G 1G 4G25G 5G 2G 6
   1198342.79548   1043500.13547  21550284.4954   21550287.3954
     -3098.4104
   9229996.46346   8747351.42646  24659806.5774   24659810.7794
     -3772.3814
  19780323.39045                  25721561.7124
     -4914.2024
  -2875920.42547   -743157.92846  23657628.5464   23657632.2724
      -220.9894
  19985180.96147  15683693.03746  23502441.3954   23502445.9954
     -4910.8474
   2870026.32447   2324548.54846  23613269.7434   23613271.9914
     -2999.0854
  -6390044.41147  -4874047.48247  22185645.5144   22185649.0804
      -248.8574
 06  5  7  1  1  0.0040000  0  7G30G 1G 4G25G 5G 2G 6
   1244879.35248   1079762.38147  21559140.1064   21559142.9254
     -3106.4314
   9286643.73746   8791492.14346  24670586.2094   24670590.4804
     -3780.5594
  19854080.38545                  25735597.2224
     -4920.0514
  -2872548.33747   -740530.32846  23658270.2314   23658273.8364
      -228.6074
  20058877.56047  15741118.96146  23516465.3994   23516469.6764
     -4915.3414
   2915090.14747   2359663.21046  23621845.1074   23621846.5094
     -3009.3794
  -6386258.05847  -4871097.08147  22186366.0304   22186369.7524
      -255.9634
 06  5  7  1  1 15.0040000  0  7G30G 1G 4G25G 5G 2G 6
   1291535.87848   1116118.11947  21568018.5494   21568021.3304
     -3114.4144
   9343413.66146   8835728.45246  24681389.1994   24681393.9574
     -3788.7254
  19927924.62045                  25749649.3224
     -4925.8344
  -2869061.81547   -737813.55246  23658933.6964   23658937.3134
      -236.2324
  20132641.54347  15798597.38946  23530502.2074   23530506.5544
     -4919.8284
   2960308.41547   2394898.21646  23630449.8624   23630451.1404
     -3019.6894
  -6382364.98047  -4868063.49947  22187106.8414   22187110.3474
      -263.0914
 06  5  7  1  1 30.0040000  0  7G30G 1G 4G25G 5G 2G 6
   1338311.58848   1152566.72147  21576919.6804   21576922.9314
     -3122.3684
   9400305.34746   8880059.62846  24692215.3464   24692219.9954
     -3796.8484
  20001855.28745     23047.15245  25763717.8804   25763724.5594
     -4931.6104
  -2865461.26747   -735007.91546  23659618.8344   23659623.2884
      -243.8494
  20206472.05047  15856127.64646  23544551.6764   23544556.9214
     -4924.2674
   3005680.51347   2430253.09746  23639083.8834   23639085.6154
     -3029.9494
  -6378365.59347  -4864947.08547  22187867.8894   22187871.5884
      -270.1804
 06  5  7  1  1 45.0040000  0  7G30G 1G 4G25G 5G 2G 6
   1385206.26848   1189108.02647  21585843.4504   21585846.6244
     -3130.3474
   9457318.33346   8924485.33946  24703064.5714   24703067.7474
     -3804.9724
  20075872.09845     80722.56545  25777802.7664   25777809.4294
     -4937.3674
  -2861746.70947   -732113.44946  23660325.6564   23660329.7114
      -251.5234
  20280368.79947  15913709.52146  23558613.7594   23558618.1844
     -4928.7314
   3051205.99947   2465727.50246  23647747.0914   23647748.8814
     -3040.2184
  -6374260.01847  -4861747.92447  22188649.1514   22188652.7064
      -277.3124
 06  5  7  1  2  0.0040000  0  7G30G 1G 4G25G 5G 2G 6
   1432221.25848   1225743.09047  21594790.1094   21594793.2264
     -3138.2854
   9514453.72946   8969006.40346  24713937.0884   24713940.8004
     -3813.0264
  20149975.81945    138465.72645  25791904.2414   25791909.5324
     -4943.0874
  -2857916.36747   -729128.77246  23661054.5214   23661058.3244
      -259.1514
  20354333.03347  15971343.99346  23572688.6904   23572693.4844
     -4933.1164
   3096886.28647   2501322.51046  23656439.7744   23656441.4594
     -3050.4394
  -6370046.67847  -4858464.80047  22189450.9254   22189454.9874
      -284.4194
 06  5  7  1  2 15.0040000  0  7G30G 1G 4G25G 5G 2G 6
   1479355.06348   1262470.72447  21603759.3814   21603762.6274
     -3146.1554
   9571710.00246   9013621.71246  24724832.5904   24724836.9354
     -3821.0434
  20224164.96945    196275.40345  25806021.9824   25806027.4264
     -4948.7184
  -2853971.38847   -726054.73446  23661805.1934   23661808.9754
      -266.7614
  20428363.22647  16029029.85046  23586776.1904   23586780.5814
     -4937.4864
   3142719.90547   2537037.00546  23665161.6284   23665163.3594
     -3060.6214
  -6365726.87047  -4855098.71047  22190272.9554   22190276.9804
      -291.4824
 06  5  7  1  2 30.0040000  0  7G30G 1G 4G25G 5G 2G 6
   1526607.47948   1299290.78447  21612751.2244   21612754.0714
     -3154.1384
   9629086.55746   9058330.69046  24735750.9884   24735755.5184
     -3829.1294
  20298438.75745    254151.07945  25820155.8494   25820161.2084
     -4954.4554
  -2849911.88947   -722891.49146  23662577.6634   23662580.8604
      -274.4624
  20502458.90747  16086766.73546  23600876.1724   23600880.7384
     -4941.9094
   3188706.27047   2572870.52146  23673912.5714   23673914.4444
     -3070.8634
  -6361300.74147  -4851649.76747  22191115.2144   22191119.0444
      -298.6344
 06  5  7  1  2 45.0040000  0  7G30G 1G 4G25G 5G 2G 6
   1573978.76448   1336203.47147  21621765.6934   21621768.5324
     -3162.0054
   9686583.33146   9103133.36046  24746692.2674   24746694.8654
     -3837.0904
  20372797.19745    312092.65445  25834305.8334   25834310.5004
     -4960.0264
  -2845737.36747   -719638.61346  23663372.0174   23663375.2144
      -282.1044
  20576620.24647  16144554.78846  23614988.6424   23614993.1004
     -4946.2284
   3234845.53747   2608823.18946  23682692.6004   23682694.3234
     -3081.0114
  -6356767.89547  -4848117.68047  22191977.7854   22191981.7134
      -305.7254
 06  5  7  1  3  0.0040000  0  7G30G 1G 4G25G 5G 2G 6
   1621468.02348   1373208.09047  21630802.6094   21630805.2864
     -3169.8824
   9744199.35646   9148028.94946  24757656.2254   24757660.2334
     -3845.0344
  20447239.43345    370099.59545  25848471.7674   25848477.1874
     -4965.5754
  -2841448.29347   -716296.46846  23664188.1804   23664191.5064
      -289.7434
  20650846.24747  16202393.24046  23629113.4044   23629117.5424
     -4950.5514
   3281136.90847   2644894.38446  23691501.5784   23691503.2344
     -3091.1404
  -6352128.86447  -4844502.85047  22192860.5574   22192864.5874
      -312.7894
 06  5  7  1  3 15.0040000  0  7G30G 1G 4G25G 5G 2G 6
   1669075.82948   1410305.08147  21639862.0824   21639865.1274
     -3177.8484
   9801935.06345   9193017.78246  24768642.9604   24768648.8574
     -3853.0714
  20521765.56645    428171.91045  25862653.6484   25862657.8544
     -4971.2684
  -2837043.75047   -712864.35246  23665026.3104   23665030.1784
      -297.5384
  20725137.52447  16260282.53446  23643250.5804   23643255.3514
     -4954.9494
   3327580.92647   2681084.50846  23700339.5924   23700340.9204
     -3101.3914
  -6347382.95547  -4840804.72847  22193763.6704   22193767.6384
      -319.9944
 06  5  7  1  3 30.0040000  0  7G30G 1G 4G25G 5G 2G 6
   1716802.15748   1447494.42547  21648944.1084   21648947.0254
     -3185.6984
   9859790.30046   9238099.78946  24779652.4474   24779657.9434
     -3860.9904
  20596375.59845    486309.62845  25876851.4504   25876857.9224
     -4976.7724
  -2832523.36547   -709341.95246  23665886.4894   23665890.1014
      -305.2004
  20799494.00447  16318222.63646  23657400.1654   23657405.2044
     -4959.2484
   3374177.51447   2717393.54546  23709206.6334   23709208.1144
     -3111.5014
  -6342529.98847  -4837023.19447  22194687.1474   22194690.9184
      -327.0824
 06  5  7  1  3 45.0040000  0  7G30G 1G 4G25G 5G 2G 6
   1764647.22448   1484776.29247  21658048.7274   21658051.4714
     -3193.5834
   9917764.84346   9283274.76146  24790684.6454   24790689.3414
     -3868.8944
  20671068.95044    544512.17445  25891065.1454   25891070.8154
     -4982.2874
  -2827886.93547   -705729.13446  23666768.7614   23666772.6994
      -312.9324
  20873915.51047  16376213.40446  23671562.1304   23671566.7644
     -4963.5544
   3420926.57647   2753821.36646  23718102.6984   23718103.8444
     -3121.6444
  -6337569.67347  -4833158.00347  22195631.0514   22195635.1544
      -334.2314
 06  5  7  1  4  0.0040000  0  7G30G 1G 4G25G 5G 2G 6
   1812609.75648   1522149.69047  21667175.6964   21667178.6954
     -3201.4604
   9975857.39246   9328541.65246  24801739.3144   24801743.8024
     -3876.8074
  20745844.57844    602778.85245  25905294.4724   25905298.9494
     -4987.8174
  -2823135.14747   -702026.42946  23667672.9844   23667676.8394
      -320.6754
  20948400.95747  16434254.00946  23685736.2704   23685741.0154
     -4967.8674
   3467826.93247   2790367.09746  23727027.5444   23727029.1184
     -3131.7714
  -6332502.94647  -4829209.89247  22196595.1984   22196599.3884
      -341.3624
 06  5  7  1  4 15.0040000  0  7G30G 1G 4G25G 5G 2G 6
   1860690.01848   1559614.82647  21676325.0694   21676327.7234
     -3209.1574
  10034067.96446   9373900.55946  24812816.4304   24812821.4394
     -3884.5094
  20820702.48444    661109.60245  25919539.4564   25919546.8754
     -4993.1004
  -2818267.56847   -698233.49346  23668599.2294   23668603.0734
      -328.2574
  21022950.39247  16492344.47046  23699922.5854   23699927.2714
     -4971.9554
   3514878.75247   2827030.83246  23735981.2134   23735982.5204
     -3141.7104
  -6327329.37847  -4825178.53647  22197579.6724   22197583.8964
      -348.3334
 06  5  7  1  4 30.0040000  0  7G30G 1G 4G25G 5G 2G 6
   1908887.51048   1597171.30947  21685496.7524   21685499.2434
     -3217.0694
  10092395.84246   9419350.81946  24823915.8614   24823919.9854
     -3892.4234
  20895641.66944    719503.94345  25933799.9034   25933803.9744
     -4998.6514
  -2813284.37847   -694350.48746  23669547.4854   23669551.3744
      -336.0694
  21097563.19547  16550484.30446  23714120.9364   23714125.6004
     -4976.2974
   3562081.53747   2863812.21746  23744963.6054   23744964.6154
     -3151.8724
  -6322049.40947  -4821064.26846  22198584.3984   22198588.9024
      -355.5394
 06  5  7  1  4 45.0040000  0  7G30G 1G 4G25G 5G 2G 6
   1957200.93048   1634818.13047  21694690.4944   21694692.8894
     -3224.7304
  10150839.46446   9464891.29346  24835037.2934   24835041.0884
     -3900.0594
  20970660.45344    777960.01945  25948075.5004   25948082.1584
     -5003.8774
  -2808186.67747   -690378.24446  23670517.5334   23670521.0834
      -343.6354
  21172238.01347  16608672.45946  23728331.0804   23728335.4254
     -4980.3604
   3609433.69147   2900710.00246  23753974.4284   23753976.1244
     -3161.7504
  -6316664.23847  -4816868.02947  22199609.1564   22199613.7654
      -362.5074
 06  5  7  1  5  0.0040000  0  7G30G 1G 4G25G 5G 2G 6
   2005632.07448   1672556.68547  21703906.6304   21703909.0534
     -3232.5804
  10209400.54646   9510523.27646  24846181.0654   24846185.3574
     -3907.8854
  21045760.92744    836479.91045  25962366.6344   25962372.7544
     -5009.3264
  -2802972.25747   -686315.05746  23671509.7914   23671513.4724
      -351.4364
  21246976.58747  16666910.28646  23742553.3564   23742557.6164
     -4984.6064
   3656937.15347   2937725.68546  23763014.0424   23763016.0334
     -3171.8554
  -6311171.68547  -4812588.10947  22200654.3434   22200658.8224
      -369.6604
 06  5  7  1  5 15.0040000  0  7G30G 1G 4G25G 5G 2G 6
   2054180.11548   1710386.32447  21713145.0094   21713147.3904
     -3240.4854
  10268077.99446   9556245.93846  24857347.0124   24857351.4994
     -3915.7664
  21120941.67744    895062.35045  25976673.0354   25976679.2704
     -5014.7834
  -2797641.61047   -682161.28646  23672524.1704   23672527.8684
      -359.3264
  21321777.98947  16725197.08946  23756787.5924   23756791.9094
     -4988.9074
   3704591.03747   2974858.57746  23772082.2694   23772083.9274
     -3181.9904
  -6305572.39647  -4808225.02247  22201719.8354   22201723.9644
      -376.9144
 06  5  7  1  5 30.0040000  0  7G30G 1G 4G25G 5G 2G 6
   2102845.55448   1748307.43847  21722405.7324   21722408.4264
     -3248.2284
  10326872.22146   9602059.60246  24868535.1884   24868539.4664
     -3923.4634
  21196202.98545    953707.53445  25990994.7874   25991000.9904
     -5020.0524
  -2792193.87847   -677916.29346  23673560.8164   23673564.8874
      -367.0434
  21396642.70747  16783533.22246  23771033.8934   23771038.4944
     -4993.0484
   3752395.66747   3012108.92346  23781179.2074   23781181.3344
     -3191.9604
  -6299865.66547  -4803778.21547  22202805.7804   22202809.8894
      -384.0014
 06  5  7  1  5 45.0040000  0  7G30G 1G 4G25G 5G 2G 6
   2151627.86448   1786319.63147  21731688.6964   21731691.3034
     -3256.0884
  10385782.45345   9647963.69345  24879745.4304   24879749.2844
     -3931.2414
  21271544.24344   1012415.04745  26005331.7254   26005334.7584
     -5025.4354
  -2786629.42247   -673580.34746  23674619.6924   23674623.5634
      -374.9184
  21471570.14547  16841918.23746  23785292.1254   23785296.9704
     -4997.3034
   3800350.45247   3049476.27146  23790304.7294   23790306.2784
     -3202.0344
  -6294051.80647  -4799247.92747  22203912.1074   22203916.2634
      -391.2004
 06  5  7  1  6  0.0040000  0  7G30G 1G 4G25G 5G 2G 6
   2200528.02448   1824423.64747  21740994.0864   21740996.6804
     -3263.8754
  10444809.42446   9693958.71945  24890977.8794   24890981.0294
     -3938.9564
  21346966.06244   1071185.24645  26019684.0104   26019689.3914
     -5030.7294
  -2780946.91947   -669152.40946  23675701.0364   23675705.2214
      -382.6994
  21546561.02847  16900352.68046  23799562.4034   23799566.7744
     -5001.4434
   3848456.29147   3086961.34146  23799458.9904   23799460.3064
     -3212.0224
  -6288129.82247  -4794633.37847  22205039.0124   22205042.9394
      -398.3494
 06  5  7  1  6 15.0050000  0  7G30G 1G 4G25G 5G 2G 6
   2249547.97748   1862621.01547  21750322.2764   21750324.8814
     -3271.6964
  10503955.59445   9740046.61546  24902232.9864   24902236.9894
     -3946.7034
  21422471.91043   1130021.03345  26034052.2584   26034056.8974
     -5036.0514
  -2775146.97047   -664632.96146  23676804.7154   23676808.4044
      -390.5864
  21621619.03447  16958839.41446  23813845.4564   23813850.0384
     -5005.6314
   3896714.98747   3124565.50746  23808642.3164   23808643.9714
     -3222.0554
  -6282100.29547  -4789935.03547  22206186.3874   22206190.8204
      -405.5594
 06  5  7  1  6 30.0050000  0  7G30G 1G 4G25G 5G 2G 6
   2298681.68148   1900907.01747  21759672.1014   21759674.9464
     -3279.4304
  10563213.34046   9786221.44746  24913509.3754   24913512.9794
     -3954.3074
  21498051.87943   1188914.54045  26048434.6164   26048442.3394
     -5041.2404
  -2769229.62847   -660022.04346  23677930.7444   23677934.3924
      -398.3634
  21696734.56347  17017370.97646  23828139.4604   23828144.2144
     -5009.7254
   3945120.48147   3162284.04546  23817853.5894   23817855.3524
     -3231.9734
  -6275963.47847  -4785153.10447  22207354.1864   22207358.2374
      -412.6474
 06  5  7  1  6 45.0050000  0  7G30G 1G 4G25G 5G 2G 6
   2347929.64548   1939282.05247  21769043.6704   21769046.4604
     -3287.0794
  10622583.58746   9832483.96845  24924807.1854   24924810.7934
     -3961.8364
  21573707.81543   1247867.13645  26062831.4934   26062836.7024
     -5046.3634
  -2763196.97447   -655321.26346  23679078.7204   23679082.3164
      -406.1134
  21771909.70347  17075948.99246  23842444.8094   23842449.1674
     -5013.7384
   3993673.24847   3200117.36546  23827092.8794   23827094.0344
     -3241.8444
  -6269721.54847  -4780289.26147  22208542.0024   22208546.0944
      -419.7394
 06  5  7  1  7  0.0050000  0  7G30G 1G 4G25G 5G 2G 6
   2397293.61748   1977747.48447  21778437.3134   21778440.1244
     -3294.8074
  10682067.79545   9878835.28246  24936126.6824   24936131.0084
     -3969.4234
  21649441.64444   1306880.60045  26077243.1874   26077248.5574
     -5051.5234
  -2757046.98647   -650529.05646  23680249.0154   23680252.4044
      -413.9254
  21847146.12347  17134574.76646  23856761.8384   23856766.3504
     -5017.8044
   4042374.85947   3238066.66446  23836360.4904   23836361.3894
     -3251.7374
  -6263372.47947  -4775341.93047  22209750.1954   22209753.8974
      -426.8434
 06  5  7  1  7 15.0050000  0  7G30G 1G 4G25G 5G 2G 6
   2446774.33448   2016303.88247  21787853.1744   21787855.6864
     -3302.6734
  10741666.65545   9925275.94745  24947467.9674   24947472.8284
     -3977.1294
  21725253.58544   1365954.75345  26091669.7354   26091673.4054
     -5056.7984
  -2750778.56847   -645644.57046  23681441.8584   23681445.1614
      -421.9074
  21922444.53647  17193248.84346  23871090.6654   23871095.2224
     -5022.0134
   4091226.01647   3276132.49646  23845656.5584   23845657.6364
     -3261.7894
  -6256915.41747  -4770310.44547  22210978.9484   22210983.0304
      -434.1444
 06  5  7  1  7 30.0050000  0  7G30G 1G 4G25G 5G 2G 6
   2496371.89048   2054951.33347  21797291.2614   21797293.9934
     -3310.5134
  10801380.06646   9971805.86046  24958831.0654   24958835.6204
     -3984.8194
  21801143.73844   1425089.99145  26106111.1174   26106112.2604
     -5062.0324
  -2744391.28847   -640667.45946  23682657.3084   23682660.9414
      -429.8944
  21997805.01747  17251971.28946  23885431.2954   23885435.3614
     -5026.1994
   4140226.70947   3314314.84146  23854981.0874   23854981.8764
     -3271.8084
  -6250350.00347  -4765194.53247  22212228.3184   22212232.4674
      -441.4264
 06  5  7  1  7 45.0050000  0  7G30G 1G 4G25G 5G 2G 6
   2546086.92848   2093690.32447  21806751.7014   21806754.5914
     -3318.0984
  10861208.34446  10018425.25745  24970216.0384   24970220.8634
     -3992.2614
  21877112.17244   1484286.19545  26120567.4224   26120572.3684
     -5067.0524
  -2737884.32347   -635597.09246  23683895.5384   23683899.1864
      -437.6704
  22073227.92247  17310742.37146  23899783.7914   23899787.8284
     -5030.1614
   4189377.45647   3352614.10646  23864334.1744   23864335.5124
     -3281.5884
  -6243675.49647  -4759993.61247  22213498.4424   22213502.6304
      -448.4864
 06  5  7  1  8  0.0050000  0  7G30G 1G 4G25G 5G 2G 6
   2595916.73348   2132518.73347  21816233.9784   21816236.7174
     -3325.8824
  10921148.98946  10065132.24446  24981622.4044   24981626.7364
     -3999.8334
  21953156.49243   1543541.40245  26135038.1224   26135042.3924
     -5072.2244
  -2731259.66147   -630435.00346  23685156.1684   23685160.1734
      -445.6144
  22148710.93847  17369560.28446  23914147.7184   23914151.9794
     -5034.2494
   4238675.71747   3391028.32446  23873715.3264   23873717.2774
     -3291.5104
  -6236894.00847  -4754709.33547  22214788.9224   22214793.1204
      -455.7154
 06  5  7  1  8 15.0050000  0  7G30G 1G 4G25G 5G 2G 6
   2645863.67148   2171438.43047  21825738.5484   21825741.5494
     -3333.6554
  10981203.55946  10111927.97746  24993050.4354   24993054.7984
     -4007.3824
  22029278.38343   1602857.26245  26149523.6484   26149529.4184
     -5077.3224
  -2724515.24747   -625179.60146  23686439.5724   23686443.6894
      -453.5814
  22224255.77547  17428426.36846  23928523.4354   23928528.1954
     -5038.3214
   4288123.27147   3429558.86746  23883124.9124   23883126.9524
     -3301.4324
  -6230003.72347  -4749340.28047  22216100.1144   22216104.2324
      -462.9464
 06  5  7  1  8 30.0050000  0  7G30G 1G 4G25G 5G 2G 6
   2695926.72648   2210448.60047  21835265.2134   21835268.2864
     -3341.3314
  11041371.02146  10158811.67346  25004499.9574   25004504.7804
     -4014.8454
  22105476.51743   1662232.49245  26164023.6814   26164027.6534
     -5082.3814
  -2717651.60447   -619831.29546  23687745.6684   23687749.6314
      -461.4864
  22299861.49747  17487339.92746  23942910.7514   23942914.2614
     -5042.3364
   4337719.32847   3468205.14646  23892562.7484   23892564.6584
     -3311.2774
  -6223005.14747  -4743886.84347  22217431.8984   22217435.8324
      -470.1114
 06  5  7  1  8 45.0050000  0  7G30G 1G 4G25G 5G 2G 6
   2746104.02648   2249547.78447  21844813.6284   21844816.5484
     -3348.9834
  11101649.48146  10205781.85846  25015970.6054   25015975.9104
     -4022.2864
  22181748.96943   1721665.49145  26178537.9024   26178542.7104
     -5087.3354
  -2710670.13247   -614391.18946  23689074.1914   23689078.0274
      -469.3834
  22375526.28147  17546299.48846  23957309.2994   23957313.1094
     -5046.3034
   4387462.04947   3506965.70646  23902028.4984   23902030.0164
     -3321.0814
  -6215899.92347  -4738350.30647  22218783.9844   22218787.7424
      -477.2644
 06  5  7  1  9  0.0050000  0  7G30G 1G 4G25G 5G 2G 6
   2796396.61248   2288736.81347  21854383.9784   21854387.0814
     -3356.7164
  11162039.83646  10252839.25646  25027462.5474   25027466.8254
     -4029.7824
  22258096.73543   1781157.37045  26193066.3904   26193070.3594
     -5092.3664
  -2703569.44547   -608858.17046  23690425.4034   23690429.2244
      -477.4044
  22451251.12247  17605305.84746  23971719.2684   23971723.0274
     -5050.3564
   4437352.38147   3545841.29246  23911522.3244   23911524.1954
     -3330.9854
  -6208686.58747  -4732729.51647  22220156.6354   22220160.5454
      -484.5254
 06  5  7  1  9 15.0050000  0  7G30G 1G 4G25G 5G 2G 6
   2846804.36048   2328015.58347  21863976.2404   21863979.4994
     -3364.3434
  11222541.49446  10299983.39746  25038975.6674   25038980.5724
     -4037.1364
  22334519.02043   1840707.19245  26207609.0164   26207614.0154
     -5097.2624
  -2696349.62647   -603232.33646  23691799.2924   23691802.9434
      -485.2804
  22527035.58647  17664358.65746  23986140.5684   23986144.1704
     -5054.2714
   4487389.89747   3584831.56046  23921044.1564   23921045.7474
     -3340.7184
  -6201365.48147  -4727024.75247  22221549.7924   22221553.5204
      -491.6554
 06  5  7  1  9 30.0050000  0  8G30G23G 1G 4G25G 5G 2G 6
   2897326.96148   2367383.84147  21873590.3584   21873593.6374
     -3371.9774
                                  26179712.1654
        55.2864
  11283154.15146  10347213.99845  25050509.9094   25050514.2144
     -4044.4994
  22411015.59942   1900314.98043  26222165.7214   26222172.1424
     -5102.2344
  -2689010.46047   -597513.49746  23693195.8954   23693199.8244
      -493.2374
  22602879.57847  17723457.85146  24000573.1904   24000576.8744
     -5058.2194
   4537574.41247   3623936.36946  23930593.9624   23930595.6254
     -3350.5124
  -6193936.39447  -4721235.85047  22222963.4864   22222967.1794
      -498.8474
 06  5  7  1  9 45.0050000  0  8G30G23G 1G 4G25G 5G 2G 6
   2947963.74148   2406841.06347  21883226.2134   21883229.3344
     -3379.6364
      -712.95044                  26179566.1674
        47.0064
  11343876.70546  10394530.24845  25062065.0144   25062068.6554
     -4051.8804
  22487585.42142   1959979.71045  26236736.4984   26236747.2584
     -5107.1204
  -2681552.57347   -591702.14846  23694615.0924   23694618.5864
      -501.2184
  22678782.06347  17782602.62446  24015016.9574   24015021.0144
     -5062.1684
   4587905.08447   3663155.06246  23940171.5794   23940172.7114
     -3360.3034
  -6186400.13447  -4715363.43047  22224397.5804   22224401.4774
      -506.0494
 06  5  7  1 10  0.0050000  0  8G30G23G 1G 4G25G 5G 2G 6
   2998715.48348   2446387.87847  21892883.9394   21892887.1574
     -3387.1764
     -1355.78545                  26179443.8704
        38.7784
  11404709.80146  10441932.60845  25073641.1354   25073645.5764
     -4059.1374
  22564229.04343   2019702.08645  26251321.3624   26251328.0304
     -5111.9374
  -2673974.77647   -585797.35946  23696057.1074   23696060.7124
      -509.1174
  22754743.85847  17841793.62546  24029472.0294   24029476.3804
     -5066.0184
   4638382.45347   3702488.06546  23949777.1144   23949778.6294
     -3369.9824
  -6178755.61647  -4709406.66247  22225852.2794   22225856.4844
      -513.1774
 06  5  7  1 10 15.0050000  0  8G30G23G 1G 4G25G 5G 2G 6
   3049581.43748   2486023.68147  21902563.4114   21902566.6914
     -3394.9004
     -1874.53044                  26179345.1864
        30.4084
  11465652.51845  10489420.39245  25085238.1444   25085242.7774
     -4066.5284
  22640945.39443   2079480.98745  26265920.0094   26265923.4894
     -5116.8634
  -2666277.46747   -579799.46446  23697521.8604   23697525.7674
      -517.1684
  22830764.16747  17901030.22446  24043938.2254   24043942.1614
     -5069.9984
   4689005.80147   3741934.81146  23959410.4254   23959412.1464
     -3379.7784
  -6171003.42247  -4703365.98347  22227327.4654   22227331.4754
      -520.4344
 06  5  7  1 10 30.0050000  0  8G30G23G 1G 4G25G 5G 2G 6
   3100563.16448   2525749.69447  21912264.9124   21912268.0434
     -3402.6924
     -2267.06745                  26179270.4854
        21.8924
  11526706.16246  10536994.66845  25096856.3024   25096861.3204
     -4074.0104
  22717735.98643   2139317.81145  26280532.7644   26280532.0304
     -5121.8664
  -2658458.84947   -573707.02946  23699009.7024   23699013.0454
      -525.3624
  22906844.41847  17960313.52846  24058415.8164   24058420.2294
     -5074.0684
   4739776.39647   3781496.29146  23969071.7534   23969073.9754
     -3389.6774
  -6163141.75247  -4697240.00147  22228823.4904   22228827.5664
      -527.8374
 06  5  7  1 10 45.0050000  0  8G30G23G 1G 4G25G 5G 2G 6
   3151660.23448   2565565.59347  21921988.3724   21921991.4804
     -3410.2804
     -2533.14544                  26179219.7944
        13.5764
  11587870.29145  10584654.99345  25108495.4184   25108499.2944
     -4081.2454
  22794600.11843   2199211.88345  26295159.5344   26295161.7514
     -5126.7004
  -2650518.85747   -567520.00546  23700520.6544   23700524.3054
      -533.3394
  22982984.26947  18019643.27546  24072904.7494   24072909.1124
     -5077.9254
   4790694.06147   3821172.37346  23978761.0654   23978763.2244
     -3399.3744
  -6155170.70647  -4691028.78847  22230340.3274   22230344.3984
      -535.0294
 06  5  7  1 11  0.0050000  0  8G30G23G 1G 4G25G 5G 2G 6
   3202870.74348   2605469.88647  21931733.4084   21931736.6274
     -3417.8244
     -2674.78945       -81.23845  26179192.8204   26179194.2594
         5.2714
  11649142.48545  10632399.53745  25120155.1274   25120160.3464
     -4088.4244
  22871535.39942   2259161.52244  26309799.7824   26309800.8574
     -5131.4134
  -2642459.42147   -561239.92746  23702054.3394   23702056.9774
      -541.2924
  23059181.44946  18079017.69346  24087404.5854   24087408.9084
     -5081.7404
   4841756.47047   3860961.24946  23988477.9254   23988480.1994
     -3408.9934
  -6147092.38047  -4684733.99447  22231877.5784   22231882.0164
      -542.1654
 06  5  7  1 11 15.0050000  0  8G30G23G 1G 4G25G 5G 2G 6
   3254195.55048   2645463.24047  21941500.1994   21941503.2854
     -3425.4784
     -2690.56544       -93.52745  26179189.8024   26179191.1444
        -3.1804
  11710523.45245  10680228.83545  25131835.5434   25131840.3824
     -4095.7044
  22948542.70042   2319167.25444  26324453.7834   26324461.3294
     -5136.2404
  -2634279.36247                  23703610.9664
      -549.3864
  23135436.85447  18138437.48046  24101915.4884   24101920.3434
     -5085.6554
   4892964.47247   3900863.58546  23998222.4794   23998224.4254
     -3418.7524
  -6138905.55947  -4678354.61346  22233435.4784   22233440.0264
      -549.4324
 06  5  7  1 11 30.0050000  0  8G30G23G 1G 4G25G 5G 2G 6
   3305633.86648   2685545.03947  21951288.5934   21951291.6374
     -3433.0184
     -2580.60844        -7.74445  26179210.6864   26179213.9094
       -11.5334
  11772012.50345  10728142.37145  25143536.5114   25143542.4594
     -4102.8744
  23025621.07342   2379228.21745  26339121.4344   26339125.2484
     -5140.9184
  -2625978.82347                  23705190.5254
      -557.3934
  23211749.77447  18197902.07446  24116437.3684   24116442.3834
     -5089.4464
   4944317.40347   3940878.85546  24007994.6174   24007996.8484
     -3428.3514
  -6130610.60947  -4671891.03747  22235013.9524   22235018.8574
      -556.6004
 06  5  7  1 11 45.0050000  0  8G30G23G 1G 4G25G 5G 2G 6
   3357185.53948   2725715.17647  21961098.5574   21961101.5554
     -3440.6094
     -2345.14044       175.78345  26179255.4634   26179260.8544
       -19.9514
  11833608.87645  10776139.50345  25155257.9374   25155263.8134
     -4110.0524
  23102769.75042   2439344.09445  26353802.3714   26353805.6544
     -5145.6644
  -2617558.11847                  23706792.9454
      -565.4534
  23288119.68147  18257411.08546  24130970.0914   24130974.9174
     -5093.2984
   4995814.62447   3981006.55846  24017794.2164   24017795.9864
     -3438.0134
  -6122207.96147  -4665343.51647  22236612.9264   22236617.7674
      -563.8244
 06  5  7  1 12  0.0050000  0  8G30G23G 1G 4G25G 5G 2G 6
   3408850.82248   2765973.84147  21970930.1354   21970932.9764
     -3448.1094
     -1983.15243       457.91645  26179324.3324   26179328.2044
       -28.3074
  11895312.90345  10824220.54145  25166999.8514   25167004.5264
     -4117.1424
  23179989.23942   2499515.07844  26368496.7214   26368504.6374
     -5150.2464
  -2609016.24147      5331.73046  23708418.4244   23708422.1094
      -573.4594
  23364547.12647  18316964.92746  24145513.7554   24145518.2194
     -5097.0394
   5047456.76847   4021247.16546  24027621.3914   24027622.4434
     -3447.5974
  -6113696.70247  -4658711.35847  22238232.5504   22238236.9034
      -570.9964
 06  5  7  1 12 15.0050000  0  8G30G23G 1G 4G25G 5G 2G 6
   3460630.57548   2806321.69247  21980783.4964   21980786.4824
     -3455.7984
     -1493.75644       839.25445  26179417.4734   26179419.4564
       -36.8874
  11957125.20845  10872385.95245  25178762.3514   25178766.2814
     -4124.4004
  23257280.20441   2559741.95644  26383204.5274   26383214.6234
     -5155.0544
  -2600352.24347     12082.89746  23710067.1294   23710071.0064
      -581.6674
  23441032.74147  18376564.11046  24160068.4804   24160072.5994
     -5100.9814
   5099244.38147                  24037476.2544
     -3457.3384
  -6105075.99247  -4651993.92047  22239873.0034   22239877.2874
      -578.3784
 06  5  7  1 12 30.0050000  0  8G30G23G 1G 4G25G 5G 2G 6
   3512523.53148   2846757.76247  21990658.3934   21990661.4674
     -3463.3474
      -877.86944      1319.19045  26179534.6844   26179536.1784
       -45.3384
  12019044.09845  10920634.41145  25190545.1564   25190549.4594
     -4131.5364
  23334640.57741   2620022.64544  26397925.5244   26397931.3914
     -5159.6734
  -2591567.19247     18928.38946  23711738.8644   23711742.1964
      -589.7664
  23517575.06847  18436207.48246  24174633.9904   24174638.6444
     -5104.7614
   5151175.92247                  24047358.5084
     -3466.9584
  -6096347.01147  -4645192.11047  22241534.0614   22241538.1594
      -585.6014
 06  5  7  1 12 45.0050000  0  8G30G23G 1G 4G25G 5G 2G 6
   3564531.12148   2887283.15147  22000555.1044   22000558.5304
     -3470.9974
      -133.43044      1899.23845  26179676.3214   26179677.8124
       -53.9184
  12081070.99145  10968967.04945  25202348.5214   25202353.3144
     -4138.7204
  23412071.93241   2680358.75344  26412660.2794   26412668.6494
     -5164.4324
  -2582659.28947     25869.61646  23713433.9854   23713437.4364
      -597.9564
  23594175.49846  18495896.11246  24189210.5494   24189215.1664
     -5108.6424
   5203252.93447                  24057268.4354
     -3476.6314
  -6087508.02847  -4638304.58247  22243216.0534   22243220.3244
      -592.9314
 06  5  7  1 13  0.0050000  0  7G30G23G 1G25G 5G 2G 6
   3616651.98148   2927896.80247  22010473.3814   22010476.9164
     -3478.5254
       738.43944      2578.69545  26179842.2074   26179844.1514
       -62.4224
  12143204.35845  11017382.66045  25214172.1534   25214176.2844
     -4145.8144
  -2573629.46747     32905.84146  23715152.3094   23715155.8454
      -606.0854
  23670832.84746  18555629.09046  24203797.9384   24203802.8434
     -5112.4174
   5255473.99647      2713.47746  24067205.7814   24067206.8144
     -3486.2264
  -6078560.07747  -4631332.15847  22244918.7884   22244923.1884
      -600.1884
 06  5  7  1 13 15.0050000  0  7G30G23G 1G25G 5G 2G 6
   3668886.76548   2968599.23347  22020413.3264   22020416.6634
     -3486.2414
      1738.54244      3357.92245  26180032.5314   26180032.4234
       -71.1154
  12205444.48946  11065881.43146  25226016.0844   25226020.1524
     -4153.0394
  -2564476.87247     40037.73846  23716893.9894   23716897.6344
      -614.4084
  23747547.39046  18615406.64746  24218396.2324   24218401.5944
     -5116.3524
   5307839.55347     43517.79646  24077170.6164   24077172.3054
     -3495.9844
  -6069502.60647  -4624274.38147  22246642.3604   22246646.2274
      -607.6264
 06  5  7  1 13 30.0050000  0  7G30G23G 1G25G 5G 2G 6
   3721236.56148   3009391.28047  22030375.1684   22030378.5074
     -3493.7824
      2868.53445      4238.45845  26180247.5624   26180248.8964
       -79.6254
  12267792.31245  11114464.12345  25237880.5104   25237884.8794
     -4160.0704
  -2555200.19247     47266.31646  23718659.2924   23718662.8234
      -622.5394
  23824320.24346  18675229.64246  24233005.6204   24233010.6934
     -5120.0994
   5360350.55647     84435.44546  24087163.1244   24087165.3964
     -3505.5364
  -6060334.31747  -4617130.24847  22248387.0264   22248390.9084
      -614.8834
 06  5  7  1 13 45.0050000  0  7G30G23G 1G25G 5G 2G 6
   3773698.54448   3050270.73947  22040358.3634   22040361.7924
     -3501.2634
      4125.95144      5218.26445  26180486.8564   26180489.6734
       -88.1304
  12330244.74945  11163128.33445  25249764.8464   25249769.6214
     -4167.0394
  -2545802.02147     54589.56946  23720447.7104   23720451.1524
      -630.6584
  23901148.52246  18735095.82746  24247625.5614   24247630.8314
     -5123.7854
   5413004.07747    125464.15046  24097182.7674   24097184.7734
     -3515.0344
  -6051057.74247  -4609901.74847  22250152.2954   22250155.8124
      -622.1114
 06  5  7  1 14  0.0050000  0  7G30G23G 1G25G 5G 2G 6
   3826274.68448   3091239.16447  22050363.2804   22050366.4844
     -3508.8494
      5513.28945      6299.26845  26180750.9124   26180752.4174
       -96.7934
  12392803.81445  11211875.62545  25261669.4364   25261674.8284
     -4174.1244
  -2536279.78247     62009.50046  23722259.7364   23722263.1654
      -638.9164
  23978034.29646  18795006.81346  24262256.4554   24262261.1874
     -5127.5964
   5465802.22347    166605.55946  24107229.9244   24107231.7354
     -3524.6454
  -6041670.56347  -4602587.06347  22251938.6144   22251942.0834
      -629.4534
 06  5  7  1 14 15.0050000  0  7G30G23G 1G25G 5G 2G 6
   3878964.46948   3132296.13847  22060389.8244   22060392.9224
     -3516.4884
      7030.22244      7481.29945  26181039.5264   26181040.1004
      -105.4974
  12455468.51845  11260705.26145  25273594.1524   25273598.6214
     -4181.2224
  -2526633.90747     69525.76546  23724095.2824   23724098.9614
      -647.2334
  24054976.73146  18854961.96346  24276898.1184   24276902.6014
     -5131.4304
   5518744.24247    207859.06446  24117304.4604   24117306.1734
     -3534.3184
  -6032173.44547  -4595186.70247  22253745.8574   22253749.5344
      -636.8744
 06  5  7  1 14 30.0050000  0  7G30G23G 1G25G 5G 2G 6
   3931768.73748   3173442.32047  22070438.1474   22070441.3554
     -3524.0874
      8678.00244      8765.30845  26181353.0754   26181354.9444
      -114.1884
  12518239.48845  11309617.67045  25285539.0904   25285545.0464
     -4188.2524
  -2516863.41647     77139.14446  23725954.5354   23725958.4924
      -655.5184
  24131976.58146  18914961.84546  24291550.6924   24291555.5614
     -5135.2354
   5571830.64147    249225.07046  24127406.4614   24127408.3094
     -3543.8944
  -6022565.15747  -4587699.71447  22255574.2444   22255577.8554
      -644.2424
 06  5  7  1 14 45.0050000  0  7G30G23G 1G25G 5G 2G 6
   3984685.61448   3214676.24947  22080507.9064   22080511.0584
     -3531.5164
     10455.11144     10150.03145  26181691.2114   26181692.4144
      -122.7504
  12581114.85345  11358611.45545  25297503.8844   25297509.4334
     -4195.1294
  -2506969.59147     84848.62346  23727837.2624   23727840.6954
      -663.6574
  24209032.17446  18975005.14546  24306213.8894   24306219.2404
     -5138.8544
   5625059.72547    290702.24646  24137535.6264   24137537.4804
     -3553.3274
  -6012847.43647  -4580127.46247  22257423.4604   22257427.2444
      -651.4774
 06  5  7  1 15  0.0050000  0  7G30G23G 1G25G 5G 2G 6
   4037715.67648   3255998.37047  22090599.2084   22090602.1934
     -3539.0984
     12362.33244     11636.19645  26182054.1264   26182054.3774
      -131.4854
  12644094.73845  11407686.65445  25309488.5964   25309493.9904
     -4202.1434
  -2496951.88247     92654.63746  23729743.5594   23729747.3784
      -671.9744
  24286143.69346  19035092.03346  24320887.7404   24320892.5474
     -5142.6324
   5678431.82247    332290.89446  24147692.0084   24147693.5954
     -3562.8994
  -6003019.58947  -4572469.39347  22259293.6294   22259297.3554
      -658.8404
 06  5  7  1 15 15.0050000  0  7G30G23G 1G25G 5G 2G 6
   4090859.12548   3297408.85047  22100712.0934   22100715.0194
     -3546.6484
     14400.35845     13224.27245  26182441.9634   26182442.9394
      -140.1964
  12707179.25445  11456843.39545  25321493.1884   25321496.7014
     -4209.0784
  -2486809.58447    100557.73746  23731673.5544   23731676.9164
      -680.2784
  24363311.42446  19095222.71246  24335572.2854   24335577.3524
     -5146.3564
   5731947.15647    373991.14246  24157875.6434   24157877.0024
     -3572.4264
  -5993081.22847  -4564725.21047  22261184.8204   22261188.5104
      -666.2174
 06  5  7  1 15 30.0050000  0  7G30G23G 1G25G 5G 2G 6
   4144115.87448   3338907.61447  22110846.5234   22110849.6754
     -3554.2534
     16569.37145     14914.40545  26182854.7444   26182856.1694
      -149.0084
  12770368.08145  11506081.41345  25333517.6674   25333521.8044
     -4216.0814
  -2476542.51147    108558.05846  23733627.2944   23733630.8364
      -688.6674
  24440535.23146  19155397.10546  24350267.4964   24350271.6174
     -5150.1464
   5785605.32047    415802.67946  24168086.4614   24168088.0484
     -3581.9984
  -5983032.20747  -4556894.80247  22263097.0794   22263101.1304
      -673.6614
 06  5  7  1 15 45.0050000  0  7G30G23G 1G25G 5G 2G 6
   4197487.28848   3380495.72147  22121002.7714   22121005.8374
     -3561.8684
     18871.52045     16708.37345  26183292.8384   26183293.2744
      -157.8894
  12833662.38345  11555401.64245  25345562.2014   25345565.7684
     -4223.0924
  -2466149.00047    116656.90246  23735605.0954   23735608.6504
      -697.0814
  24517816.41346  19215616.20546  24364973.6414   24364978.1504
     -5153.9574
   5839407.80947    457726.67246  24178324.7224   24178326.3634
     -3591.6024
  -5972870.94147  -4548976.92047  22265030.6944   22265034.7854
      -681.1274
 06  5  7  1 16  0.0050000  0  7G30G23G 1G25G 5G 2G 6
   4250971.93248   3422172.06747  22131180.5764   22131183.4324
     -3569.3884
     21305.26445     18604.84645  26183755.9694   26183757.5394
      -166.6314
  12897060.52645  11604802.75245  25357626.5024   25357630.2594
     -4229.9704
  -2455630.21847    124853.34946  23737606.7454   23737610.6004
      -705.4024
  24595153.48746  19275878.85346  24379690.4234   24379694.8924
     -5157.6354
   5893353.03046    499761.88846  24188590.1404   24188592.2284
     -3601.0794
  -5962598.64347  -4540972.53247  22266985.4424   22266989.3854
      -688.4894
 06  5  7  1 16 15.0050000  0  7G30G23G 1G25G 5G 2G 6
   4304569.06848   3463936.07347  22141379.7784   22141382.5974
     -3576.8494
     23870.42845     20603.66445  26184244.0724   26184245.1134
      -175.3574
  12960561.64445  11654284.10845  25369710.4104   25369714.9544
     -4236.8044
  -2444986.50047    133147.15946  23739632.1684   23739635.8824
      -713.7204
  24672545.68647  19336184.46346  24394417.6894   24394422.2444
     -5161.2934
   5947440.17646    541907.70746  24198882.5754   24198884.7214
     -3610.5034
  -5952215.96247  -4532882.12946  22268961.1954   22268965.2064
      -695.8364
 06  5  7  1 16 30.0050000  0  7G30G23G 1G25G 5G 2G 6
   4358279.58948   3505788.42347  22151600.5464   22151603.4794
     -3584.5134
     26568.24445     22705.88845  26184757.4284   26184761.2644
      -184.3154
  13024166.42945  11703846.26045  25381814.0534   25381819.4504
     -4243.8094
  -2434216.72647    141539.18346  23741681.5794   23741685.2344
      -722.2284
  24749993.89247  19396533.70246  24409155.6114   24409160.3114
     -5165.0954
   6001670.01546    584164.71046  24209202.1704   24209204.7154
     -3620.1014
  -5941721.63347  -4524704.72546  22270958.1984   22270962.4984
      -703.3734
 06  5  7  1 16 45.0050000  0  7G30G23G 1G25G 5G 2G 6
   4412103.98948   3547729.50247  22161842.9954   22161845.9714
     -3592.0524
     29399.49945     24912.09545  26185296.2144   26185297.9304
      -193.1624
  13087874.95945  11753489.25845  25393937.4224   25393942.6624
     -4250.6404
  -2423320.18647    150030.00446  23743755.1124   23743758.6784
      -730.6374
  24827498.36646  19456926.78446  24423904.2424   24423908.7274
     -5168.7984
   6056042.69147    626533.02146  24219548.9484   24219550.6044
     -3629.5784
  -5931115.24547  -4516440.00547  22272976.5284   22272980.5724
      -710.7914
 06  5  7  1 17  0.0050000  0  7G30G23G 1G25G 5G 2G 6
   4466040.63748   3589758.06147  22172106.7994   22172110.1684
     -3599.5624
     32362.80145     27221.16645  26185860.1374   26185862.0734
      -202.0124
  13151685.47345  11803211.70745  25406080.2064   25406085.4654
     -4257.4714
  -2412298.25147    158618.51846  23745852.4994   23745855.8544
      -739.0374
  24905057.45646  19517362.43046  24438663.2624   24438667.2554
     -5172.4634
   6110556.67147    669011.43346  24229922.6114   24229923.5754
     -3639.0154
  -5920398.18547  -4508089.04947  22275015.9204   22275019.6824
      -718.2024
 06  5  7  1 17 15.0050000  0  7G30G23G 1G25G 5G 2G 6
   4520090.96748   3631875.19847  22182392.2314   22182395.4854
     -3607.1284
     35460.10945     29634.61945  26186449.5814   26186450.8684
      -210.9684
  13215599.16945  11853014.56845  25418242.6204   25418247.4964
     -4264.3564
  -2401149.17847    167306.11246  23747974.0964   23747977.7624
      -747.5174
  24982672.41446  19577841.61846  24453432.8994   24453436.6834
     -5176.2204
   6165213.19546    711600.93046  24240323.3994   24240324.9804
     -3648.5244
  -5909568.77247  -4499650.54247  22277076.6944   22277080.1084
      -725.7134
 06  5  7  1 17 30.0050000  0  7G30G23G 1G25G 5G 2G 6
   4574254.59248   3674080.60747  22192699.2224   22192702.7024
     -3614.6284
     38691.36345     32152.54845  26187064.4494   26187066.1874
      -219.8204
  13279615.56145  11902897.43845  25430424.5684   25430429.2454
     -4271.1264
  -2389873.00047    176092.75246  23750119.8784   23750123.1604
      -755.9324
  25060343.00646  19638364.15346  24468213.1234   24468217.4484
     -5179.8424
   6220011.87646    754301.18346  24250751.2344   24250752.9644
     -3657.9284
  -5898627.21447  -4491124.65347  22279158.8104   22279162.1264
      -733.1314
 06  5  7  1 17 45.0050000  0  7G30G23G 1G25G 5G 2G 6
   4628530.39848   3716373.44047  22203027.5694   22203031.2604
     -3622.1684
     42055.66345     34773.96745  26187704.6104   26187706.2444
      -228.7674
  13343733.20645  11952859.24745  25442625.7334   25442629.5854
     -4277.9164
  -2378470.53847    184977.78746  23752289.7004   23752292.8414
      -764.4054
  25138067.98346  19698929.06946  24483003.6994   24483007.9964
     -5183.5044
   6274951.37046    797111.14546  24261205.8734   24261208.0534
     -3667.3544
  -5887574.53647  -4482512.17347  22281262.0754   22281265.5644
      -740.5904
 06  5  7  1 18  0.0050000  0  7G30G23G 1G25G 5G 2G 6
   4682917.80148   3758753.22647  22213377.1474   22213380.8204
     -3629.5434
     45552.90045     37499.05545  26188370.0794   26188370.5554
      -237.5854
  13407951.28745  12002899.26245  25454846.0084   25454850.2314
     -4284.5584
  -2366942.17947    193960.92246  23754483.4694   23754486.6154
      -772.7494
  25215846.64046  19759535.81146  24497804.5144   24497808.7364
     -5187.0284
   6330030.98846    840030.32646  24271687.1884   24271688.9064
     -3676.6434
  -5876411.08247  -4473813.37147  22283386.4054   22283390.2044
      -747.9184
 06  5  7  1 18 15.0050000  0  7G30G23G 1G25G 5G 2G 6
   4737416.08748   3801219.41247  22223747.8304   22223751.2044
     -3637.0304
     49182.97044     40327.69045  26189060.8244   26189061.6614
      -246.5354
  13472269.06545  12053016.97745  25467085.2884   25467090.6274
     -4291.2704
  -2355288.15247    203041.98446  23756701.1544   23756704.7424
      -781.2484
  25293678.33746  19820183.89846  24512615.4084   24512620.1734
     -5190.6384
   6385250.10546    883058.20346  24282195.0424   24282196.9884
     -3686.0264
  -5865137.24647  -4465028.56247  22285531.7434   22285535.5254
      -755.3644
 06  5  7  1 18 30.0050000  0  7G30G23G 1G25G 5G 2G 6
   4792025.70548   3843772.36247  22234139.6964   22234142.9044
     -3644.3474
     52946.37344     43260.25145  26189776.9504   26189779.1414
      -255.3504
  13536686.67545  12103212.48045  25479343.5594   25479348.3744
     -4297.8224
  -2343507.80647    212221.47946  23758942.8724   23758946.3224
      -789.5654
  25371563.42546  19880873.55546  24527436.4804   24527441.5574
     -5194.1144
   6440608.90746    926194.91146  24292729.4734   24292732.1514
     -3695.2524
  -5853752.50547  -4456157.32347  22287698.1874   22287702.0194
      -762.6784
 06  5  7  1 18 45.0050000  0  7G30G23G 1G25G 5G 2G 6
   4846747.60448   3886412.80147  22244552.9344   22244556.1914
     -3651.9124
     56844.46545     46297.79045  26190518.7244   26190520.7644
      -264.4474
  13601204.68545  12153486.24445  25491620.9104   25491626.8794
     -4304.5984
  -2331600.03547    221500.26546  23761208.8344   23761212.5204
      -798.1724
  25449502.61746  19941605.39846  24542267.8274   24542272.3794
     -5197.8094
   6496108.13646    969441.05046  24303290.6354   24303293.4854
     -3704.6734
  -5842255.84647  -4447198.88347  22289885.9184   22289889.8834
      -770.2244
 06  5  7  1 19  0.0050000  0  7G30G23G 1G25G 5G 2G 6
   4901581.17248   3929140.25047  22254987.4164   22254990.5614
     -3659.3264
     60877.19845     49440.21945  26191286.1224   26191287.6574
      -273.3624
  13665822.40245  12203837.68345  25503917.3004   25503922.3514
     -4311.1974
  -2319565.15647    230878.09146  23763498.9904   23763502.9444
      -806.6044
  25527495.36146  20002378.94446  24557109.3674   24557114.5394
     -5201.3294
   6551747.15347   1012796.12246  24313878.4114   24313880.7734
     -3713.9674
  -5830647.64847  -4438153.52447  22292094.8824   22292099.0254
      -777.6294
 06  5  7  1 19 15.0050000  0  7G30G23G 1G25G 5G 2G 6
   4956527.19648   3971955.32647  22265443.2954   22265446.3634
     -3666.8224
     65045.27845     52688.10045  26192079.2884   26192082.1884
      -282.4044
  13730540.25445  12254267.13245  25516232.7324   25516236.9434
     -4317.8554
  -2307402.08547    240355.81846  23765813.5414   23765817.1754
      -815.1594
  25605542.27146  20063194.70846  24571961.2184   24571966.1534
     -5204.9494
   6607526.56047   1056260.57946  24324492.8874   24324494.7384
     -3723.3104
  -5818926.97047  -4429020.52247  22294325.2524   22294329.5274
      -785.1484
 06  5  7  1 19 30.0050000  0  7G30G23G 1G25G 5G 2G 6
   5011584.53348   4014857.14247  22275920.3554   22275923.5144
     -3674.2604
     69348.19845     56041.05945  26192898.1194   26192899.8034
      -291.4154
  13795357.15345  12304773.83645  25528566.9714   25528572.4994
     -4324.4794
  -2295111.41547    249932.95346  23768152.3824   23768156.2534
      -823.6794
  25683642.45746  20124051.98446  24586823.1984   24586827.9064
     -5208.5034
   6663445.39647   1099833.68346  24335133.9174   24335135.7244
     -3732.6154
  -5807094.48047  -4419800.37647  22296576.9044   22296581.0664
      -792.6144
 06  5  7  1 19 45.0050000  0  7G30G23G 1G25G 5G 2G 6
   5066752.61348   4057845.25147  22286418.4874   22286421.6354
     -3681.5304
     73785.63245     59498.82945  26193742.5514   26193742.8234
      -300.3274
  13860272.17545  12355356.91445  25540919.8344   25540926.1124
     -4330.9004
  -2282693.75447    259609.05446  23770515.3844   23770519.1334
      -832.0654
  25761795.04746  20184950.11046  24601695.1414   24601700.0114
     -5211.9014
   6719502.69047   1143514.67446  24345801.2904   24345803.0574
     -3741.7424
  -5795150.89847  -4410493.66447  22298849.6854   22298854.0864
      -799.9054
 06  5  7  1 20  0.0060000  0  7G30G23G 1G25G 5G 2G 6
   5122035.04448   4100922.46547  22296938.3714   22296941.5534
     -3688.9564
     78358.28945     63061.93445  26194612.7024   26194614.8934
      -309.3534
  13925289.31145  12406019.58945  25553292.1614   25553297.0284
     -4337.4794
  -2270147.91147    269385.04146  23772902.7754   23772906.6074
      -840.6174
  25840005.13346  20245893.03046  24616578.0304   24616583.0374
     -5215.4454
   6775701.97946   1187306.31046  24356495.6854   24356497.5624
     -3751.0164
  -5783095.21847  -4401099.62447  22301143.7974   22301148.1274
      -807.4004
 06  5  7  1 20 15.0060000  0  7G30G23G 1G25G 5G 2G 6
   5177424.60848   4144083.16447  22307478.6474   22307481.9034
     -3696.2854
     83066.08445     66730.41845  26195508.5244   26195509.5644
      -318.3184
  13990400.01945  12456755.19545  25565682.3384   25565687.5194
     -4343.9144
  -2257475.05747    279259.99546  23775314.3414   23775318.1404
      -849.0734
  25918262.55646  20306872.82946  24631469.9224   24631474.7674
     -5218.8534
   6832035.98847   1231202.92246  24367215.7314   24367216.7964
     -3760.1544
  -5770928.61947  -4391619.15947  22303459.0194   22303463.4834
      -814.7724
 06  5  7  1 20 30.0060000  0  7G30G23G 1G25G 5G 2G 6
   5232925.50048   4187330.60847  22318040.1004   22318043.6554
     -3703.7364
     87909.83844     70504.78245  26196430.2164   26196432.8794
      -327.4414
  14055608.71545  12507567.11245  25578091.1454   25578096.3734
     -4350.4864
  -2244673.77147    289235.03946  23777750.3354   23777753.9864
      -857.6844
  25996572.69246  20367893.71646  24646371.8354   24646376.6604
     -5222.3984
   6888508.69947   1275207.61946  24377962.1734   24377963.1214
     -3769.4364
  -5758649.79547  -4382051.23547  22305795.6064   22305799.9314
      -822.3034
 06  5  7  1 20 45.0060000  0  7G30G23G 1G25G 5G 2G 6
   5288536.73048   4230664.02547  22328622.5584   22328626.3234
     -3711.0324
     92889.12045     74384.78845  26197377.7514   26197377.6914
      -336.4274
  14120914.29045  12558454.54545  25590518.4084   25590524.5974
     -4356.8744
  -2231744.62447    299309.69946  23780210.6624   23780214.5924
      -866.1514
  26074934.62346  20428954.94146  24661283.5984   24661288.9464
     -5225.8034
   6945119.06747   1319319.58946  24388734.8144   24388736.4904
     -3778.5624
  -5746259.41947  -4372396.39747  22308153.4114   22308157.7484
      -829.6814
 06  5  7  1 21  0.0060000  0  7G30G23G 1G25G 5G 2G 6
   5344257.41648   4274082.73347  22339225.8494   22339229.7974
     -3718.4354
     98003.55445     78370.05245  26198350.9714   26198352.2744
      -345.5544
  14186315.84145  12609416.75545  25602963.9504   25602969.6124
     -4363.3744
  -2218688.10047    309483.61946  23782695.2254   23782698.9314
      -874.7504
  26153347.61646  20490055.95846  24676205.0934   24676210.1204
     -5229.2984
   7001866.21847   1363538.13146  24399533.4674   24399535.2674
     -3787.7684
  -5733758.11847  -4362655.11747  22310532.3264   22310536.6024
      -837.1864
 06  5  7  1 21 15.0060000  0  8G30G23G 1G 7G25G 5G 2G 6
   5400089.57448   4317588.31047  22349850.3544   22349853.9784
     -3725.9034
    103255.36645     82462.34145  26199350.3694   26199350.3164
      -354.7404
  14251814.86145  12660454.93645  25615428.0384   25615433.7254
     -4369.8794
    -11811.91743                  26329070.9064
      1476.1374
  -2205502.23047    319758.32646  23785204.4084   23785207.8134
      -883.4194
  26231813.31046  20551198.04946  24691136.6114   24691141.4694
     -5232.8474
   7058751.86147   1407864.59746  24410358.4674   24410359.8854
     -3797.0234
  -5721143.92947  -4352825.86947  22312932.7204   22312936.8704
      -844.7464
 06  5  7  1 21 30.0060000  0  8G30G23G 1G 7G25G 5G 2G 6
   5456033.69448   4361181.12247  22360496.1624   22360499.9554
     -3733.3114
    108645.34845     86662.37645  26200376.0654   26200378.4484
      -363.9154
  14317411.74845  12711569.36845  25627910.7304   25627914.8184
     -4376.3524
    -33941.69343                  26324860.2514
      1474.5344
  -2192185.93247    330134.66446  23787738.4034   23787741.8814
      -892.0664
  26310332.32946  20612381.68446  24706078.2834   24706083.4274
     -5236.3434
   7115776.34947   1452299.24646  24421209.8714   24421211.4924
     -3806.2274
  -5708416.14747  -4342908.11147  22315354.7354   22315358.6454
      -852.2574
 06  5  7  1 21 45.0060000  0  8G30G23G 1G 7G25G 5G 2G 6
   5512087.80748   4404859.64847  22371162.9034   22371166.2134
     -3740.5364
    114172.08045     90968.94145  26201427.7494   26201429.5974
      -372.9414
  14383104.51245  12762758.50145  25640411.6574   25640416.6994
     -4382.6354
    -56048.30343                  26320653.5314
      1473.0464
  -2178740.86547    340611.34046  23790296.9114   23790300.4404
      -900.5664
  26388902.77946  20673605.41546  24721029.7284   24721034.5864
     -5239.6644
   7172937.79046   1496840.59246  24432087.3224   24432088.6024
     -3815.2624
  -5695576.28847  -4332903.02147  22317798.0744   22317802.3794
      -859.6544
 06  5  7  1 22  0.0060000  0  8G30G23G 1G 7G25G 5G 2G 6
   5568252.05448   4448623.99747  22381850.5984   22381853.6854
     -3747.9974
    119835.90345     95382.31445  26202505.5314   26202506.2964
      -382.2224
  14448892.77345  12814022.01545  25652930.8034   25652937.4294
     -4389.1144
    -78131.62444                  26316451.3204
      1471.3894
  -2165166.78747    351188.54846  23792879.9764   23792884.0424
      -909.2904
  26467524.55046  20734869.13246  24735990.9454   24735995.2534
     -5243.2024
   7230236.12746   1541488.61546  24442990.8274   24442992.6184
     -3824.4984
  -5682624.27747  -4322810.53647  22320262.7574   22320266.7224
      -867.2414
 06  5  7  1 22 15.0060000  0  8G30G23G 1G 7G25G 5G 2G 6
   5624527.33148   4492474.85447  22392559.4284   22392562.4254
     -3755.2774
    125638.16445     99903.60345  26203609.6344   26203610.0354
      -391.3344
  14514777.34845  12865360.67545  25665468.2674   25665472.6954
     -4395.4264
   -100190.46343                  26312253.7274
      1469.8514
  -2151462.44547    361867.26746  23795487.8274   23795491.6724
      -917.8754
  26546198.54646  20796173.53246  24750962.0984   24750967.0994
     -5246.5864
   7287672.13046   1586243.92846  24453920.5344   24453923.1444
     -3833.5654
  -5669558.95547  -4312629.75947  22322748.9964   22322752.7144
      -874.7144
 06  5  7  1 22 30.0060000  0  8G30G23G 1G 7G25G 5G 2G 6
   5680911.12648   4536410.27447  22403288.9104   22403292.1574
     -3762.6364
    131576.54145    104530.93945  26204739.6374   26204739.6794
      -400.5504
  14580755.49945  12916772.17045  25678023.4914   25678028.7834
     -4401.7434
   -122227.10243     -6865.95745  26308060.2864   26308068.2664
      1468.2604
  -2137630.08247    372645.73146  23798120.0364   23798123.7784
      -926.5194
  26624922.21846  20857516.64046  24765942.7154   24765947.7424
     -5250.0024
   7345243.16046   1631104.44746  24464875.9404   24464878.5144
     -3842.6744
  -5656382.53347  -4302362.41147  22325256.3844   22325260.1674
      -882.2344
 06  5  7  1 22 45.0060000  0  8G30G23G 1G 7G25G 5G 2G 6
   5737406.22748   4580432.43047  22414039.5814   22414042.9854
     -3770.0064
    137654.35845    109266.95045  26205896.1874   26205897.4124
      -409.7654
  14646829.59645  12968258.44045  25690597.0224   25690602.3724
     -4408.0964
   -144238.55443    -24017.70645  26303871.6764   26303878.5974
      1466.6224
  -2123666.81147    383526.20846  23800777.1494   23800780.8404
      -935.2154
  26703698.08546  20918900.42446  24780933.2864   24780938.2414
     -5253.4234
   7402951.71447   1676072.13446  24475857.5424   24475859.4284
     -3851.7824
  -5643092.34847  -4292006.41247  22327785.4204   22327789.7124
      -889.7704
 06  5  7  1 23  0.0060000  0  8G30G23G 1G 7G25G 5G 2G 6
   5794010.39348   4624539.57147  22424811.0004   22424814.2584
     -3777.1854
    143869.28745    114109.72645  26207078.8424   26207081.7964
      -418.8614
  14712997.37745  13019817.75145  25703188.3914   25703192.1544
     -4414.2374
   -166226.57343    -41151.21045  26299687.4604   26299694.1414
      1465.1344
  -2109574.37547    394507.32946  23803458.8464   23803462.7234
      -943.7504
  26782524.04246  20980323.24846  24795933.3874   24795937.7224
     -5256.6724
   7460795.66547   1721145.32846  24486864.8974   24486866.8264
     -3860.7234
  -5629690.27647  -4281563.24247  22330335.7394   22330339.7144
      -897.1574
 06  5  7  1 23 15.0060000  0  8G30G23G 1G 7G25G 5G 2G 6
   5850723.26948   4668731.42147  22435603.1034   22435606.3904
     -3784.4334
    150221.67145    119059.63945  26208287.6654   26208286.8314
      -428.0424
  14779258.36045  13071449.64345  25715797.5014   25715801.1984
     -4420.4564
   -188191.11943    -58266.37445  26295507.7264   26295512.3364
      1463.5584
  -2095352.85747    405589.04446  23806165.1064   23806169.2964
      -952.3724
  26861399.77446  21041784.84946  24810942.9574   24810946.7734
     -5259.9944
   7518774.61147   1766323.70646  24497897.9524   24497899.7214
     -3869.7424
  -5616176.34847  -4271032.90747  22332907.3524   22332911.2294
      -904.6224
 06  5  7  1 23 30.0060000  0  8G30G23G 1G 7G25G 5G 2G 6
   5907545.09748   4713008.16447  22446415.9414   22446419.4124
     -3791.7974
    156711.87645    124116.97045  26209522.6984   26209523.8684
      -437.3314
  14845612.42045  13123154.06745  25728424.2974   25728430.3264
     -4426.7454
   -210131.87543    -75363.06245  26291332.5104   26291337.9094
      1461.8854
  -2081001.82347    416771.66746  23808896.0144   23808899.9184
      -961.0984
  26940325.27846  21103285.23546  24825962.0164   24825966.5164
     -5263.4004
   7576888.66547   1811607.37746  24508956.7284   24508958.1314
     -3878.7894
  -5602550.48847  -4260415.34647  22335500.2634   22335504.1004
      -912.1684
 06  5  7  1 23 45.0060000  0  8G30G23G 1G 7G25G 5G 2G 6
   5964475.96348   4757369.87847  22457249.5224   22457253.1774
     -3798.9834
    163340.46345    129282.20145  26210784.0444   26210786.3944
      -446.4694
  14912059.37445  13174930.88445  25741068.7754   25741075.0334
     -4432.8464
   -232048.38143    -92440.80845  26287161.9054   26287169.7724
      1460.3354
  -2066520.88247    428055.52246  23811651.6484   23811655.4284
      -969.6824
  27019300.69046  21164824.50146  24840990.5664   24840995.1384
     -5266.6364
   7635137.49147   1856996.06446  24520041.1404   24520042.6914
     -3887.6984
  -5588812.16547  -4249710.14547  22338114.5694   22338118.3394
      -919.5984
 06  5  7  1 24  0.0060000  0  8G30G23G 1G 7G25G 5G 2G 6
   6021515.71848   4801816.43947  22468103.8234   22468107.6414
     -3806.2924
    170107.55445    134555.28645  26212071.7554   26212073.6324
      -455.7894
  14978598.91745  13226779.86645  25753730.8284   25753737.1494
     -4439.0694
   -253940.59644   -109499.65145  26282995.9554   26283002.1084
      1458.6424
  -2051909.88747    439440.71146  23814432.0344   23814435.7794
      -978.4114
  27098325.76446  21226402.47546  24856028.5484   24856032.7604
     -5269.9974
   7693520.78247   1902489.51546  24531151.1324   24531153.0984
     -3896.7264
  -5574961.48247  -4238917.40247  22340750.2554   22340754.5734
      -927.1254
 06  5  7  1 24 15.0060000  0  8G30G23G 1G 7G25G 5G 2G 6
   6078664.57848   4846348.01247  22478978.8944   22478982.7164
     -3813.5984
    177013.85445    139936.87045  26213385.9394   26213389.8924
      -465.0974
  15045231.18945  13278701.09045  25766410.5154   25766415.5684
     -4445.2724
   -275807.88743   -126539.08445  26278834.7104   26278840.4894
      1456.9324
  -2037168.34547    450927.63346  23817237.2574   23817240.7974
      -987.1664
  27177400.72746  21288019.31846  24871076.0134   24871080.2824
     -5273.3784
   7752038.73347   1948087.90146  24542286.7544   24542289.2484
     -3905.7244
  -5560998.03147  -4228036.78747  22343407.4134   22343411.5834
      -934.7004
 06  5  7  1 24 30.0060000  0  8G30G23G 1G 7G25G 5G 2G 6
   6135921.75048   4890963.98647  22489874.5804   22489878.1404
     -3820.7234
    184058.76245    145426.44145  26214726.5024   26214728.3644
      -474.2604
  15111955.11345  13330693.71945  25779107.6034   25779113.7594
     -4451.2774
   -297650.77743   -143559.47545  26274678.1044   26274684.3314
      1455.4154
  -2022296.84147    462515.82346  23820067.2154   23820070.5824
      -995.7324
  27256524.73346  21349674.38146  24886132.8144   24886137.6314
     -5276.5264
   7810690.50246   1993790.54246  24553447.8454   24553449.7094
     -3914.5354
  -5546922.38647  -4217068.74447  22346085.9084   22346090.0164
      -942.0934
 06  5  7  1 24 45.0060000  0  8G30G23G 1G 7G25G 5G 2G 6
   6193287.00648   4935664.17647  22500790.8294   22500794.3414
     -3827.8964
    191242.51745    151024.12945  26216093.5404   26216095.4344
      -483.5124
  15178770.24845  13382757.39845  25791822.1364   25791827.5044
     -4457.3314
   -319469.22944   -160560.80445  26270526.1604   26270528.3874
      1453.7894
  -2007295.10247    474205.48646  23822921.9524   23822925.4004
     -1004.4154
  27335697.55446  21411367.47746  24901198.9204   24901203.7034
     -5279.7704
   7869475.78847   2039597.24346  24564634.3394   24564636.1124
     -3923.4224
  -5532734.57347  -4206013.29847  22348785.7474   22348789.6664
      -949.5554
 06  5  7  1 25  0.0060000  0  8G30G23G 1G 7G25G 5G 2G 6
   6250759.75448   4980448.13147  22511727.5384   22511730.8294
     -3835.0824
    198564.84145    156729.90045  26217486.9444   26217488.5594
      -492.7634
  15245675.78945  13434891.56145  25804553.8684   25804559.3124
     -4463.3544
   -341263.52943   -177543.37845  26266378.7844   26266384.9264
      1452.1634
  -1992163.56847    485996.30046  23825801.3904   23825804.8284
     -1013.0784
  27414918.56446  21473098.12546  24916274.1984   24916278.7914
     -5282.9884
   7928393.84646   2085507.40646  24575846.0894   24575847.9484
     -3932.2714
  -5518434.97947  -4194870.75647  22351506.8694   22351510.8144
      -957.0194
 06  5  7  1 25 15.0060000  0  8G30G23G 1G 7G25G 5G 2G 6
   6308341.17948   5025316.76747  22522684.9424   22522687.8444
     -3842.3964
    206027.01345    162544.56445  26218906.9464   26218908.5634
      -502.1644
  15312672.54445  13487096.81045  25817302.9684   25817308.4554
     -4469.4914
   -363032.31343   -194506.02345  26262236.2974   26262242.1094
      1450.3794
  -1976900.94847    497889.25646  23828705.7684   23828709.4284
     -1021.8904
  27494188.65246  21534867.01546  24931358.8204   24931362.8484
     -5286.3254
   7987445.58047   2131521.72946  24587083.3034   24587085.3774
     -3941.2544
  -5504022.45847  -4183640.21947  22354249.4704   22354253.7164
      -964.6094
 06  5  7  1 25 30.0060000  0  8G30G23G 1G 7G25G 5G 2G 6
   6366030.38348   5070269.39447  22533662.8494   22533665.6284
     -3849.5714
    213628.86345    168468.08045  26220353.4984   26220355.0984
      -511.4764
  15379759.73545  13539372.49645  25830069.2674   25830073.7284
     -4475.5064
   -384775.80843   -211448.97445  26258098.6084   26258104.7534
      1448.6864
  -1961507.56247    509884.10046  23831635.0214   23831638.5624
     -1030.6124
  27573507.21246  21596673.67546  24946452.6754   24946457.2724
     -5289.5384
   8046630.30946   2177639.69246  24598345.8054   24598347.9794
     -3950.1004
  -5489497.34047  -4172321.94747  22357013.4994   22357017.6904
      -972.1294
 06  5  7  1 25 45.0060000  0  8G30G23G 1G 7G25G 5G 2G 6
   6423827.52548   5115306.12047  22544661.2904   22544664.1174
     -3856.7204
    221370.50745    174500.54545  26221826.6734   26221829.0704
      -520.7924
  15446936.97145  13591718.37645  25842852.6824   25842856.5214
     -4481.4854
   -406493.98943   -228372.19745  26253965.7554   26253973.5054
      1447.0344
  -1945983.22947    521980.99546  23834589.1944   23834592.9774
     -1039.3344
  27652874.11346  21658518.00046  24961555.7254   24961559.5884
     -5292.7464
   8105947.73646   2223861.04746  24609633.5484   24609635.4704
     -3958.9134
  -5474859.60847  -4160915.92647  22359798.9644   22359803.2764
      -979.6064
 06  5  7  1 26  0.0060000  0  8G30G23G 1G 7G25G 5G 2G 6
   6481733.01948   5160427.27847  22555680.3344   22555683.2024
     -3863.9444
    229253.03545    180642.78245  26223326.6734   26223330.0264
      -530.1724
  15514204.72345  13644134.77445  25855653.3304   25855657.6774
     -4487.4874
   -428185.89243   -245274.91045  26249837.9004   26249845.9194
      1445.2824
  -1930327.08747    534180.58646  23837568.4604   23837572.3134
     -1048.1054
  27732289.91846  21720400.45646  24976668.0634   24976672.5174
     -5295.9704
   8165398.38446   2270186.21046  24620946.6354   24620948.7134
     -3967.7594
  -5460108.40147  -4149421.47647  22362606.0134   22362610.1314
      -987.1374
 06  5  7  1 26 15.0060000  0  8G30G23G 1G 7G25G 5G 2G 6
   6539745.45848   5205631.76547  22566719.7314   22566722.9394
     -3871.1414
    237275.30645    186893.94745  26224853.2714   26224854.3204
      -539.5734
  15581561.30245  13696620.40145  25868470.8734   25868476.7834
     -4493.4734
   -449852.74343   -262158.15445  26245714.8274   26245721.0054
      1443.5264
  -1914540.32747    546481.96146  23840572.5754   23840576.5294
     -1056.8994
  27811753.04146  21782319.76846  24991789.3754   24991793.7484
     -5299.2114
   8224980.46146   2316613.79246  24632284.7384   24632286.5094
     -3976.6114
  -5445245.26547  -4137839.82047  22365434.3694   22365438.3324
      -994.7104
 06  5  7  1 26 30.0060000  0  8G30G23G 1G 7G25G 5G 2G 6
   6597866.09548   5250920.57447  22577779.7164   22577783.0234
     -3878.2874
    245438.69245    193255.03545  26226406.7214   26226407.3734
      -548.9144
  15649007.63945  13749175.94645  25881305.5034   25881309.3134
     -4499.3804
   -471492.94443   -279020.66145  26241596.8344   26241602.2604
      1441.8324
  -1898621.44947    558886.28846  23843601.8344   23843605.7934
     -1065.6414
  27891264.74846  21844276.91346  25006919.9364   25006924.3914
     -5302.3654
   8284695.32647   2363144.84746  24643648.1254   24643649.7944
     -3985.3884
  -5430268.60447  -4126169.69347  22368284.3324   22368288.2864
     -1002.1904
 06  5  7  1 26 45.0060000  0  8G30G23G 1G 7G25G 5G 2G 6
   6656094.09848   5296293.03847  22588860.1404   22588863.5444
     -3885.4164
    253742.65945    199725.63545  26227986.9334   26227988.7694
      -558.2794
  15716542.64245  13801800.63445  25894157.0064   25894162.1364
     -4505.2674
   -493107.18443   -295862.84345  26237483.7874   26237492.1064
      1440.1034
  -1882571.16847    571392.99746  23846656.0924   23846660.0184
     -1074.3694
  27970823.94146  21906271.08846  25022059.5274   25022064.0944
     -5305.5094
   8344541.87246   2409778.49646  24655036.5664   24655038.1404
     -3994.1374
  -5415179.16247  -4114411.68447  22371155.7584   22371159.9694
     -1009.7204
 06  5  7  1 27  0.0060000  0  8G30G23G 1G 7G25G 5G 2G 6
   6714430.37648   5341749.87147  22599961.1724   22599964.6204
     -3892.6364
    262188.57745    206306.89045  26229594.1044   26229595.8024
      -567.7394
  15784167.10945  13854495.01945  25907025.5464   25907032.5494
     -4511.2234
   -514694.05443   -312683.73445  26233375.8954   26233380.9634
      1438.2724
  -1866388.21247    584003.10646  23849735.5914   23849739.3114
     -1083.2354
  28050431.72446  21968303.09846  25037208.3534   25037212.3644
     -5308.7484
   8404520.86747   2456515.36346  24666450.2194   24666451.4854
     -4002.9634
  -5399975.78247  -4102564.89847  22374048.8654   22374053.3514
     -1017.3174
 06  5  7  1 27 15.0060000  0  8G30G23G 1G 7G25G 5G 2G 6
   6772873.81248   5387290.20447  22611082.5994   22611086.1284
     -3899.7764
    270775.81445    212998.24545  26231228.1694   26231230.9974
      -577.1594
  15851879.86445  13907258.15345  25919910.8484   25919916.4414
     -4517.0934
   -536254.41044   -329483.97845  26229273.0774   26229276.6244
      1436.4944
  -1850073.18347    596716.11446  23852840.2214   23852843.9514
     -1092.0424
  28130086.96246  22030372.10846  25052366.2294   25052370.9814
     -5311.9074
   8464631.27747   2503354.63546  24677888.8774   24677890.5944
     -4011.7144
  -5384659.34747  -4090630.01947  22376963.4864   22376967.5694
     -1024.8614
 06  5  7  1 27 30.0060000  0  8G30G23G 1G 7G25G 5G 2G 6
   6831423.84148   5432913.59647  22622224.3104   22622227.8764
     -3906.9184
    279503.94845    219799.40245  26232889.0604   26232891.1384
      -586.6004
  15919680.00745  13960089.41445  25932812.7494   25932818.7894
     -4522.9474
   -557788.60545   -346263.86745  26225175.2944   26225181.0534
      1434.7114
  -1833626.59047    609531.64346  23855969.8864   23855973.6374
     -1100.8594
  28209789.02046  22092477.58446  25067533.0354   25067537.5704
     -5315.0624
   8524872.47046   2550295.80946  24689352.3884   24689354.7194
     -4020.4644
  -5369230.31647  -4078607.39047  22379899.5404   22379903.5384
     -1032.3864
 06  5  7  1 27 45.0060000  0  8G30G23G 1G 7G25G 5G 2G 6
   6890082.15248   5478621.35147  22633386.6384   22633390.1244
     -3914.0884
    288374.81445    226711.79045  26234577.1174   26234578.6614
      -596.0934
  15987568.85945  14012989.79145  25945731.5674   25945736.3554
     -4528.8004
   -579294.72844   -363021.85745  26221082.7894   26221087.2784
      1432.8774
  -1817046.50347    622451.20546  23859124.9514   23859128.9414
     -1109.7204
  28289539.37746  22154620.70546  25082709.0414   25082713.6624
     -5318.2244
   8585245.66346   2597339.84246  24700841.0364   24700843.7534
     -4029.1974
  -5353686.84047  -4066495.58747  22382857.3664   22382861.3144
     -1039.9564
 06  5  7  1 28  0.0060000  0  8G30G23G 1G 7G25G 5G 2G 6
   6948848.02348   5524412.93847  22644569.4284   22644573.0534
     -3921.3194
    297388.40745    233735.35545  26236292.3474   26236293.2794
      -605.6804
  16055545.62245  14065958.65745  25958667.1174   25958672.0614
     -4534.7084
   -600772.93944   -379758.07945  26216995.5824   26217000.1714
      1430.9464
  -1800333.25047    635474.52346  23862305.3604   23862309.3764
     -1118.6704
  28369337.47546  22216801.03546  25097894.1194   25097898.9344
     -5321.4634
   8645750.13546   2644486.15446  24712354.6614   24712357.5794
     -4038.0164
  -5338029.42247  -4054295.00047  22385836.8804   22385840.7444
     -1047.6244
 06  5  7  1 28 15.0060000  0  8G30G23G 1G 7G25G 5G 2G 6
   7007720.73948   5570287.77747  22655772.5414   22655775.7634
     -3928.3224
    306544.18945    240869.73945  26238034.6414   26238036.0444
      -615.0724
  16123609.29545  14118995.26345  25971619.2164   25971625.1974
     -4540.3974
   -622223.77845   -396473.02545  26212913.6464   26212919.6314
      1429.2004
  -1783487.37047    648601.18846  23865511.0104   23865514.9314
     -1127.4154
  28449182.44246  22279017.88946  25113088.1054   25113093.5284
     -5324.4954
   8706385.02346   2691734.10746  24723893.1154   24723895.9484
     -4046.5994
  -5322258.61447  -4042006.05547  22388837.9714   22388841.7634
     -1055.0924
 06  5  7  1 28 30.0060000  0  8G30G23G 1G 7G25G 5G 2G 6
   7066699.87248   5616245.53847  22666995.9034   22666999.1934
     -3935.5664
    315842.13245    248114.91845  26239803.9654   26239806.9984
      -624.6864
  16191759.38945  14172099.22345  25984587.7494   25984593.5034
     -4546.2844
   -643647.19245   -413166.51745  26208836.9414   26208841.0644
      1427.2454
  -1766508.81447    661831.23146  23868741.9114   23868745.6914
     -1136.4094
  28529074.04946  22341271.07246  25128290.9714   25128296.6774
     -5327.7404
   8767149.85246   2739083.28546  24735456.3034   24735458.6894
     -4055.3954
  -5306374.56647  -4029628.86747  22391860.6084   22391864.6144
     -1062.7914
 06  5  7  1 28 45.0060000  0  8G30G23G 1G 7G25G 5G 2G 6
   7125786.63348   5662287.16047  22678239.7404   22678242.9234
     -3942.5894
    325283.62845    255471.93445  26241600.6184   26241602.0084
      -634.1114
  16259996.68445  14225271.05645  25997572.9144   25997578.8784
     -4551.9614
   -665042.02644   -429837.79845  26204765.6034   26204769.5414
      1425.4884
  -1749396.37347    675165.60946  23871998.2944   23872002.0924
     -1145.1864
  28609013.17246  22403561.29146  25143502.8664   25143508.0034
     -5330.7384
   8828045.55647   2786534.47346  24747044.3994   24747046.3234
     -4063.9514
  -5290376.03847  -4017162.48447  22394905.0144   22394909.0724
     -1070.2684
 06  5  7  1 29  0.0060000  0  8G30G23G 1G 7G25G 5G 2G 6
   7184977.86148   5708410.18447  22689503.4534   22689506.7844
     -3949.6814
    334865.85645    262938.60245  26243424.0164   26243425.5654
      -643.6364
  16328317.92645  14278508.40645  26010574.1194   26010578.0784
     -4557.6524
   -686411.00645   -446488.90945  26200699.2134   26200704.2704
      1423.6114
  -1732152.79047    688602.17046  23875279.6414   23875283.2294
     -1154.0554
  28688996.72046  22465886.11746  25158723.2354   25158728.5024
     -5333.8364
   8889068.87747   2834085.08446  24758656.7684   24758658.8344
     -4072.5974
  -5274265.86847  -4004609.09647  22397970.6704   22397974.9184
     -1077.8374
 06  5  7  1 29 15.0060000  0  8G30G23G 1G 7G25G 5G 2G 6
   7244276.47848   5754616.89347  22700787.6164   22700791.0954
     -3956.8244
    344592.02745    270517.49245  26245274.8264   26245276.5934
      -653.2294
  16396725.79345  14331813.22145  26023591.7804   26023596.0384
     -4563.4094
   -707751.02644   -463117.46745  26196638.2954   26196642.3024
      1421.7124
  -1714775.09347    702143.23146  23878586.5164   23878590.4924
     -1163.0054
  28769027.50446  22528247.74246  25173952.6164   25173958.4324
     -5336.9734
   8950222.71446   2881737.40046  24770293.9634   24770296.4434
     -4081.2734
  -5258041.24547  -3991966.53947  22401058.0994   22401062.1804
     -1085.4654
 06  5  7  1 29 30.0060000  0  8G30G23G 1G 7G25G 5G 2G 6
   7303682.11448   5800906.98947  22712092.1414   22712095.6234
     -3963.8504
    354462.16745    278208.47545  26247153.0394   26247155.5104
      -662.7364
  16465219.76045  14385185.12245  26036625.8204   26036630.6614
     -4569.0434
   -729061.91344   -479723.30745  26192582.9094   26192589.8604
      1419.8564
  -1697263.05647    715788.98646  23881918.9314   23881922.6324
     -1171.8604
  28849105.24946  22590645.99646  25189190.9234   25189196.6564
     -5339.9824
   9011506.56646   2929491.02746  24781955.9024   24781957.6304
     -4089.8234
  -5241702.13347  -3979234.76847  22404167.3164   22404171.4574
     -1093.0244
 06  5  7  1 29 45.0060000  0  8G30G23G 1G 7G25G 5G 2G 6
   7363194.41148   5847280.20147  22723416.9754   22723420.4774
     -3971.0724
    364476.26945    286011.65645  26249058.6724   26249060.1894
      -672.4504
  16533799.20845  14438623.59845  26049676.0824   26049680.9324
     -4574.8414
   -750343.87544   -496306.64045  26188533.0784   26188539.8374
      1417.7864
  -1679617.05247    729539.12146  23885276.8384   23885280.5914
     -1180.9094
  28929229.37846  22653080.35846  25204438.0334   25204442.7914
     -5343.1924
   9072919.84246   2977345.51546  24793642.4554   24793644.7614
     -4098.5614
  -5225248.75447  -3966413.94247  22407298.2764   22407302.5464
     -1100.7244
 06  5  7  1 30  0.0060000  0  8G30G23G 1G 7G25G 5G 2G 6
   7422813.02648   5893736.26147  22734762.0394   22734765.3774
     -3978.0694
    374634.18545    293926.94645  26250991.6494   26250992.1814
      -681.9394
  16602463.51745  14492128.23545  26062742.5234   26062747.3834
     -4580.4174
   -771597.00444   -512867.50545  26184488.7204   26184493.8244
      1415.9554
  -1661837.05447    743393.67846  23888660.2434   23888663.9434
     -1189.7634
  29009399.61946  22715550.67446  25219693.9204   25219699.1354
     -5346.1814
   9134461.85646   3025300.31646  24805353.5074   24805355.8164
     -4107.0694
  -5208681.38747  -3953504.29747  22410450.9294   22410455.2434
     -1108.2744
 06  5  7  1 30 15.0060000  0  8G30G23G 1G 7G25G 5G 2G 6
   7482537.35648   5940274.69347  22746127.2174   22746130.3144
     -3985.1724
    384935.56445    301953.97445  26252951.9184   26252954.3714
      -691.5614
  16671211.95545  14545698.44445  26075825.0174   26075831.2184
     -4586.0394
   -792821.56443   -529406.09045  26180449.7574   26180454.3304
      1413.9564
  -1643923.43547    757352.34446  23892069.0824   23892072.6764
     -1198.7274
  29089615.28346  22778056.37346  25234958.4874   25234963.1474
     -5349.2534
   9196132.16846   3073355.08746  24817088.9664   24817091.5434
     -4115.6524
  -5192000.18847  -3940505.95947  22413625.2354   22413629.3974
     -1115.8924
 06  5  7  1 30 30.0060000  0  8G30G23G 1G 7G25G 5G 2G 6
   7542367.63348   5986895.68747  22757512.5574   22757516.0034
     -3992.1574
    395381.16545    310093.38745  26254939.6504   26254942.6644
      -701.1244
  16740044.59945  14599334.25945  26088923.5064   26088930.3044
     -4591.5924
   -814016.86643   -545921.88745  26176416.4094   26176420.6794
      1412.1034
  -1625875.62747    771415.56846  23895503.4534   23895507.2694
     -1207.6044
  29169876.71946  22840597.74246  25250231.7504   25250237.3184
     -5352.2284
   9257930.96246   3121509.95946  24828848.8714   24828851.0014
     -4124.1464
  -5175205.00947  -3927418.80147  22416821.2464   22416825.5414
     -1123.4214
 06  5  7  1 30 45.0060000  0  8G30G23G 1G 7G25G 5G 2G 6
   7602303.57748   6033599.01447  22768918.0044   22768921.3414
     -3999.2434
    405971.23545    318345.41045  26256954.8914   26256956.4914
      -710.8074
  16808960.95845  14653035.34945  26102037.9094   26102044.1824
     -4597.1824
   -835182.93343   -562414.88345  26172388.5914   26172394.4334
      1410.0764
  -1607693.58347    785583.40246  23898963.3884   23898966.9944
     -1216.6064
  29250183.55946  22903174.49646  25265513.6574   25265518.3834
     -5355.2844
   9319857.79246   3169764.62446  24840633.1414   24840635.0514
     -4132.7034
  -5158295.77747  -3914242.77247  22420038.9554   22420043.1544
     -1131.0594
 06  5  7  1 31  0.0060000  0  8G30G23G 1G 7G25G 5G 2G 6
   7662345.19548   6080384.69247  22780343.5424   22780346.7384
     -4006.2244
    416705.74845    326709.99145  26258997.6174   26258999.6534
      -720.3794
  16877960.61445  14706801.22345  26115168.1844   26115172.7104
     -4602.6764
   -856319.58043   -578884.93345  26168366.3734   26168373.1764
      1408.1924
  -1589377.20347    799855.90446  23902448.8784   23902451.9224
     -1225.5104
  29330535.63446  22965786.51246  25280804.1594   25280809.0314
     -5358.2454
   9381912.41746   3218118.85146  24852441.7384   24852444.7664
     -4141.1544
  -5141272.48947  -3900977.87347  22423278.3774   22423282.5584
     -1138.6484
 06  5  7  1 31 15.0060000  0  8G30G23G 1G 7G25G 5G 2G 6
   7722491.71248   6127252.09547  22791789.0494   22791792.6854
     -4013.3194
    427584.27545    335186.79745  26261067.7154   26261069.0144
      -730.1084
  16947042.76945  14760631.45245  26128314.1634   26128320.8184
     -4608.2784
   -877427.08644   -595332.33245  26164349.7574   26164355.2564
      1406.1354
  -1570926.88547    814232.78546  23905959.8594   23905963.4794
     -1234.5604
  29410932.22446  23028433.19346  25296103.1314   25296107.9974
     -5361.3124
   9444093.90146   3266571.92646  24864274.4804   24864277.0904
     -4149.7204
  -5124135.64847  -3887624.49347  22426539.4144   22426543.3534
     -1146.3194
 06  5  7  1 31 30.0060000  0  8G30G23G 1G 7G25G 5G 2G 6
   7782743.65248   6174201.64947  22803254.6184   22803258.6434
     -4020.3534
    438607.59845    343776.40145  26263165.3534   26263166.2244
      -739.7504
  17016207.65045  14814526.13745  26141475.8824   26141481.5374
     -4613.7764
   -898504.86044   -611756.54545  26160338.7884   26160342.3974
      1404.1694
  -1552341.94647    828714.55746  23909496.4574   23909499.9754
     -1243.5224
  29491373.79846  23091114.94146  25311410.6574   25311415.8214
     -5364.3144
   9506402.65046   3315124.17846  24876131.4414   24876134.0854
     -4158.2004
  -5106884.58247  -3874182.09247  22429822.1854   22429826.2764
     -1153.9194
 06  5  7  1 31 45.0060000  0  8G30G23G 1G 7G25G 5G 2G 6
   7843100.78948   6221233.18447  22814740.2024   22814744.2644
     -4027.3244
    449775.94445    352479.01445  26265290.5694   26265292.1434
      -749.4084
  17085454.90545  14868485.03645  26154653.3074   26154658.1994
     -4619.2234
   -919552.69443   -628157.42245  26156333.4954   26156338.8064
      1402.1764
  -1533622.17147    843301.39546  23913058.7014   23913062.4194
     -1252.4904
  29571860.22846  23153831.63146  25326726.7034   25326731.7244
     -5367.2654
   9568838.39946   3363775.39846  24888012.5714   24888015.1654
     -4166.6304
  -5089519.15047  -3860650.58847  22433126.7224   22433130.5604
     -1161.5134
 06  5  7  1 32  0.0060000  0  8G30G23G 1G 7G25G 5G 2G 6
   7903563.29048   6268346.81547  22826245.8394   22826249.7304
     -4034.3634
    461089.79744    361295.03445  26267443.4444   26267446.0514
      -759.1284
  17154784.41345  14922507.99945  26167846.3504   26167849.6484
     -4624.7154
   -940570.11144   -644534.58745  26152333.9674   26152341.4934
      1400.1244
  -1514767.29147    857993.52146  23916646.6604   23916650.4894
     -1261.5144
  29652391.55246  23216583.31246  25342051.2984   25342056.6174
     -5370.2564
   9631401.17946   3412525.59746  24899917.8894   24899920.8564
     -4175.0964
  -5072039.25547  -3847029.88647  22436453.0464   22436456.6004
     -1169.1614
 06  5  7  1 32 15.0060000  0  8G30G23G 1G 7G25G 5G 2G 6
   7964130.00548   6315541.65647  22837771.3044   22837774.8834
     -4041.2364
    472548.31145    370223.76045  26269623.8734   26269625.0914
      -768.6954
  17224194.84745  14976594.04845  26181054.7484   26181058.3334
     -4630.0334
   -961557.88144   -660888.66345  26148340.1034   26148345.2144
      1398.2184
  -1495778.11147    872790.29346  23920260.1674   23920263.8394
     -1270.3984
  29732966.57546  23279369.02846  25357384.2064   25357388.6144
     -5373.1144
   9694089.67446   3461373.76646  24911847.1344   24911849.5664
     -4183.3914
  -5054445.83247  -3833320.72147  22439800.9704   22439804.6774
     -1176.6714
 06  5  7  1 32 30.0060000  0  8G30G23G 1G 7G25G 5G 2G 6
   8024800.99848   6362817.75447  22849316.6124   22849319.9574
     -4048.1884
    484151.66645    379265.36545  26271831.8994   26271834.0304
      -778.3924
  17293685.94245  15030742.91845  26194278.4754   26194282.4804
     -4635.4034
   -982515.80444   -677219.48845  26144351.9324   26144358.6114
      1396.2114
  -1476654.43547    887691.86146  23923899.2714   23923902.9464
     -1279.3974
  29813585.19546  23342188.72846  25372725.3974   25372729.4784
     -5376.0094
   9756903.53346   3510319.62446  24923800.2134   24923802.6644
     -4191.7694
  -5036738.69647  -3819522.94947  22443170.5284   22443173.8664
     -1184.2644
 06  5  7  1 32 45.0060000  0  8G30G23G 1G 7G25G 5G 2G 6
   8085576.70148   6410175.44047  22860881.8454   22860885.1364
     -4055.1624
    495900.71445    388420.47545  26274067.6894   26274068.9514
      -788.0944
  17363258.09945  15084954.95945  26207517.6764   26207520.9384
     -4640.8014
  -1003443.03044   -693526.40745  26140369.5784   26140376.9064
      1394.1754
  -1457395.37747    902698.91646  23927564.1514   23927567.7924
     -1288.4104
  29894248.08746  23405042.91946  25388075.0214   25388079.5964
     -5378.9514
   9819843.43746   3559363.66046  24935777.2834   24935779.7494
     -4200.1544
  -5018917.03647  -3805635.93947  22446561.8754   22446565.6914
     -1191.8724
 06  5  7  1 33  0.0060000  0  8G30G23G 1G 7G25G 5G 2G 6
   8146456.63548   6457614.34647  22872466.9134   22872470.0924
     -4062.1544
    507795.37345    397689.05145  26276331.1944   26276332.8524
      -797.8434
  17432910.52945  15139229.59945  26220772.1154   26220776.2464
     -4646.1994
  -1024339.76244   -709809.50645  26136393.0394   26136400.3424
      1392.0674
  -1438001.23747    917811.23946  23931254.7424   23931258.6544
     -1297.4654
  29974954.55146  23467931.07046  25403432.9794   25403437.4784
     -5381.9074
   9882908.54346   3608505.27346  24947778.1794   24947780.7054
     -4208.5544
  -5000981.30347  -3791660.04747  22449974.9344   22449978.9174
     -1199.5594
 06  5  7  1 33 15.0060000  0  8G30G23G 1G 7G25G 5G 2G 6
   8207441.70348   6505135.17547  22884071.9814   22884075.3144
     -4069.0584
    519836.80645    407072.00445  26278622.6314   26278624.8034
      -807.5304
  17502643.92545  15193567.28545  26234041.9874   26234046.7784
     -4651.4614
  -1045204.73744   -726067.89545  26132422.5414   26132429.0554
      1390.0354
  -1418470.95047    933029.64646  23934971.2374   23934975.2914
     -1306.4444
  30055705.54646  23530853.91846  25418799.4114   25418803.4514
     -5384.7604
   9946099.78546   3657745.15846  24959803.1064   24959805.8814
     -4216.8274
  -4982930.42347  -3777594.42347  22453409.9034   22453413.8024
     -1207.1194
 06  5  7  1 33 30.0060000  0  9G30G23G 1G 7G25G 5G 2G16G 6
   8268530.33848   6552736.71047  22895696.7574   22895700.2934
     -4076.0694
    532023.56645    416568.17745  26280941.7154   26280943.7164
      -817.3474
  17572456.35145  15247966.54345  26247326.8104   26247332.0744
     -4656.8324
  -1066039.47144   -742302.73545  26128457.8074   26128462.0544
      1387.9024
  -1398805.92147    948353.04746  23938713.3854   23938717.7244
     -1315.5414
  30136499.26046  23593810.05046  25434173.9504   25434178.9994
     -5387.7194
  10009415.23246   3707081.86346  24971851.6684   24971853.4894
     -4225.2074
     -7830.07943                  26715505.1024
      1566.1114
  -4964765.89147  -3763440.24347  22456866.4984   22456870.3724
     -1214.8144
 06  5  7  1 33 45.0070000  0  9G30G23G 1G 7G25G 5G 2G16G 6
   8329727.31948   6600422.65647  22907342.1584   22907345.6484
     -4083.1104
    544358.00045    426179.42945  26283288.9064   26283290.1884
      -827.2304
  17642353.31345  15302431.66545  26260627.7474   26260631.9454
     -4662.2484
  -1086843.94644   -758513.96045  26124498.8134   26124506.2524
      1385.7254
  -1379003.53047    963783.48746  23942481.6584   23942485.6694
     -1324.7164
  30217342.11246  23656804.48046  25449557.8554   25449562.8384
     -5390.7214
  10072859.90546   3756519.25446  24983924.8224   24983926.8474
     -4233.6244
    -31315.30843                  26711036.2744
      1564.9004
  -4946485.21647  -3749195.55247  22460345.1944   22460348.8214
     -1222.5724
 06  5  7  1 34  0.0070000  0  9G30G23G 1G 7G25G 5G 2G16G 6
   8391024.77548   6648186.89747  22919006.6834   22919010.0624
     -4089.9684
    556838.54745    435904.50945  26285663.8774   26285664.7164
      -836.9284
  17712325.23545  15356955.23445  26273942.9764   26273948.7034
     -4667.4314
  -1107615.16544   -774699.31745  26120546.1234   26120550.9824
      1383.6824
  -1359066.17447    979319.09946  23946275.6214   23946279.4394
     -1333.6984
  30298223.22246  23719828.70346  25464949.0344   25464953.6774
     -5393.5154
  10136425.25046   3806050.67446  24996020.9384   24996022.7044
     -4241.8414
    -54782.22043                  26706570.7644
      1563.9074
  -4928090.80247  -3734862.23547  22463845.5284   22463849.1644
     -1230.1114
 06  5  7  1 34 15.0070000  0  9G30G23G 1G 7G25G 5G 2G16G 6
   8452425.86448   6696031.90147  22930690.9344   22930694.2644
     -4096.9104
    569465.66345    445743.86345  26288066.7224   26288066.9584
      -846.7414
  17782375.88645  15411540.17345  26287273.1804   26287276.7324
     -4672.7084
  -1128354.93245   -790860.16845  26116599.4464   26116605.5414
      1381.5624
  -1338992.99147    994960.54046  23950095.4264   23950099.0894
     -1342.7944
  30379147.31746  23782886.44946  25480348.3594   25480352.0884
     -5396.4214
  10200114.73246   3855678.83646  25008140.6734   25008142.5484
     -4250.1424
    -78232.80143                  26702108.2674
      1562.7814
  -4909581.94147  -3720439.74047  22467367.6444   22467371.4594
     -1237.7664
 06  5  7  1 34 30.0070000  0  9G30G23G 1G 7G25G 5G 2G16G 6
   8513930.86348   6743957.87447  22942394.9514   22942397.9604
     -4103.7544
    582239.80645    455697.71545  26290497.5304   26290498.6904
      -856.4714
  17852505.16445  15466186.33545  26300618.3284   26300622.9524
     -4677.8554
  -1149062.74145   -806996.05145  26112658.8874   26112665.0194
      1379.4974
  -1318783.64947   1010708.07646  23953941.1464   23953944.8234
     -1351.7884
  30460114.52046  23845977.77546  25495755.9024   25495759.8974
     -5399.1994
  10263928.26646   3905403.65246  25020283.9934   25020285.4874
     -4258.3324
   -101666.59343                  26697648.8694
      1561.7444
  -4890958.43347  -3705927.90647  22470911.5774   22470915.3244
     -1245.3464
 06  5  7  1 34 45.0070000  0  9G30G23G 1G 7G25G 5G 2G16G 6
   8575539.38548   6791964.50447  22954118.6794   22954121.8854
     -4110.6074
    595160.87545    465766.10345  26292956.3324   26292957.5044
      -866.2184
  17922712.46745  15520893.29045  26313978.3104   26313983.9354
     -4683.0124
  -1169738.68644   -823107.17745  26108724.3804   26108731.3054
      1377.3994
  -1298438.28747   1026561.60746  23957812.7484   23957816.6894
     -1360.8294
  30541124.35346  23909102.30346  25511171.5404   25511176.5054
     -5402.0124
  10327865.31546   3955224.70446  25032450.8184   25032452.4874
     -4266.5284
   -125083.57643     -3647.85645  26693192.6974   26693198.6964
      1560.6254
  -4872220.25547  -3691326.72347  22474477.3274   22474481.1924
     -1252.9664
 06  5  7  1 35  0.0070000  0  9G30G23G 1G 7G25G 5G 2G16G 6
   8637251.06948   6840051.53047  22965862.0314   22965865.0054
     -4117.6204
    608228.82945    475948.93845  26295443.0904   26295445.2364
      -876.1754
  17992997.22244  15575660.60845  26327353.0204   26327359.5354
     -4688.3044
  -1190382.68045   -839193.35345  26104795.9554   26104802.4734
      1375.1264
  -1277956.84047   1042521.17946  23961710.2344   23961713.8064
     -1370.0354
  30622176.47046  23972259.79946  25526595.2324   25526600.3864
     -5404.9454
  10391925.49846   4005141.71746  25044641.0604   25044643.0044
     -4274.8514
   -148483.75043    -21881.69145  26688739.7594   26688745.0524
      1559.3624
  -4853367.68147  -3676636.40047  22478064.8524   22478068.3334
     -1260.7414
 06  5  7  1 35 15.0070000  0  9G30G23G 1G 7G25G 5G 2G16G 6
   8699065.93448   6888218.95247  22977625.0154   22977628.2384
     -4124.3874
    621444.28045    486246.68445  26297957.9374   26297958.7814
      -885.9114
  18063359.42244  15630488.28545  26340742.4504   26340748.6384
     -4693.3564
  -1210994.26044   -855254.33345  26100873.6714   26100880.3754
      1373.0644
  -1257338.96547   1058587.05946  23965633.6914   23965637.4844
     -1379.0314
  30703271.11746  24035450.42546  25542027.0264   25542031.0174
     -5407.6654
  10456108.86846   4055154.71846  25056854.7534   25056856.7634
     -4282.9614
   -171866.63943    -40102.18145  26684290.0794   26684291.9734
      1558.3414
  -4834400.30147  -3661856.61747  22481674.2234   22481677.7394
     -1268.2954
 06  5  7  1 35 30.0070000  0  9G30G23G 1G 7G25G 5G 2G16G 6
   8760983.95148   6936466.75047  22989407.6214   22989410.9464
     -4131.3024
    634806.99745    496659.20645  26300500.7794   26300502.0924
      -895.7704
  18133798.56545  15685375.87345  26354146.5764   26354151.2884
     -4698.5124
  -1231573.46744   -871290.07445  26096957.5274   26096962.3244
      1370.8614
  -1236584.62147   1074759.28446  23969583.1054   23969586.9064
     -1388.1804
  30784407.84946  24098673.85746  25557466.8284   25557471.4334
     -5410.5164
  10520415.06946   4105263.43346  25069091.8064   25069093.9984
     -4291.1684
   -195232.21043    -58309.00945  26679843.7154   26679848.2954
      1557.1094
  -4815318.30648  -3646987.52347  22485305.4144   22485308.9494
     -1275.9614
 06  5  7  1 35 45.0070000  0  9G30G23G 1G 7G25G 5G 2G16G 6
   8823005.79548   6984795.45247  23001209.9804   23001213.2934
     -4138.1954
    648318.25845    507187.44045  26303071.9044   26303072.9534
      -905.6584
  18204315.24844  15740323.94345  26367565.4584   26367570.4384
     -4703.6224
  -1252119.22545   -887299.69645  26093047.7964   26093053.0934
      1368.6494
  -1215692.74747   1091038.66346  23973558.7004   23973562.1504
     -1397.3164
  30865587.55746  24161930.73646  25572914.8384   25572919.6684
     -5413.3534
  10584844.49546   4155468.16646  25081352.3304   25081354.6324
     -4299.3444
   -218579.21944    -76501.50545  26675400.9264   26675403.4724
      1555.9004
  -4796120.72747  -3632028.36347  22488958.5884   22488962.2154
     -1283.6504
 06  5  7  1 36  0.0070000  0  9G30G23G 1G 7G25G 5G 2G16G 6
   8885130.54048   7033204.34247  23013031.9124   23013035.6744
     -4145.0954
    661977.24245    517830.79545  26305671.1244   26305671.7684
      -915.5334
  18274908.25545  15795331.53145  26380998.8664   26381003.9944
     -4708.7614
  -1272632.09145   -903283.70945  26089144.3044   26089150.7104
      1366.4014
  -1194664.20747   1107424.53946  23977560.2984   23977563.8464
     -1406.4884
  30946809.13546  24225220.28746  25588370.8304   25588374.8674
     -5416.1774
  10649396.13546   4205768.14446  25093636.1024   25093638.2314
     -4307.5194
   -241908.45244    -94680.06545  26670961.5144   26670965.8764
      1554.6874
  -4776808.25947  -3616979.68347  22492633.6294   22492636.9504
     -1291.3664
 06  5  7  1 36 15.0070000  0  9G30G23G 1G 7G25G 5G 2G16G 6
   8947358.32448   7081693.51847  23024873.4624   23024877.0854
     -4151.9204
    675784.34145    528589.56145  26308298.5134   26308300.0374
      -925.3984
  18345577.50744  15850398.46245  26394446.7264   26394452.7234
     -4713.8024
  -1293111.77345   -919241.88245  26085247.1004   26085252.5314
      1364.2264
  -1173498.67647   1123917.16646  23981587.9694   23981592.0214
     -1415.5734
  31028072.64846  24288542.50746  25603834.8014   25603839.0874
     -5418.9574
  10714069.91146   4256163.26346  25105943.1374   25105946.3724
     -4315.6294
   -265219.53344   -112844.53645  26666525.5734   26666530.6394
      1553.4864
  -4757380.80947  -3601841.40047  22496330.5414   22496334.1084
     -1298.9684
 06  5  7  1 36 30.0070000  0  9G30G23G 1G 7G25G 5G 2G16G 6
   9009688.53648   7130262.50547  23036734.5094   23036737.9364
     -4158.8004
    689739.67645    539463.88145  26310954.0854   26310956.1894
      -935.3324
  18416322.44844  15905524.35445  26407909.0134   26407915.0574
     -4718.8874
  -1313558.35044   -935174.24645  26081356.2114   26081359.8104
      1361.9694
  -1152196.24447   1140516.46146  23985641.6904   23985645.3734
     -1424.7634
  31109377.73946  24351897.10146  25619306.6594   25619311.9054
     -5421.7404
  10778865.38646   4306653.22346  25118273.3404   25118276.1714
     -4323.7674
   -288512.40344   -130994.76745  26662093.0914   26662095.7164
      1552.2264
  -4737838.59047  -3586613.70147  22500049.3004   22500052.8114
     -1306.6724
 06  5  7  1 36 45.0070000  0  9G30G23G 1G 7G25G 5G 2G16G 6
   9072122.24548   7178912.14747  23048615.2594   23048618.6664
     -4165.7884
    703844.16845    550454.42845  26313638.0534   26313639.5114
      -945.3834
  18487143.57943  15960709.62645  26421385.7414   26421390.3204
     -4724.0154
  -1333970.74245   -951079.96845  26077471.8224   26077476.8344
      1359.5604
  -1130755.85947   1157223.25147  23989721.6684   23989725.2884
     -1434.0584
  31190725.12846  24415284.68546  25634786.5814   25634790.6374
     -5424.6604
  10843783.17846   4357238.49346  25130626.7894   25130629.6704
     -4332.0174
   -311786.00644   -149130.06245  26657664.2834   26657668.6554
      1550.8174
  -4718180.57747  -3571295.77047  22503790.0884   22503793.7464
     -1314.4914
 06  5  7  1 37  0.0070000  0  9G30G23G 1G 7G25G 5G 2G16G 6
   9134658.69248   7227641.85247  23060515.5554   23060519.0694
     -4172.5094
    718097.62145    561561.00445  26316350.3784   26316351.0954
      -955.1694
  18558040.16044  16015953.67745  26434876.8484   26434882.7884
     -4728.9144
  -1354349.04245   -966959.15845  26073593.9144   26073598.7264
      1357.4384
  -1109177.83347   1174037.30747  23993827.8424   23993831.2114
     -1443.0964
  31272114.29746  24478704.80646  25650274.4704   25650277.9004
     -5427.3204
  10908822.57646   4407918.53846  25143003.3784   25143006.6844
     -4339.9974
   -335040.48444   -167250.40745  26653239.1064   26653241.7234
      1549.6624
  -4698407.17047  -3555887.92547  22507552.8484   22507556.6124
     -1322.0684
 06  5  7  1 37 15.0070000  0  9G30G23G 1G 7G25G 5G 2G16G 6
   9197297.55548   7276451.34647  23072435.3464   23072438.6124
     -4179.3064
    732499.78345    572783.47045  26319090.9964   26319093.3254
      -965.0934
  18629011.47244  16071255.96845  26448382.2714   26448389.1444
     -4733.8874
  -1374693.48145   -982811.93445  26069722.4414   26069729.7864
      1355.1854
  -1087462.40547   1190958.42647  23997960.1604   23997963.3814
     -1452.2684
  31353544.71446  24542157.06246  25665770.1874   25665774.4444
     -5430.0574
  10973982.98546   4458692.84446  25155402.9884   25155406.0004
     -4348.0424
   -358275.88743   -185355.85445  26648817.5094   26648821.7744
      1548.4004
  -4678518.60947  -3540390.34147  22511337.5084   22511341.3474
     -1329.7224
 06  5  7  1 37 30.0070000  0  9G30G23G 1G 7G25G 5G 2G16G 6
   9260038.89048   7325340.69447  23084374.6324   23084377.9024
     -4186.1044
    747051.17845    584122.24345  26321860.0504   26321861.6414
      -975.0304
  18700057.54345  16126616.56145  26461901.8974   26461908.6014
     -4738.8504
  -1395003.54145   -998637.90245  26065857.5274   26065861.4734
      1352.8924
  -1065609.04147   1207987.01947  24002118.7354   24002121.9944
     -1461.4664
  31435016.57346  24605641.61846  25681273.7864   25681278.2334
     -5432.7994
  11039264.46846   4509561.50146  25167825.6364   25167828.5564
     -4356.0954
   -381491.79243   -203446.12345  26644399.6234   26644403.8724
      1547.1044
  -4658514.62347  -3524802.81547  22515144.1444   22515148.3024
     -1337.4084
 06  5  7  1 37 45.0070000  0  9G30G23G 1G 7G25G 5G 2G16G 6
   9322881.74148   7374309.14747  23096333.2344   23096336.1864
     -4192.9494
    761751.11145    595576.68245  26324657.3624   26324659.8634
      -984.9874
  18771177.16444  16182034.42645  26475435.4854   26475439.6724
     -4743.7814
  -1415279.95545  -1014437.70945  26061999.0504   26062005.3874
      1350.5794
  -1043618.50347   1225122.49847  24006303.4114   24006307.0104
     -1470.6334
  31516528.90346  24669157.73146  25696785.0974   25696790.1354
     -5435.5454
  11104665.98046   4560523.71446  25180271.1354   25180273.8504
     -4364.1384
   -404688.92243   -221521.79345  26639985.3704   26639990.0184
      1545.8154
  -4638395.92447  -3509125.90947  22518972.6064   22518976.8434
     -1345.1324
 06  5  7  1 38  0.0070000  0  9G30G23G 1G 7G25G 5G 2G16G 6
   9385827.14948   7423357.51347  23108311.3424   23108314.6504
     -4199.7314
    776600.93645    607147.98345  26327483.2024   26327485.4514
      -994.9444
  18842371.11843  16237510.21245  26488983.1724   26488989.1624
     -4748.6844
  -1435521.36745  -1030210.17345  26058147.2184   26058154.8564
      1348.2934
  -1021489.66847   1242365.74947  24010514.4064   24010518.3264
     -1479.8174
  31598082.59546  24732706.04546  25712304.2704   25712308.6744
     -5438.2374
  11170188.30346   4611580.05346  25192739.6004   25192742.7274
     -4372.1354
   -427865.80143   -239581.70245  26635574.9524   26635577.9204
      1544.5064
  -4618161.37047  -3493358.72647  22522823.1154   22522826.8634
     -1352.7844
 06  5  7  1 38 15.0070000  0  9G30G23G 1G 7G25G 5G 2G16G 6
   9448873.91548   7472484.85747  23120308.7434   23120312.4254
     -4206.5564
    791599.69745    618835.32045  26330337.3634   26330337.7184
     -1004.9554
  18913637.98544  16293042.81745  26502544.7674   26502549.6674
     -4753.6124
  -1455728.66945  -1045956.15745  26054301.8494   26054308.0794
      1345.9514
   -999223.46647   1259716.03146  24014751.5414   24014755.4044
     -1489.0534
  31679676.44946  24796285.67846  25727831.0744   25727835.2784
     -5440.9804
  11235829.95646   4662729.37546  25205230.7774   25205234.4094
     -4380.1464
   -451023.33044   -257626.48245  26631168.2204   26631171.4734
      1543.1094
  -4597812.09647  -3477502.14047  22526695.4574   22526699.2244
     -1360.5074
 06  5  7  1 38 30.0070000  0  9G30G23G 1G 7G25G 5G 2G16G 6
   9512022.15948   7521691.26847  23132325.4564   23132329.0114
     -4213.2904
    806747.89245    630639.09945  26333219.9524   26333220.8494
     -1014.8784
  18984977.82045  16348632.29545  26516120.3214   26516125.6694
     -4758.4274
  -1475901.29945  -1061675.04245  26050463.1004   26050468.9714
      1343.6524
   -976819.30847   1277173.82847  24019014.9124   24019018.4754
     -1498.2284
  31761310.76446  24859896.82346  25743365.5834   25743370.5804
     -5443.6484
  11301591.29746   4713971.97546  25217744.7234   25217748.0894
     -4388.0834
   -474160.93943   -275655.76345  26626765.2494   26626769.2854
      1541.8004
  -4577347.56147  -3461555.75147  22530589.7354   22530593.6694
     -1368.1604
 06  5  7  1 38 45.0070000  0  9G30G23G 1G 7G25G 5G 2G16G 6
   9575271.96048   7570976.82547  23144361.5064   23144365.2604
     -4219.9984
    822045.61145    642559.41645  26336131.0154   26336132.1884
     -1024.7934
  19056390.32845  16404278.39145  26529709.6844   26529713.1124
     -4763.2204
  -1496039.08645  -1077366.80145  26046630.9934   26046637.0594
      1341.3964
   -954277.13147   1294739.16147  24023304.5494   24023308.5574
     -1507.3784
  31842985.29746  24923539.31646  25758907.7234   25758911.8394
     -5446.2654
  11367471.84046   4765307.43246  25230281.3634   25230285.6084
     -4395.9784
   -497278.41343   -293669.32045  26622366.0964   26622369.1974
      1540.5114
  -4556767.72748  -3445519.50947  22534505.9644   22534509.7644
     -1375.8054
 06  5  7  1 39  0.0070000  0  9G30G23G 1G 7G25G 5G 2G16G 6
   9638623.50348   7620341.65547  23156416.9214   23156420.1824
     -4226.8164
    837493.28245    654596.57445  26339070.5874   26339070.8854
     -1034.8634
  19127875.46945  16459981.09845  26543312.8894   26543319.2054
     -4768.0844
  -1516141.49045  -1093030.98745  26042805.6524   26042810.1504
      1338.9934
   -931596.53247   1312412.35547  24027620.5264   24027624.0774
     -1516.6594
  31924700.24446  24987213.28946  25774457.5454   25774462.1984
     -5449.0004
  11433471.71546   4816735.89846  25242840.7174   25242844.3914
     -4403.9634
   -520375.22644   -311666.78345  26617970.9074   26617974.9634
      1539.0994
  -4536072.35147  -3429393.24347  22538444.1684   22538447.7884
     -1383.5294
 06  5  7  1 39 15.0070000  0  9G30G23G 1G 7G25G 5G 2G16G 6
   9702076.98948   7669785.93247  23168491.7274   23168494.9154
     -4233.6244
    853091.75245    666751.25145  26342038.8624   26342041.1634
     -1044.9104
  19199433.34644  16515740.43445  26556929.9244   26556933.7444
     -4772.9254
  -1536207.85245  -1108667.07145  26038987.1734   26038993.4234
      1336.5554
   -908776.95747   1330193.83547  24031962.9564   24031966.7414
     -1525.9374
  32006455.96046  25050919.02046  25790015.1464   25790019.2724
     -5451.7194
  11499591.14046   4868257.48646  25255422.8324   25255426.1174
     -4411.9274
   -543450.51844   -329647.47745  26613579.8304   26613584.0094
      1537.6524
  -4515260.76348  -3413176.41347  22542404.4854   22542408.1654
     -1391.3134
 06  5  7  1 39 30.0070000  0  9G30G23G 1G 7G25G 5G 2G16G 6
   9765631.46448   7719308.89147  23180585.7484   23180589.2384
     -4240.3594
    868840.17645    679022.75245  26345035.6434   26345037.1754
     -1054.9254
  19271062.77243  16571555.55045  26570560.4764   26570565.9294
     -4777.6904
  -1556238.88745  -1124275.64945  26035175.4164   26035181.2024
      1334.1784
   -885819.09647   1348083.07647  24036331.6914   24036335.2354
     -1535.1654
  32088251.34346  25114655.67046  25805580.3004   25805584.7564
     -5454.3864
  11565828.88846   4919871.29046  25268027.4644   25268030.2654
     -4419.8314
   -566505.16244   -347612.17245  26609192.6654   26609198.1594
      1536.2634
  -4494333.89148  -3396869.76747  22546386.7374   22546390.3384
     -1398.9834
 06  5  7  1 39 45.0070000  0  9G30G23G 1G 7G25G 5G 2G16G 6
   9829286.68748   7768910.35947  23192698.9414   23192702.4914
     -4246.9914
    884738.64645    691411.19845  26348061.0004   26348063.1654
     -1064.8734
  19342763.31043  16627426.10945  26584204.5774   26584208.6794
     -4782.3584
  -1576234.56045  -1139856.67845  26031370.3524   26031375.2694
      1331.8894
   -862722.91847   1366080.10147  24040726.7494   24040730.2184
     -1544.3294
  32170086.19646  25178423.10146  25821152.9634   25821157.4704
     -5456.9374
  11632184.61046   4971577.04346  25280654.5644   25280658.1584
     -4427.6224
   -589539.01244   -365560.61445  26604809.4784   26604812.9554
      1534.9244
  -4473291.84847  -3380473.36247  22550390.9054   22550394.4154
     -1406.6154
 06  5  7  1 40  0.0070000  0  9G30G23G 1G 7G25G 5G 2G16G 6
   9893042.82848   7818590.46147  23204831.3394   23204835.1124
     -4253.8354
    900787.54945    703916.81545  26351115.0064   26351116.8094
     -1074.9994
  19414534.87443  16683351.98945  26597862.1714   26597867.9294
     -4787.2004
  -1596194.34845  -1155409.73345  26027572.1144   26027576.6574
      1329.3844
   -839488.12447   1384185.12547  24045148.1834   24045151.4854
     -1553.6754
  32251960.68746  25242221.39546  25836733.1664   25836737.5324
     -5459.6714
  11698658.41346   5023374.79646  25293304.1424   25293307.2814
     -4435.5844
   -612551.45144   -383492.34045  26600430.3334   26600435.2624
      1533.3964
  -4452134.28847  -3363986.95747  22554417.0534   22554420.7424
     -1414.4124
 06  5  7  1 40 15.0070000  0  9G30G23G 1G 7G25G 5G 2G16G 6
   9956899.85748   7868349.18047  23216982.9364   23216986.4184
     -4260.4784
    916987.17145    716539.89645  26354197.7004   26354199.2124
     -1084.9974
  19486377.24644  16739333.02745  26611533.3184   26611540.3344
     -4791.8314
  -1616117.86645  -1170934.51745  26023780.8094   26023784.5344
      1327.0484
   -816114.41447   1402398.42147  24049596.0484   24049599.3714
     -1562.8604
  32333874.72646  25306050.50146  25852320.8884   25852325.4674
     -5462.2444
  11765250.09046   5075264.41846  25305976.1424   25305978.6444
     -4443.3584
   -635542.18843   -401407.22045  26596055.3304   26596058.2604
      1532.0174
  -4430860.98348  -3347410.35147  22558465.2364   22558469.1374
     -1422.0844
 06  5  7  1 40 30.0070000  0  9G30G23G 1G 7G25G 5G 2G16G 6
  10020857.85148   7918186.57147  23229153.7574   23229157.4444
     -4267.3054
    933337.91345    729280.70645  26357309.1624   26357310.4024
     -1095.1784
  19558290.19644  16795369.09145  26625217.8714   26625223.6714
     -4796.6234
  -1636004.80845  -1186430.81145  26019996.4574   26020002.4524
      1324.4874
   -792601.57447   1420720.11847  24054070.3854   24054074.0254
     -1572.2544
  32415828.35546  25369910.48346  25867916.1614   25867920.2384
     -5464.9824
  11831959.54946   5127245.81146  25318670.5404   25318673.1764
     -4451.3064
   -658510.84043   -419304.82045  26591684.5594   26591687.4974
      1530.4324
  -4409471.78148  -3330743.44547  22562535.4684   22562539.4924
     -1429.9114
 06  5  7  1 40 45.0070000  0  9G30G23G 1G 7G25G 5G 2G16G 6
  10084917.37148   7968103.07647  23241343.8964   23241347.3524
     -4273.9874
    949840.62245    742139.94845  26360449.5544   26360451.0234
     -1105.2064
  19630274.17443  16851460.47045  26638915.9534   26638922.4394
     -4801.2574
  -1655854.41445  -1201898.01045  26016219.1564   26016223.5204
      1322.0694
   -768948.82947   1439150.82647  24058571.3494   24058574.8454
     -1581.4984
  32497822.16646  25433801.75946  25883519.0464   25883523.2974
     -5467.5444
  11898787.18746   5179319.26046  25331387.4524   25331389.8064
     -4459.0854
   -681456.57443   -437184.61045  26587318.1154   26587323.4034
      1528.9514
  -4387965.81948  -3313985.55347  22566627.9264   22566631.5114
     -1437.6044
 06  5  7  1 41  0.0070000  0  9G30G23G 1G 7G25G 5G 2G16G 6
  10149077.52148   8018097.99447  23253553.1884   23253556.2624
     -4280.7544
    966494.44345    755116.96045  26363618.6794   26363620.1594
     -1115.3554
  19702328.07243  16907606.36345  26652627.3744   26652632.8914
     -4805.9694
  -1675667.07045  -1217336.44945  26012448.8904   26012454.3824
      1319.5764
   -745156.68647   1457690.15847  24063098.8404   24063101.9724
     -1590.8354
  32579855.25446  25497723.64846  25899129.4114   25899133.9864
     -5470.2394
  11965731.91746   5231483.98446  25344126.6474   25344128.7854
     -4466.9264
   -704379.77343   -455046.82045  26582956.0054   26582961.2964
      1527.4124
  -4366344.00648  -3297137.38147  22570742.4224   22570746.1054
     -1445.3684
 06  5  7  1 41 15.0070000  0  9G30G23G 1G 7G25G 5G 2G16G 6
  10213339.23748   8068172.05347  23265781.8104   23265784.5634
     -4287.3794
    983300.49145    768212.55345  26366816.7554   26366818.2564
     -1125.4134
  19774452.47143  16963807.17745  26666352.1264   26666359.2014
     -4810.5564
  -1695441.74645  -1232745.24045  26008685.8434   26008691.0174
      1317.1324
   -721224.24647   1476338.80847  24067653.0274   24067656.5964
     -1600.0924
  32661928.36146  25561676.68946  25914747.3914   25914752.4174
     -5472.7924
  12032794.42046   5283740.46646  25356888.2284   25356891.0354
     -4474.6774
   -727279.44243   -472890.66845  26578598.3204   26578603.0434
      1525.9004
  -4344605.35748  -3280198.17547  22574879.1584   22574882.6994
     -1453.0474
 06  5  7  1 41 30.0070000  0  9G30G23G 1G 7G25G 5G 2G16G 6
  10277700.37248   8118323.59147  23278029.3404   23278032.0774
     -4294.1164
   1000257.42545    781425.73945  26370043.5484   26370044.7364
     -1135.5394
  19846645.32343  17020061.29245  26680089.9494   26680097.7724
     -4815.1844
  -1715179.88045  -1248125.61245  26004929.7804   26004934.8554
      1314.6024
   -697153.06747   1495095.57446  24072233.6154   24072237.5294
     -1609.4404
  32744039.61846  25625659.49945  25930372.6244   25930377.2464
     -5475.4004
  12099972.70446   5336087.16346  25369671.8364   25369673.9404
     -4482.4624
   -750156.88143   -490717.24445  26574244.7874   26574248.7434
      1524.3574
  -4322751.49148  -3263169.18447  22579037.8114   22579041.5114
     -1460.8184
 06  5  7  1 41 45.0070000  0  9G30G23G 1G 7G25G 5G 2G16G 6
  10342162.47148   8168553.79447  23290296.0784   23290298.8364
     -4300.7744
   1017366.67845    794757.61045  26373299.3324   26373301.2204
     -1145.6364
  19918907.64243  17076369.57245  26693841.0114   26693845.3914
     -4819.7364
  -1734880.16145  -1263476.44045  26001180.9394   26001185.9604
      1312.1454
   -672941.69247   1513961.57747  24076840.8854   24076844.5644
     -1618.7074
  32826190.26646  25689672.97346  25946005.3654   25946010.2964
     -5477.9514
  12167267.95546   5388525.00546  25382477.6944   25382480.4754
     -4490.1844
   -773010.78843   -508525.42345  26569895.7094   26569900.9814
      1522.8814
  -4300781.00848  -3246049.32247  22583218.6644   22583222.6714
     -1468.5264
 06  5  7  1 42  0.0070000  0  9G30G23G 1G 7G25G 5G 2G16G 6
  10406724.50348   8218861.86547  23302581.8214   23302584.5554
     -4307.5104
   1034627.75145    808207.81045  26376584.0104   26376586.4704
     -1155.8614
  19991238.39444  17132731.22845  26707605.1644   26707609.7914
     -4824.3784
  -1754542.88945  -1278797.99245  25997439.2474   25997445.9184
      1309.5494
   -648590.71147   1532936.37347  24081474.7264   24081478.2264
     -1628.1174
  32908379.49246  25753716.50046  25961645.4584   25961649.9094
     -5480.6244
  12234679.09346   5441053.15646  25395305.6134   25395308.4894
     -4497.9834
   -795841.37743   -526315.43345  26565551.0984   26565554.6114
      1521.2124
  -4278694.53647  -3228839.08047  22587421.5844   22587425.3934
     -1476.3604
 06  5  7  1 42 15.0070000  0  9G30G23G 1G 7G25G 5G 2G16G 6
  10471386.79248   8269248.05947  23314886.6374   23314889.3924
     -4314.1114
   1052040.85145    821776.45845  26379897.6154   26379899.0454
     -1165.9024
  20063637.50843  17189146.08345  26721382.2414   26721387.7564
     -4828.8314
  -1774167.59245  -1294089.96245  25993704.7574   25993711.4474
      1307.0874
   -624099.68447   1552020.28747  24086135.2224   24086139.0694
     -1637.3584
  32990607.41246  25817790.20145  25977292.9004   25977297.1784
     -5483.0794
  12302206.15646   5493671.63646  25408155.5964   25408158.2374
     -4505.6144
   -818648.13044   -544086.87845  26561211.0824   26561215.1514
      1519.6654
  -4256491.80647  -3211538.25047  22591646.6334   22591650.4494
     -1484.0224
 06  5  7  1 42 30.0070000  0  9G30G23G 1G 7G25G 5G 2G16G 6
  10536147.94848   8319711.28947  23327210.2624   23327213.1534
     -4320.7184
   1069605.16445    835462.92845  26383239.9774   26383241.2754
     -1176.0184
  20136103.52043  17245613.07045  26735172.0644   26735176.6094
     -4833.3194
  -1793755.25645  -1309353.04845  25989977.3364   25989983.1134
      1304.5834
   -599469.79647   1571212.39947  24090822.1394   24090825.6744
     -1646.6404
  33072872.67546  25881892.99945  25992947.4284   25992952.3944
     -5485.6124
  12369847.70946   5546379.30946  25421027.3864   25421030.1074
     -4513.2794
   -841432.31045   -561840.74445  26556875.4154   26556880.7504
      1518.1444
  -4234173.98048  -3194147.73547  22595893.5754   22595897.3924
     -1491.7174
 06  5  7  1 42 45.0070000  0  9G30G23G 1G 7G25G 5G 2G16G 6
  10601009.07048   8370252.41647  23339552.9174   23339555.9844
     -4327.3954
   1087322.14945    849268.41845  26386611.3814   26386614.3614
     -1186.1954
  20208637.43243  17302133.05945  26748974.7724   26748980.6164
     -4837.8304
  -1813304.32245  -1324586.07145  25986257.2774   25986262.0034
      1302.0044
   -574699.53247   1590513.91347  24095535.7624   24095539.4954
     -1655.9954
  33155176.55846  25946025.87145  26008609.3144   26008613.5754
     -5488.1744
  12437604.86446   5599177.06746  25433921.1684   25433923.5174
     -4520.9634
   -864192.10845   -579575.62845  26552544.3784   26552549.5114
      1516.5094
  -4211739.55448  -3176666.36247  22600162.7064   22600166.7324
     -1499.4924
 06  5  7  1 43  0.0070000  0  9G30G23G 1G 7G25G 5G 2G16G 6
  10665968.18548   8420869.89847  23351914.2204   23351917.4154
     -4333.7954
   1105189.66945    863191.14345  26390011.4324   26390013.4904
     -1196.1284
  20281236.85743  17358703.99145  26762789.9304   26762794.8104
     -4842.0574
  -1832816.68845  -1339790.49445  25982544.1904   25982550.4334
      1299.6594
   -549790.83447   1609923.28247  24100275.7304   24100279.4444
     -1665.1324
  33237516.86346  26010187.13945  26024278.1354   26024282.9884
     -5490.4954
  12505475.32446   5652063.14846  25446836.4924   25446838.9194
     -4528.4074
   -886929.21845   -597292.87745  26548217.6974   26548221.0434
      1515.1144
  -4189190.64748  -3159095.78347  22604453.6174   22604457.4794
     -1507.0204
 06  5  7  1 43 15.0070000  0  9G30G23G 1G 7G25G 5G 2G16G 6
  10731024.18848   8471562.88047  23364293.9674   23364296.9084
     -4340.4114
   1123207.31845    877230.91545  26393440.0534   26393441.3564
     -1206.2894
  20353900.75343  17415325.16845  26776617.4174   26776621.5864
     -4846.5064
  -1852292.96845  -1354966.79745  25978837.9544   25978843.6004
      1297.1254
   -524744.31847   1629440.04247  24105041.9264   24105045.4264
     -1674.4634
  33319892.69045  26074376.09045  26039953.7164   26039958.5254
     -5493.0114
  12573458.16546   5705036.77246  25459773.2204   25459775.3874
     -4536.0364
   -909644.09745   -614992.76745  26543895.2344   26543899.4684
      1513.5104
  -4166527.82548  -3141436.44547  22608766.2034   22608770.0214
     -1514.7584
 06  5  7  1 43 30.0070000  0  9G30G23G21G 7G25G 5G 2G16G 6
  10796179.04548   8522332.89347  23376692.5244   23376695.0924
     -4346.8924
   1141376.96545    891389.11245  26396897.6214   26396898.2844
     -1216.3284
                                  26987224.3044
      1777.3624
  -1871731.15245  -1370113.40845  25975138.9774   25975145.0804
      1294.6494
   -499558.15747   1649065.62247  24109834.7004   24109838.3014
     -1683.6804
  33402305.65645  26138593.99245  26055636.3744   26055641.3554
     -5495.3774
  12641554.76446   5758099.06346  25472731.5984   25472733.6474
     -4543.5014
   -932334.94245   -632673.93345  26539577.3174   26539580.7224
      1511.9774
  -4143749.36148  -3123686.98447  22613100.7944   22613104.5374
     -1522.3484
 06  5  7  1 43 45.0070000  0  9G30G23G21G 7G25G 5G 2G16G 6
  10861431.87648   8573179.24947  23389109.7214   23389112.4704
     -4353.4564
   1159698.40345    905665.53245  26400384.0924   26400385.5824
     -1226.5134
    -24874.25145                  26982134.8894
      1776.4054
  -1891131.32445  -1385230.41945  25971447.2294   25971452.6364
      1292.0834
   -474232.54947   1668799.87247  24114654.0014   24114657.7754
     -1693.0274
  33484755.26845  26202840.41545  26071325.9974   26071331.6084
     -5497.8774
  12709764.43346   5811249.45246  25485711.4764   25485713.4354
     -4551.0784
   -955001.94245   -650336.50945  26535263.9154   26535265.1984
      1510.3304
  -4120855.70247  -3105847.76747  22617457.3074   22617461.1584
     -1530.1044
 06  5  7  1 44  0.0070000  0  9G30G23G21G 7G25G 5G 2G16G 6
  10926784.05448   8624103.01747  23401545.8064   23401548.3334
     -4360.0494
   1178173.05345    920061.37845  26403899.7184   26403899.4854
     -1236.6764
    -51512.24145                  26977064.7734
      1775.4434
  -1910492.16345  -1400316.78045  25967762.9554   25967768.4184
      1289.4904
   -448766.34547   1688643.66747  24119500.0604   24119503.8894
     -1702.3604
  33567242.55445  26267116.23845  26087022.7994   26087029.2244
     -5500.3234
  12778088.09946   5864488.66146  25498713.0374   25498715.2404
     -4558.6234
   -977643.59445   -667979.34145  26530955.3364   26530958.3034
      1508.6534
  -4097845.50347  -3087917.74647  22621835.9984   22621840.4014
     -1537.8264
 06  5  7  1 44 15.0070000  0  9G30G23G21G 7G25G 5G 2G16G 6
  10992234.04148   8675102.99947  23414000.5044   23414003.4194
     -4366.5634
   1196799.45345    934575.43445  26407444.2014   26407444.7154
     -1246.8074
    -78136.38245                  26971997.9894
      1774.4894
  -1929814.98345  -1415373.46845  25964085.9034   25964090.8334
      1286.9314
   -423160.79847   1708596.03647  24124372.6294   24124376.4204
     -1711.6684
  33649765.97745  26331420.18445  26102726.4844   26102731.9504
     -5502.7414
  12846524.06546   5917815.37446  25511735.9744   25511738.5914
     -4566.1144
  -1000261.13044   -685603.38445  26526651.3294   26526654.4354
      1507.0264
  -4074720.16147  -3069897.99847  22626236.6024   22626240.8744
     -1545.5364
 06  5  7  1 44 30.0070000  0  9G30G23G21G 7G25G 5G 2G16G 6
  11057781.06948   8726178.60547  23426473.6664   23426476.6444
     -4373.1104
   1215577.25545    949207.48345  26411017.4814   26411020.0664
     -1256.9764
   -104746.87944         0.72255  26966933.9614   26966939.6024
      1773.5134
  -1949100.00945  -1430400.75545  25960416.0364   25960421.3404
      1284.3374
   -397416.26947   1728656.71047  24129271.6444   24129275.2054
     -1720.9954
  33732324.92246  26395751.83945  26118436.9354   26118441.8574
     -5505.1744
  12915071.58746   5971229.01146  25524780.1624   25524782.1384
     -4573.6224
  -1022854.70244   -703208.75045  26522351.8444   26522355.6034
      1505.3774
  -4051480.06047  -3051788.82147  22630659.0404   22630663.4284
     -1553.2224
 06  5  7  1 44 45.0070000  0  9G30G23G21G 7G25G 5G 2G16G 6
  11123426.12248   8777330.58547  23438965.4914   23438968.7764
     -4379.5184
   1234507.70745    963958.49145  26414619.8054   26414620.6394
     -1267.0604
   -131342.39444    -20723.02745  26961872.8394   26961874.6504
      1772.5834
  -1968345.98145  -1445397.58145  25956753.6314   25956758.6234
      1281.8354
   -371531.66147   1748826.54047  24134197.3134   24134200.6354
     -1730.2484
  33814920.22246  26460111.79045  26134154.3194   26134158.6644
     -5507.4964
  12983731.40746   6024730.14446  25537845.7084   25537847.8674
     -4581.0024
  -1045423.03744   -720794.43645  26518057.1774   26518059.3154
      1503.7794
  -4028124.20747  -3033589.44947  22635103.4904   22635107.5144
     -1560.8704
 06  5  7  1 45  0.0070000  0  9G30G23G21G 7G25G 5G 2G16G 6
  11189167.95847   8828557.98347  23451475.7324   23451479.3844
     -4385.9944
   1253589.82745    978827.66745  26418251.0334   26418251.8634
     -1277.1894
   -157923.39644    -41435.41045  26956814.5494   26956817.2124
      1771.5934
  -1987553.64945  -1460364.57745  25953098.5384   25953103.4904
      1279.2364
   -345507.83847   1769104.84547  24139149.4644   24139152.7994
     -1739.5434
  33897550.85446  26524499.28745  26149878.4324   26149882.5664
     -5509.8824
  13052502.30346   6078317.86046  25550932.3864   25550934.8684
     -4588.4044
  -1067967.16844   -738361.24045  26513767.0954   26513769.4554
      1502.1344
  -4004653.53747  -3015300.62147  22639569.8054   22639574.0734
     -1568.5024
 06  5  7  1 45 15.0070000  0  9G30G23G21G 7G25G 5G 2G16G 6
  11255008.02447   8879861.92147  23464004.6694   23464008.1634
     -4392.5324
   1272825.28745    993816.33245  26421911.4344   26421911.2214
     -1287.4104
   -184488.27445    -62135.33545  26951759.3534   26951763.1744
      1770.5324
  -2006721.51045  -1475300.55945  25949451.0014   25949456.1764
      1276.5944
   -319343.36647   1789492.73947  24144128.4004   24144131.5924
     -1748.9294
  33980218.00046  26588915.24245  26165609.5034   26165614.0484
     -5512.2874
  13121385.29746   6131992.91646  25564040.3764   25564042.6254
     -4595.8574
  -1090485.09145   -755907.66645  26509482.0484   26509483.9894
      1500.3894
  -3981066.71347  -2996921.27647  22644058.2254   22644062.3584
     -1576.2674
 06  5  7  1 45 30.0070000  0  9G30G23G21G 7G25G 5G 2G16G 6
  11320944.19447   8931240.74847  23476551.9034   23476555.6614
     -4398.9504
   1292212.26645   1008923.05745  26425600.6544   26425602.5954
     -1297.5114
   -211038.50445    -82823.79745  26946706.9714   26946712.8104
      1769.5304
  -2025851.28945  -1490206.83845  25945810.6894   25945815.3044
      1274.0464
   -293039.94047   1809988.91747  24149133.7734   24149137.2284
     -1758.1964
  34062919.69046  26653358.12545  26181347.1654   26181350.8334
     -5514.5914
  13190378.33246   6185753.69546  25577169.3294   25577171.7184
     -4603.2084
  -1112978.55945   -773435.08745  26505201.6894   26505204.8984
      1498.7554
  -3957365.35348  -2978452.67947  22648568.4474   22648572.5944
     -1583.9104
